GFSGL_250_rhum_000.txt.gz
RH
72 77 84 87 89 96 100 100 92 78 68 62 61 62 48 43 57 69 88 76 50 41 45 46 50 64 71 70 73 72 71 76 73 85 80 75 74 82 80 62 40 72 77
100 100 100 100 100 100 100 90 77 80 69 73 73 62 48 49 53 77 73 73 52 36 40 42 47 69 76 68 70 73 74 75 76 76 82 67 73 82 75 57 49 90 90
99 98 98 100 94 76 62 58 61 59 74 58 49 40 38 44 46 48 50 34 36 34 35 36 46 59 60 66 67 74 69 68 66 60 60 60 60 73 56 56 62 94 90
83 86 76 67 63 62 53 52 55 47 41 31 36 47 54 52 35 40 39 29 27 30 34 33 36 45 51 54 60 71 65 61 62 57 47 44 60 57 53 60 66 94 95
79 74 68 60 55 47 42 36 30 29 42 43 37 36 32 34 36 29 27 26 27 30 32 33 36 40 48 54 50 49 53 53 57 44 51 56 56 37 59 64 98 98 97
67 56 50 36 31 28 25 24 28 26 28 32 24 22 26 26 27 28 30 32 32 33 34 37 39 41 43 44 43 45 46 42 40 43 54 49 36 40 49 82 100 100 100
36 34 33 28 28 28 31 29 26 20 19 23 25 29 29 30 32 34 35 35 35 37 38 40 41 41 40 36 30 30 31 34 37 44 43 32 29 48 46 93 100 100 100
25 26 28 29 29 30 28 24 24 25 25 24 24 28 30 30 30 29 30 30 30 29 29 31 32 31 26 21 22 24 28 29 30 34 28 23 40 43 100 100 100 100 100
26 30 28 29 27 26 23 20 18 17 17 16 14 13 12 12 13 14 13 14 16 15 15 16 16 18 21 24 24 22 24 18 22 23 21 34 36 30 78 100 100 100 100
33 30 23 20 16 13 12 11 11 11 9 9 9 9 10 12 14 14 13 13 13 14 14 15 15 11 11 14 16 18 14 19 20 22 27 34 21 50 98 100 100 100 100
22 21 18 16 12 10 10 9 8 9 9 9 11 11 12 11 10 10 9 9 10 11 12 11 9 11 12 15 15 14 15 21 24 35 31 20 28 76 100 100 100 100 100
16 12 11 10 12 13 11 10 10 9 10 10 9 8 10 10 9 10 12 12 10 8 8 9 11 11 11 13 14 16 17 25 32 28 19 22 37 99 100 100 100 100 100
14 13 12 11 10 9 10 9 10 9 10 10 10 9 10 11 9 9 7 7 7 9 9 10 11 12 13 13 15 17 20 25 27 20 19 25 70 100 100 100 100 100 100
9 9 9 10 10 6 5 5 6 6 6 6 6 6 6 7 8 8 9 9 10 10 10 10 11 9 10 12 16 18 23 29 18 17 20 42 100 100 100 100 100 100 99
7 7 7 6 5 5 5 5 5 5 5 6 7 8 8 8 9 10 10 9 9 9 9 11 12 12 14 17 19 21 27 16 17 21 27 65 100 100 100 100 100 100 100
6 6 5 5 5 5 6 7 9 8 8 8 8 8 9 9 9 9 7 8 7 8 8 11 13 16 17 23 26 24 15 17 21 26 30 88 100 100 100 100 100 100 100
5 5 6 6 6 7 8 8 10 10 7 6 6 6 7 7 7 7 8 7 7 8 9 11 15 17 23 26 20 15 16 21 25 27 48 96 100 100 100 100 100 100 100
5 6 6 7 7 7 6 6 5 6 7 5 4 4 5 6 6 6 7 6 6 7 9 10 11 14 20 17 15 16 19 23 23 45 58 98 100 98 81 83 100 100 98
6 6 6 5 5 5 5 5 5 5 5 5 4 4 4 5 6 6 6 6 6 8 9 9 10 13 14 13 16 19 23 25 30 74 100 100 100 100 68 98 95 97 100
6 5 5 5 5 4 4 4 4 4 4 4 4 4 4 5 5 5 6 6 6 8 10 10 10 10 12 18 21 24 27 48 56 82 94 99 97 82 100 94 100 100 97
5 5 4 3 3 3 4 4 4 4 4 4 4 4 5 5 6 6 7 6 7 9 10 11 11 14 21 24 28 32 57 82 79 96 100 100 90 100 100 100 100 96 89
3 3 3 3 4 4 4 3 4 4 4 5 5 5 6 6 6 8 9 9 8 10 11 12 14 21 25 31 35 45 70 57 60 97 95 96 100 100 100 100 90 86 84
3 3 3 4 4 4 5 5 5 5 5 4 4 3 4 5 6 8 9 10 10 11 12 14 18 25 28 42 48 66 72 67 80 88 100 100 100 100 100 100 84 82 87
4 4 4 5 5 5 5 4 4 3 3 2 2 2 3 4 5 7 8 9 11 12 13 17 22 29 28 41 65 71 78 78 99 100 100 100 100 100 100 89 83 86 78
4 4 4 4 4 3 3 2 2 2 2 3 3 2 2 3 4 6 7 9 12 13 15 20 26 27 26 60 81 100 89 86 98 100 100 100 100 100 95 80 83 91 85
3 3 3 2 2 2 2 2 2 2 3 3 3 3 3 2 3 5 6 10 12 14 18 24 30 20 33 71 100 100 100 100 100 100 100 100 100 100 82 86 98 92 77

GFSGL_250_rhum_003.txt.gz
RH
68 63 61 60 59 61 65 68 76 81 83 90 97 89 68 57 58 56 54 43 37 44 41 44 53 53 82 70 80 57 39 38 33 33 41 41 46 62 76 72 62 68 74
59 69 75 77 77 84 97 99 99 100 97 81 68 74 74 59 51 49 38 35 33 26 25 34 31 32 33 38 37 44 48 44 35 34 39 42 50 60 70 61 61 61 64
86 95 98 94 98 99 98 95 89 76 76 78 68 52 37 35 29 26 22 25 24 23 23 20 23 25 27 26 28 31 36 41 42 44 48 55 54 58 61 64 62 61 60
86 84 89 97 97 100 93 72 58 50 41 37 35 34 30 25 26 26 23 23 23 23 21 21 20 19 19 23 26 29 33 36 42 46 52 61 68 62 57 59 48 55 48
100 95 84 70 61 54 50 46 42 36 32 30 29 32 30 30 27 24 19 18 19 20 21 16 16 16 17 19 22 24 28 35 42 44 53 54 47 41 57 58 50 47 48
68 57 49 48 46 40 41 43 41 37 31 32 26 23 20 19 19 17 15 13 13 12 14 14 15 16 16 16 15 13 14 16 19 23 26 25 30 26 34 35 41 52 47
53 58 52 42 35 34 32 31 27 26 24 22 20 19 16 15 14 15 13 13 14 13 13 12 14 17 17 15 15 16 18 19 19 18 19 25 23 22 26 32 43 46 51
55 47 42 39 35 34 30 23 20 17 16 13 12 12 12 14 13 14 12 11 12 13 12 10 14 13 12 11 11 13 16 16 16 16 16 16 13 16 18 28 33 34 46
41 34 31 28 24 21 20 17 16 13 10 11 10 10 11 13 11 10 10 9 9 8 8 8 8 9 10 11 11 12 13 13 13 12 11 10 14 21 25 26 29 31 49
26 24 23 19 16 15 14 13 12 11 10 9 10 10 11 11 10 10 10 7 5 5 7 8 9 8 8 8 8 8 8 9 9 10 12 14 16 19 24 27 31 49 64
27 25 19 16 13 12 12 10 9 9 8 7 6 8 8 8 6 5 5 5 5 5 6 6 6 6 6 7 8 7 8 11 11 12 14 17 20 22 29 42 52 44 42
17 15 13 10 8 8 7 6 5 5 5 5 5 5 5 5 5 4 5 5 5 5 7 8 8 7 7 8 8 8 10 13 15 16 18 20 20 25 42 44 28 39 94
9 7 7 7 6 6 5 4 4 4 4 4 5 5 7 7 6 6 7 8 8 7 8 8 8 8 9 10 9 10 11 12 14 15 18 22 26 39 31 22 58 95 100
6 6 6 6 6 5 4 4 4 4 4 4 5 6 6 7 6 7 7 7 7 8 7 7 8 10 11 10 10 12 13 14 15 16 21 27 30 20 17 51 88 100 100
6 8 7 6 5 5 5 4 4 4 4 5 5 6 7 7 6 6 5 5 5 6 7 8 8 8 9 9 10 12 16 17 19 22 15 12 16 14 44 84 100 100 100
8 6 5 5 5 5 5 6 6 6 5 5 4 4 5 5 5 6 6 5 5 5 6 6 7 8 8 9 11 13 19 21 22 14 16 20 14 30 87 100 92 100 100
5 5 5 5 5 5 5 6 6 6 6 4 4 3 4 4 4 5 5 5 5 5 6 6 6 6 7 8 11 19 24 28 24 28 26 16 23 41 90 100 80 82 98
5 5 5 5 5 5 5 4 4 4 5 4 2 2 3 3 4 4 4 4 4 5 5 6 7 7 7 9 12 21 29 33 32 22 18 20 31 52 97 99 91 89 87
4 4 4 4 4 4 4 4 3 3 3 3 3 3 3 3 3 4 4 4 4 5 5 6 7 8 8 9 13 20 26 30 21 16 21 28 56 89 100 87 49 85 99
5 4 4 4 4 4 3 3 3 3 3 3 3 3 4 4 4 4 5 4 5 5 6 6 7 9 10 11 14 18 22 18 17 18 24 42 58 61 47 53 83 98 97
5 4 4 3 3 3 3 3 3 4 4 4 4 4 5 5 5 5 7 7 7 7 8 8 9 11 12 12 14 17 18 17 16 22 35 53 66 45 93 100 100 87 98
4 3 3 3 4 4 4 4 3 3 3 3 4 4 4 4 4 4 5 6 7 9 10 10 12 13 14 15 18 19 21 23 33 45 62 68 77 96 89 91 100 100 100
3 3 4 4 4 4 3 3 3 3 2 2 3 2 3 3 2 3 3 4 7 10 11 12 14 16 17 20 22 27 36 34 47 60 56 93 90 100 93 93 100 100 96
3 4 4 4 3 2 2 2 2 2 2 2 2 2 2 3 2 3 3 4 7 11 13 14 17 20 23 25 30 40 40 46 59 67 93 100 100 88 99 100 100 95 67
4 4 4 3 2 2 2 2 2 2 2 2 3 3 3 3 3 3 3 5 8 11 14 17 20 24 27 29 36 47 60 62 74 99 87 89 100 100 100 100 90 71 66
4 4 2 2 2 2 3 3 3 3 3 4 4 4 5 5 4 3 3 6 9 13 16 19 25 28 28 32 44 60 56 66 84 89 100 100 100 100 100 94 72 66 60

GFSGL_250_rhum_006.txt.gz
RH
78 76 72 68 63 63 67 67 66 64 61 65 76 84 87 92 92 69 56 51 44 43 42 30 29 26 22 25 28 26 27 29 27 31 36 33 35 38 39 44 49 48 49
78 74 74 76 70 67 67 72 80 90 88 78 78 81 65 57 51 48 42 39 29 27 29 26 25 22 22 20 20 21 20 20 23 22 24 26 32 36 35 41 45 42 46
73 75 66 65 67 80 83 92 97 88 73 61 55 52 47 41 38 34 32 27 24 24 24 21 18 18 17 16 14 16 19 19 18 17 18 22 22 26 29 33 37 38 41
57 60 67 88 98 100 95 80 64 56 50 45 37 32 30 31 27 24 23 21 20 18 15 13 13 14 15 14 14 16 19 20 20 21 20 22 23 22 21 25 35 38 40
97 100 100 89 70 56 52 48 47 43 39 34 29 27 24 21 19 16 14 12 13 14 13 11 12 12 13 14 11 14 14 13 16 18 18 17 20 23 24 26 25 29 39
65 53 52 56 49 49 44 44 38 34 32 26 22 18 17 16 15 14 12 10 11 12 14 14 11 11 10 9 10 11 12 13 13 12 11 12 15 19 18 15 20 23 24
49 49 48 50 46 44 39 37 34 31 26 21 18 14 14 14 14 14 12 11 12 11 11 9 10 9 9 8 9 9 7 7 6 7 9 14 14 14 12 15 17 21 22
43 42 43 43 39 34 32 31 27 23 19 15 14 13 12 11 9 9 9 8 7 6 6 6 8 7 7 6 5 6 6 6 7 7 8 10 12 13 14 15 18 20 23
43 44 45 45 42 33 33 28 21 15 11 10 9 8 7 8 8 6 5 5 4 4 4 5 5 6 6 5 5 6 7 8 8 7 7 7 8 10 11 10 11 11 13
56 57 44 37 32 20 18 14 12 9 6 6 7 7 8 6 5 4 4 4 4 4 5 6 7 6 6 6 6 7 9 11 11 9 7 8 10 10 10 12 13 13 16
61 50 38 23 14 11 8 6 6 6 6 6 5 5 4 4 4 4 4 4 4 5 5 6 8 7 7 7 8 9 10 11 11 9 11 11 11 13 15 15 17 19 21
62 36 16 10 8 7 6 7 7 6 4 3 4 4 4 4 4 4 4 4 4 4 5 6 6 6 6 6 7 9 9 9 11 13 14 13 14 16 18 18 18 21 23
32 13 8 7 8 8 7 6 4 4 3 3 3 3 4 4 4 4 4 4 4 4 4 5 6 6 6 6 6 8 9 10 11 13 13 14 14 15 17 18 21 24 31
12 8 8 8 8 6 5 4 4 4 3 3 3 3 4 4 4 4 4 4 4 4 4 4 5 6 6 6 6 8 9 9 10 10 12 14 15 15 16 18 23 35 45
11 9 9 8 6 5 4 4 4 4 3 2 3 3 3 4 4 3 3 3 3 3 3 3 4 5 6 6 6 7 8 9 10 11 12 17 18 19 19 30 40 37 25
10 9 8 6 4 4 4 4 5 4 4 3 2 2 3 3 3 4 3 3 3 3 3 3 4 4 5 6 6 7 7 9 10 12 18 22 24 27 28 30 17 12 29
9 7 5 4 4 4 4 4 5 6 4 2 2 2 3 3 4 4 4 3 3 3 4 4 4 5 6 7 7 7 8 9 12 18 26 23 12 9 8 11 10 27 60
7 5 4 4 4 4 4 4 4 3 3 3 3 3 4 4 4 4 4 4 4 4 4 4 5 6 7 8 8 8 8 10 18 27 29 21 18 18 18 26 27 33 63
5 4 4 4 4 4 4 4 3 3 3 4 4 3 3 3 4 4 5 5 6 6 5 6 6 6 7 8 9 9 10 14 22 32 32 30 22 18 23 45 60 87 84
4 4 4 4 4 4 4 3 3 3 4 3 2 2 2 2 3 3 4 5 6 6 7 8 8 8 8 9 10 11 12 17 26 34 32 18 16 28 68 78 89 89 90
4 4 4 4 4 4 3 3 4 4 3 2 2 2 2 2 2 2 3 4 4 5 7 9 10 9 9 10 12 12 14 18 24 23 16 21 38 48 75 90 89 95 98
4 4 4 4 3 3 3 4 3 2 2 2 2 2 2 2 2 2 3 3 4 4 7 9 11 11 11 13 14 14 18 19 19 19 24 34 57 73 86 90 93 99 93
4 5 5 4 4 4 4 3 2 2 2 3 4 4 4 3 3 3 3 3 4 5 8 11 12 13 14 15 15 16 18 20 22 31 48 60 64 86 97 94 88 77 64
5 5 5 4 4 4 2 2 2 3 4 5 5 5 6 5 4 5 4 4 4 6 10 13 14 16 17 17 18 20 23 40 49 54 75 95 97 88 83 80 68 66 74
5 5 4 5 4 2 2 2 3 4 4 4 4 5 4 5 5 6 5 4 6 9 12 14 17 20 20 20 23 30 47 64 67 86 90 92 82 84 85 74 79 80 62
5 5 5 4 3 2 2 3 4 3 3 3 3 3 3 4 6 7 5 5 8 12 14 18 21 22 23 26 32 54 64 68 76 90 95 87 85 84 83 91 79 59 41

GFSGL_250_rhum_009.txt.gz
RH
90 97 95 88 70 61 60 62 64 67 74 80 92 94 90 87 77 73 67 55 52 45 40 35 30 24 21 22 21 19 19 18 17 19 19 20 21 23 25 26 29 32 29
77 73 61 54 55 57 61 68 80 88 100 100 88 87 74 56 46 46 43 35 28 22 23 20 19 16 16 15 15 15 15 15 15 11 15 17 19 19 21 25 26 29 33
63 59 55 58 59 66 93 100 100 98 76 63 52 46 41 38 34 28 24 22 20 22 19 18 16 16 15 14 15 14 10 9 12 10 10 14 16 18 19 19 22 26 30
54 56 57 65 90 100 100 88 71 56 48 38 36 34 32 29 26 25 24 22 20 16 15 15 14 12 8 10 11 10 10 9 9 8 7 7 10 12 13 14 15 19 24
56 54 63 75 77 58 45 43 38 36 39 38 33 34 34 31 28 25 20 16 12 11 10 8 8 8 7 7 8 9 7 6 6 6 6 8 9 10 11 13 13 16 18
61 63 50 41 40 37 48 46 51 49 40 39 42 32 27 21 15 13 11 9 8 8 8 8 9 7 7 5 5 4 4 4 5 5 7 8 8 10 10 9 8 12 14
46 38 33 34 44 53 63 66 67 50 40 31 25 19 14 11 9 8 8 7 7 8 6 5 5 6 6 5 5 4 5 5 4 5 6 6 6 6 6 6 5 6 7
35 34 43 50 59 73 79 62 47 37 26 20 14 11 9 8 8 7 7 6 5 5 4 5 5 5 6 5 6 6 5 6 6 5 6 7 7 7 6 6 6 7 8
36 40 50 63 70 74 58 41 31 20 15 12 9 8 8 6 6 5 4 4 4 4 4 4 4 5 5 5 5 6 7 8 8 7 7 8 8 8 7 8 9 8 9
50 57 61 67 71 66 42 24 17 12 10 7 6 6 5 5 4 4 3 3 4 4 4 4 5 4 5 5 5 6 6 7 8 8 8 8 9 9 10 10 10 8 9
63 75 75 72 65 38 19 12 10 7 6 6 5 5 4 4 3 3 3 3 3 3 3 3 4 4 4 4 4 5 6 6 7 7 7 7 9 9 10 10 9 12 12
74 79 75 56 38 18 11 9 7 7 6 5 4 4 3 3 3 3 3 3 2 2 2 3 3 3 3 3 3 4 5 6 6 6 7 7 9 9 11 12 13 14 15
77 64 51 40 18 10 9 7 8 6 4 4 3 3 4 4 4 3 2 2 2 2 2 2 2 3 3 3 3 4 5 6 6 7 7 10 11 11 12 13 14 15 16
69 61 49 20 11 9 8 8 6 4 3 3 3 4 4 4 3 3 2 2 2 2 2 2 3 3 3 3 3 4 4 5 6 7 9 10 10 10 11 13 15 16 17
65 45 26 12 9 9 9 6 4 4 4 3 3 3 3 4 4 3 3 3 3 3 3 3 4 4 4 4 4 4 5 5 6 7 9 10 11 11 12 16 17 18 19
42 24 13 8 8 8 6 5 6 5 4 3 3 3 3 3 4 3 3 2 2 3 3 4 4 4 4 4 4 5 5 6 6 7 9 10 11 13 18 19 20 22 23
26 15 10 8 8 7 5 5 6 6 5 4 3 3 3 4 3 2 2 2 2 3 4 5 5 5 5 5 5 6 6 7 7 8 9 11 15 21 22 24 25 24 20
16 8 7 8 8 5 5 5 5 5 5 5 4 4 4 3 2 2 2 2 2 3 4 5 6 6 6 5 6 7 8 8 9 10 11 18 25 25 19 16 14 19 24
12 8 8 8 6 5 5 5 5 5 4 4 4 4 3 2 2 2 2 2 2 3 4 6 7 7 7 6 7 8 8 10 11 12 21 29 29 22 23 22 29 37 46
8 7 7 7 5 5 5 6 5 4 4 4 4 3 3 3 3 4 3 2 2 3 4 5 6 8 8 8 8 9 10 12 17 26 32 28 26 24 22 31 45 52 57
7 7 7 5 5 5 5 5 4 4 4 4 3 2 3 5 4 5 4 4 3 3 4 4 6 8 9 9 10 12 12 16 25 28 29 27 23 20 44 80 72 85 89
7 6 5 4 5 5 6 5 4 5 5 3 3 3 4 5 5 5 6 5 4 4 4 5 8 10 10 11 13 13 14 17 21 22 21 22 27 43 64 76 90 82 69
6 5 5 5 6 5 5 4 4 4 3 2 3 4 4 4 4 5 6 5 5 4 4 7 10 12 12 15 15 16 17 18 19 21 31 40 49 62 81 76 72 77 82
5 5 5 6 6 5 4 4 4 3 2 4 4 4 3 3 4 5 6 6 5 5 6 10 13 14 17 16 16 17 19 22 28 38 53 61 60 72 83 78 72 64 58
5 6 6 6 5 5 5 4 3 3 3 4 3 3 3 4 4 5 6 6 6 6 9 13 15 18 19 18 19 26 33 39 48 62 78 79 84 74 61 57 49 39 32
6 6 6 6 5 5 5 3 4 3 3 3 3 3 3 4 4 5 7 7 6 9 14 16 18 21 21 24 30 37 48 64 82 85 80 82 71 61 48 38 30 28 25

GFSGL_250_rhum_012.txt.gz
RH
95 94 96 100 100 98 75 54 51 62 63 73 77 91 90 70 49 44 41 39 38 33 33 28 26 23 24 24 24 22 20 18 10 9 8 8 7 8 10 10 12 13 17
95 100 100 94 82 62 50 56 60 68 77 75 58 43 39 37 43 42 42 42 39 34 29 27 24 19 18 21 19 16 10 9 7 6 7 8 6 7 6 7 9 10 11
87 86 86 70 57 56 59 66 73 79 57 43 38 40 42 49 46 44 39 35 30 26 21 18 14 14 11 10 8 8 8 7 7 6 6 7 8 8 7 7 7 8 9
85 71 57 62 66 68 72 77 62 39 34 37 42 42 45 45 43 35 30 24 19 14 13 10 8 7 7 7 7 6 5 5 5 4 4 5 6 8 6 5 5 6 6
60 68 70 66 67 70 63 43 34 29 33 42 52 50 44 42 36 23 18 13 11 10 8 8 7 6 6 5 4 4 3 3 4 4 4 4 6 6 6 5 4 5 5
71 65 64 65 63 40 36 33 30 39 49 57 51 54 43 31 22 15 13 10 8 7 7 6 5 4 4 3 3 3 3 3 3 3 4 5 5 5 5 5 4 4 6
66 66 68 47 37 32 31 38 49 55 60 64 59 37 31 20 17 16 9 7 6 5 4 3 3 3 3 3 3 3 3 4 3 3 4 5 5 5 5 6 6 6 7
72 57 44 35 30 36 44 49 54 59 59 59 52 39 20 16 11 8 7 5 4 3 2 2 2 3 3 3 3 4 4 4 3 3 3 4 5 6 6 6 7 8 9
49 39 30 31 37 43 42 48 60 73 78 57 28 17 15 10 8 7 4 3 3 2 3 3 2 2 2 2 2 3 4 4 3 3 4 4 4 5 5 6 8 10 11
34 37 37 36 38 40 48 62 71 71 46 20 16 12 8 7 7 4 3 3 2 3 3 2 2 2 2 2 2 2 2 3 3 3 3 4 5 5 6 6 8 8 10
50 44 35 37 40 49 53 65 66 36 19 14 11 7 7 6 4 3 3 3 2 2 2 2 2 2 2 2 2 2 2 2 3 3 3 3 4 6 6 6 7 8 10
42 41 37 40 47 61 71 68 47 18 12 10 7 7 7 5 4 3 4 3 2 2 2 2 3 3 2 3 3 3 3 3 3 3 3 3 4 5 5 6 7 10 11
44 37 43 53 61 70 66 50 26 14 9 6 6 6 5 4 4 4 4 3 2 2 2 2 2 2 2 2 3 4 4 4 3 3 3 3 4 6 6 7 10 10 12
38 45 51 63 70 71 55 30 14 10 7 6 5 5 4 4 4 5 4 3 2 2 2 1 1 1 2 3 3 4 4 4 4 4 4 5 5 6 7 9 9 9 11
46 50 60 67 68 57 42 19 11 8 6 5 4 4 4 4 4 4 3 3 2 2 2 2 2 2 2 4 5 5 5 4 4 5 6 6 6 7 9 10 10 12 15
51 59 67 70 59 39 22 13 9 8 7 6 4 4 4 4 4 3 4 2 2 2 3 2 2 2 3 5 5 6 5 6 6 6 7 7 8 9 10 10 14 18 18
62 70 74 62 44 20 14 8 7 9 8 6 5 4 4 4 4 4 3 2 2 3 4 2 2 3 4 6 7 7 6 7 8 8 9 9 10 10 11 19 23 24 24
70 72 60 36 14 11 7 6 8 7 7 7 6 5 5 4 4 3 2 3 3 3 4 3 3 3 5 7 8 7 8 9 10 10 11 12 13 17 22 24 24 23 25
72 52 30 13 10 7 6 7 6 6 6 6 5 5 4 4 3 2 2 4 4 4 5 3 3 5 6 8 9 9 10 11 12 14 15 16 21 24 23 15 19 20 22
41 21 15 11 7 6 7 7 5 6 5 5 5 4 5 4 2 3 4 4 4 5 5 4 4 5 7 10 10 11 12 13 14 19 22 25 24 24 23 24 24 23 22
14 12 9 7 6 6 6 5 5 5 5 5 5 4 4 3 4 4 4 3 4 6 5 4 5 6 11 12 12 13 14 16 18 23 26 26 25 24 22 19 18 23 27
10 8 6 6 7 6 6 5 5 5 5 4 4 4 3 4 4 4 3 3 5 6 6 5 6 12 14 13 13 12 14 16 21 23 25 25 22 19 19 20 26 31 36
8 6 6 7 6 6 5 4 4 5 4 4 4 3 4 4 3 3 3 4 6 7 6 6 12 15 14 13 12 14 15 17 19 19 19 20 23 25 31 38 44 47 48
6 7 8 7 6 5 4 4 4 4 4 4 3 5 5 3 3 3 4 5 7 7 7 12 17 16 16 15 16 16 17 19 23 28 32 33 42 50 46 46 50 52 50
7 7 6 5 5 5 4 4 4 4 3 3 4 5 3 3 3 3 4 7 8 7 12 17 17 18 17 17 17 20 25 29 39 42 47 46 48 53 54 49 42 37 32
7 6 5 5 4 4 4 4 4 3 3 4 4 3 3 3 3 4 6 8 8 10 17 18 19 19 18 20 29 43 48 49 51 54 53 52 45 37 30 25 19 16 16

GFSGL_250_rhum_015.txt.gz
RH
94 97 98 98 97 87 77 84 92 88 74 59 58 58 60 60 55 49 42 39 37 38 39 43 43 34 26 22 19 18 16 11 5 6 5 6 6 6 6 7 7 8 8
94 100 100 97 84 79 79 73 68 58 56 56 58 63 59 43 36 34 37 38 45 46 42 45 36 20 18 17 14 11 6 6 5 3 4 4 4 5 5 5 5 6 6
95 100 92 82 85 80 69 61 58 64 62 67 70 52 42 34 38 40 41 43 41 44 42 25 19 17 14 10 6 5 5 4 3 2 2 4 3 4 4 4 4 4 4
99 91 87 82 76 71 59 64 65 69 71 56 48 41 32 36 40 43 45 45 43 35 23 16 13 9 6 5 5 4 3 3 3 2 2 2 3 4 3 3 3 4 4
94 84 86 78 72 78 65 59 70 67 55 47 38 30 35 40 42 45 48 48 35 20 15 11 8 5 5 4 3 3 3 3 3 2 2 2 3 3 4 3 4 4 4
81 80 93 89 68 52 55 60 59 55 47 34 30 34 42 46 54 56 53 36 22 12 8 6 5 5 4 3 3 3 3 2 2 2 2 2 2 2 3 3 3 4 5
88 100 81 67 50 58 59 58 52 34 29 34 39 41 46 56 59 54 32 22 14 8 5 5 5 3 3 3 3 3 2 2 1 1 2 2 2 2 2 3 4 4 4
89 65 54 54 56 56 52 36 31 34 39 40 42 47 54 59 48 37 20 14 7 5 5 4 3 2 3 3 3 2 2 2 2 2 2 2 2 2 2 3 4 4 5
63 54 58 59 56 44 39 35 38 41 43 45 44 52 56 51 37 20 11 8 5 5 5 3 2 3 3 2 2 2 2 2 2 2 2 2 3 2 3 3 3 4 5
58 60 58 48 39 38 42 40 40 46 44 45 52 51 48 42 19 11 7 5 5 5 4 2 2 3 3 2 2 2 2 2 2 2 3 3 3 3 3 3 3 4 4
62 51 43 39 39 40 41 44 46 45 45 54 58 51 32 16 9 8 6 5 4 4 3 3 3 3 3 2 2 2 2 1 2 2 3 4 4 4 3 3 3 4 4
44 41 40 42 42 44 47 50 47 45 54 55 47 26 13 10 7 5 6 5 4 3 3 3 3 3 2 2 2 2 2 2 2 3 4 4 4 4 4 4 4 5 5
42 45 42 46 47 49 51 46 48 58 55 27 15 12 10 7 5 6 6 5 4 4 3 2 3 2 2 2 2 2 2 3 4 5 5 5 5 4 4 5 6 6 6
49 45 47 51 49 49 50 52 59 48 22 13 9 8 6 5 6 6 5 4 4 4 3 3 2 2 3 4 2 2 3 5 6 6 5 5 5 6 6 6 6 8 9
48 50 51 52 49 50 55 62 50 21 10 8 8 6 5 6 6 5 4 4 4 4 3 2 3 4 4 3 2 3 5 6 7 6 6 6 6 7 7 8 9 9 9
52 56 51 48 50 56 59 48 23 9 9 8 5 5 6 5 4 4 4 4 3 3 2 3 4 4 5 3 3 5 7 7 7 7 8 8 8 8 9 10 10 11 11
51 46 50 52 52 56 37 14 9 10 9 6 6 6 6 5 4 4 4 3 3 3 4 4 4 4 4 3 4 6 8 8 8 9 10 10 10 10 10 11 12 13 17
51 50 52 53 45 19 9 8 9 8 7 7 8 7 6 5 5 4 4 4 3 3 4 3 4 5 4 4 6 8 9 9 9 10 11 11 12 13 14 17 21 23 24
53 53 48 32 13 8 8 8 6 6 7 8 7 6 5 5 5 4 4 3 4 3 3 4 5 5 4 5 8 10 10 10 11 12 12 14 17 20 21 21 23 22 23
46 37 23 10 8 8 8 6 6 7 7 6 5 5 6 6 5 4 4 4 3 3 3 5 6 5 5 8 11 11 11 12 13 14 16 19 22 20 23 20 19 22 24
27 12 8 9 9 7 6 6 6 6 6 5 5 5 5 5 5 4 4 3 3 3 5 6 6 5 8 11 12 12 12 13 16 19 22 24 24 24 25 24 22 21 24
8 8 10 9 7 6 6 6 6 5 5 5 5 4 4 4 4 4 3 3 3 5 6 6 6 9 12 13 13 11 13 17 20 24 25 24 22 20 20 22 27 32 36
10 10 8 7 6 6 6 5 4 4 5 5 4 4 4 4 4 3 3 4 5 6 7 7 10 13 14 14 13 13 14 16 19 20 22 24 26 29 34 35 35 34 32
9 8 7 6 6 6 5 4 4 5 4 4 4 4 4 4 3 3 4 4 6 7 8 9 14 15 16 15 15 16 19 21 24 29 33 34 34 34 32 32 32 29 26
7 7 6 6 6 4 4 5 5 4 4 3 4 4 3 3 3 4 4 6 7 8 10 16 17 18 18 20 22 27 34 33 37 37 34 31 27 22 19 17 18 19 19
7 7 6 5 4 4 5 5 4 4 3 3 3 3 3 4 4 4 6 8 8 12 17 18 19 20 24 30 39 42 41 41 37 31 27 23 16 14 12 12 13 12 12

GFSGL_250_rhum_021.txt.gz
RH
26 22 20 20 20 20 20 22 26 30 35 38 45 64 80 99 100 94 80 77 68 58 55 56 43 41 42 40 37 35 32 29 20 19 21 23 13 6 6 4 3 3 3
28 24 21 21 20 20 23 24 31 36 37 49 75 96 100 94 91 88 70 62 56 52 43 40 41 42 42 36 32 28 23 20 20 16 12 6 5 4 4 4 3 2 2
29 24 22 20 21 23 27 33 37 43 54 79 95 96 78 86 75 60 60 56 40 38 40 39 40 38 31 26 21 18 19 19 14 6 4 4 4 4 2 2 2 2 2
27 24 21 22 24 29 34 42 58 64 73 90 84 81 77 56 60 62 40 35 38 39 39 42 34 30 26 20 21 20 16 8 6 4 3 3 3 2 2 2 2 2 2
26 23 23 25 29 33 48 66 61 81 82 82 74 63 59 63 43 36 35 36 37 43 41 36 32 26 24 20 14 9 6 5 4 4 3 2 2 2 2 2 2 2 2
23 23 27 29 38 47 73 72 88 89 77 63 57 64 58 42 33 32 32 40 43 41 37 30 27 23 19 10 6 6 5 4 4 2 2 2 3 2 2 2 1 1 2
25 28 35 53 67 86 82 92 93 77 59 59 60 55 37 32 31 36 42 44 40 34 30 25 20 14 6 5 6 5 6 5 2 2 2 3 3 2 1 1 1 2 1
34 49 69 81 81 84 85 78 59 56 59 57 49 36 35 37 42 48 42 38 34 31 22 14 7 5 5 5 5 6 6 4 3 2 2 2 2 2 2 2 2 1 1
60 71 71 82 90 66 60 59 61 58 54 49 40 38 44 49 48 42 35 35 32 22 10 6 5 4 4 5 5 4 4 4 3 3 2 2 3 3 3 2 2 2 3
67 78 82 66 60 63 62 63 59 55 48 43 48 50 53 55 44 36 34 26 14 8 7 6 4 4 5 4 4 4 4 4 3 3 2 3 3 3 2 3 4 4 4
67 77 66 61 60 65 63 56 52 50 48 49 54 58 51 43 38 31 18 9 7 6 6 5 5 5 4 4 3 3 3 3 3 3 3 3 3 2 4 4 5 5 4
78 65 61 66 63 53 53 52 51 49 56 59 59 52 42 35 24 13 8 7 6 5 5 5 5 4 4 4 3 3 3 3 3 3 4 4 3 4 5 5 5 5 5
61 67 63 57 54 55 56 54 57 60 61 56 48 40 32 19 10 7 7 6 5 4 5 4 4 4 4 4 3 3 3 3 3 4 4 4 5 5 5 6 6 6 6
64 53 54 58 61 59 60 63 66 59 51 44 38 27 15 7 7 6 6 6 6 5 4 4 4 4 4 4 4 3 3 4 5 4 5 6 6 6 7 7 7 7 7
54 56 61 65 67 69 69 66 58 48 40 34 19 10 7 7 6 6 6 6 5 4 4 4 4 4 4 4 3 3 4 5 5 6 7 8 8 8 9 9 9 9 9
62 69 70 70 71 71 65 57 46 38 30 16 8 8 7 6 6 6 6 5 4 4 4 4 4 4 4 3 3 5 6 6 7 8 8 8 9 11 11 11 11 11 11
73 71 71 74 69 59 49 42 40 29 13 9 8 7 6 6 6 5 4 4 4 4 4 4 4 4 3 3 5 6 6 8 9 10 10 11 12 12 13 13 13 13 12
75 77 75 62 54 48 42 33 15 11 9 9 8 7 6 7 5 4 4 4 4 4 4 4 4 3 3 5 6 7 10 10 11 12 13 14 17 18 19 18 16 18 20
78 65 53 52 48 38 21 13 13 9 8 7 7 7 7 5 5 5 5 4 4 3 4 3 3 4 6 7 9 10 11 12 13 15 17 18 20 21 22 21 19 19 21
56 53 52 40 33 16 14 13 9 7 7 7 7 6 6 5 5 5 4 4 3 3 4 4 4 7 8 10 10 11 12 13 17 19 20 19 19 20 21 22 23 26 27
54 44 38 28 17 15 14 9 7 7 7 7 6 5 5 5 5 4 4 3 3 4 4 5 7 8 11 11 11 12 13 14 14 14 16 17 17 18 19 20 21 19 19
39 33 26 17 14 11 9 8 8 7 7 6 5 5 5 5 5 4 3 4 4 5 6 8 10 12 12 12 12 13 14 15 16 17 17 17 18 19 20 20 20 20 19
35 21 16 15 11 9 8 8 7 7 6 5 5 5 5 4 4 3 4 5 6 6 9 11 12 14 14 15 17 20 23 24 23 23 22 23 24 25 27 28 28 29 30
19 15 13 11 10 9 8 7 6 6 5 5 5 5 4 3 3 4 6 6 7 9 11 12 15 16 18 22 25 26 26 25 21 18 18 20 21 20 19 20 22 25 28
15 13 11 10 8 8 7 6 6 5 5 5 5 4 3 4 4 6 7 7 9 12 14 16 19 23 26 33 32 30 24 17 15 14 11 10 11 11 11 11 10 11 13
12 11 9 8 7 7 6 6 5 5 5 4 4 3 4 4 6 8 7 9 12 15 17 20 25 29 35 41 41 36 32 24 17 14 10 9 9 10 11 12 11 10 10

GFSGL_250_rhum_024.txt.gz
RH
29 29 28 26 26 27 27 26 26 25 23 21 22 22 26 42 57 72 84 90 80 80 93 75 61 58 53 44 32 27 28 29 26 24 22 23 24 20 12 6 5 4 4
29 28 27 27 28 28 27 26 25 23 22 23 26 29 41 69 80 80 90 87 83 75 60 59 57 48 32 26 25 26 26 24 20 17 18 10 6 5 5 4 3 3 3
29 29 29 28 26 25 25 25 24 24 24 27 36 54 75 80 86 96 90 75 61 57 59 53 40 30 26 26 26 24 21 17 14 7 6 5 5 4 3 4 4 4 3
29 30 30 27 25 25 25 25 23 26 30 41 62 84 90 86 79 72 59 59 63 57 46 35 31 27 24 22 20 15 11 7 7 6 5 4 4 4 4 3 3 3 2
32 32 30 27 25 25 26 25 28 31 47 71 79 83 78 65 57 59 62 61 47 40 39 33 28 23 20 17 12 7 6 5 5 4 4 4 4 4 3 2 2 2 2
33 33 28 24 25 26 26 29 44 56 62 75 72 62 57 60 61 59 42 40 44 36 31 25 22 18 15 10 6 6 6 5 4 3 3 3 3 2 2 2 2 2 2
34 27 25 27 26 29 37 48 54 67 73 66 63 58 59 59 44 41 44 42 36 29 23 24 19 12 7 6 5 5 5 4 3 3 3 2 2 2 2 2 2 2 2
25 26 28 28 35 47 52 54 62 58 62 66 62 58 47 40 43 44 40 35 29 28 25 16 9 6 6 5 4 5 4 4 4 3 2 2 2 2 2 2 2 2 2
27 30 38 47 57 53 55 60 65 70 62 63 50 41 42 47 43 39 36 34 29 24 15 8 7 6 5 4 4 4 4 3 3 3 2 2 2 2 2 2 2 2 2
43 48 57 53 49 51 58 58 57 60 54 45 42 45 47 43 47 42 31 21 18 10 8 8 6 5 5 4 4 3 3 3 3 3 3 3 2 2 2 3 3 3 4
57 54 50 52 54 56 56 52 58 48 46 47 48 46 49 48 44 35 24 14 7 7 7 6 5 5 4 4 3 3 3 3 3 3 3 2 3 3 3 3 4 5 4
46 54 59 53 50 48 51 49 45 47 50 51 52 55 49 41 33 21 10 8 7 5 4 4 4 4 4 4 4 3 3 3 3 3 3 3 3 3 4 5 5 6 6
59 53 52 53 54 53 46 49 52 52 57 61 52 45 40 31 18 9 7 7 5 4 4 4 3 4 4 3 3 3 3 3 2 3 4 4 4 6 6 6 6 7 7
46 51 55 58 50 50 53 56 58 64 60 50 44 38 25 15 8 7 6 5 4 5 4 4 4 4 4 3 3 3 3 3 4 4 5 6 7 8 8 8 8 8 8
56 56 53 52 54 59 66 66 66 58 48 41 30 18 9 7 7 6 5 4 4 4 4 4 4 4 3 3 3 3 3 4 5 6 7 8 9 9 10 10 10 9 9
51 50 56 57 65 70 71 67 57 49 44 31 16 8 7 7 5 5 5 4 4 4 4 4 4 3 3 3 3 3 4 5 7 9 10 11 11 11 12 12 12 11 10
57 62 70 71 73 64 57 53 54 49 30 14 9 7 6 6 5 5 5 4 4 4 4 3 3 3 3 3 4 5 6 8 10 12 12 12 13 14 15 16 14 13 15
76 79 75 66 62 56 54 49 36 18 11 9 8 7 6 5 5 5 5 4 4 4 3 3 3 4 3 5 6 7 9 11 12 12 13 14 17 19 18 19 16 18 23
79 69 63 58 56 54 44 28 17 11 8 7 7 7 6 6 5 4 4 4 4 3 3 4 4 4 5 6 8 10 12 12 12 14 16 18 20 21 21 21 21 22 20
67 60 59 59 51 36 24 18 10 8 8 7 6 6 7 6 5 4 4 4 3 3 4 5 5 6 7 9 11 12 12 13 13 14 14 16 18 20 22 24 23 23 23
60 61 56 44 34 25 18 10 9 8 8 7 6 6 6 5 5 4 4 3 3 5 5 6 6 9 10 12 13 13 14 14 16 17 17 17 17 17 17 17 18 20 20
62 52 43 33 27 16 11 9 8 8 6 6 7 6 5 5 4 4 3 4 5 6 6 7 10 11 13 15 15 15 17 18 19 19 19 20 20 20 21 21 23 24 21
51 38 31 28 15 12 10 8 8 7 7 7 6 5 5 5 4 4 4 6 7 6 8 10 12 16 17 17 16 18 20 20 20 18 14 12 14 18 19 19 20 20 23
34 34 29 14 12 11 8 8 6 6 7 6 5 5 5 4 4 4 6 7 7 8 11 13 17 19 18 19 19 18 17 18 20 16 12 9 8 10 15 16 14 14 16
33 25 16 13 12 9 8 6 6 7 6 5 5 5 5 4 5 6 8 8 9 12 14 18 20 20 22 22 21 23 22 20 22 17 12 10 10 10 10 10 10 11 12
24 15 13 12 9 8 6 6 7 6 5 5 5 5 5 5 6 8 8 9 12 15 20 23 22 26 28 25 27 28 24 21 21 18 13 9 9 9 10 11 11 11 11

GFSGL_250_rhum_027.txt.gz
RH
37 35 32 33 33 31 28 25 25 26 27 25 21 18 20 21 21 24 30 34 44 60 66 69 65 50 49 46 41 33 30 30 28 33 32 30 28 24 21 16 10 6 5
40 38 38 35 34 31 27 25 28 29 27 24 19 21 24 25 31 34 39 53 62 66 67 59 57 51 46 34 32 33 31 31 24 21 22 19 13 8 6 5 4 4 3
49 41 38 36 34 27 26 30 30 30 26 21 23 26 28 31 36 45 53 59 63 57 56 52 44 34 35 34 31 28 26 21 18 12 8 5 5 5 4 4 3 3 2
42 40 38 35 31 28 32 33 31 25 22 24 27 30 33 41 50 53 56 54 56 55 46 34 36 36 33 27 22 18 15 12 7 5 4 4 4 4 4 3 3 3 2
44 38 35 31 31 33 36 30 24 23 26 30 35 42 50 52 49 47 49 50 50 36 36 38 36 29 21 19 15 13 7 5 5 4 3 4 4 4 3 3 2 2 2
37 34 30 31 37 38 31 24 24 28 33 39 45 50 52 48 48 47 45 41 36 38 36 30 24 20 18 15 8 6 5 4 3 3 3 4 3 3 3 2 2 2 2
30 31 36 40 38 28 24 26 34 44 47 50 53 48 47 44 44 44 38 42 39 33 26 22 21 16 9 6 6 5 4 4 3 3 3 3 3 3 3 2 2 2 2
36 40 40 31 24 24 30 41 50 50 50 52 48 46 48 46 40 43 42 37 31 26 20 16 13 7 6 5 4 4 4 4 3 3 2 3 3 3 2 2 2 2 2
42 32 25 26 30 43 52 51 50 52 47 46 49 51 45 44 43 42 35 27 23 16 16 10 6 6 5 4 4 4 3 3 3 3 3 3 3 3 3 2 2 2 3
25 26 30 38 55 52 54 55 45 44 45 53 51 44 45 47 43 33 23 17 14 12 8 6 6 5 4 4 4 3 3 3 3 3 3 3 3 2 2 3 3 3 3
29 42 56 56 48 50 45 45 47 56 56 45 48 50 49 44 34 25 18 14 8 6 7 6 5 4 4 4 3 3 3 3 3 2 2 2 2 3 3 4 4 5 5
50 55 56 52 53 46 50 60 60 46 47 50 53 55 48 40 32 22 15 9 7 6 5 4 4 4 4 3 3 3 3 2 2 2 2 3 4 4 4 5 6 6 6
62 49 51 45 45 63 65 49 46 49 54 56 53 49 45 35 22 13 10 8 6 5 4 4 4 4 4 3 3 2 2 2 3 3 4 4 4 5 6 7 7 7 8
54 48 46 59 69 55 47 48 53 58 56 55 52 47 34 19 11 8 8 7 6 5 5 4 4 4 4 3 2 2 3 3 4 5 5 6 6 8 8 8 8 8 8
44 55 70 60 50 49 55 60 61 59 57 54 47 29 14 9 8 8 6 5 5 5 4 4 4 4 3 3 3 3 4 5 5 6 8 8 9 10 11 11 11 10 9
66 63 51 48 52 59 64 66 63 63 64 53 27 13 10 8 7 6 5 5 5 4 4 4 3 3 3 4 4 5 5 6 8 10 11 11 11 12 13 13 13 10 10
51 49 52 57 61 66 67 68 74 73 58 31 16 11 10 8 6 5 6 5 4 4 4 3 3 3 4 4 5 6 8 9 11 11 12 13 15 16 17 17 16 13 15
52 58 63 64 68 67 66 72 70 57 34 24 14 11 9 6 5 6 6 4 4 4 3 3 4 4 4 5 7 9 11 12 12 12 13 14 17 19 19 21 19 18 20
64 66 66 70 68 70 75 65 47 26 19 14 11 10 7 6 6 6 5 4 4 4 3 4 5 5 6 8 10 12 13 13 13 13 14 14 15 16 19 20 23 22 23
67 71 75 72 77 74 59 43 26 21 14 11 10 8 7 7 6 5 4 4 4 4 4 6 5 7 9 11 13 14 16 18 20 21 21 20 20 19 18 18 20 24 24
75 77 75 74 71 58 38 27 21 14 11 10 8 6 7 7 5 5 4 4 4 5 6 6 9 10 12 14 17 18 21 24 25 26 26 23 19 20 23 22 20 19 20
80 79 74 72 50 34 28 22 15 11 10 8 6 6 7 6 5 5 4 4 6 7 6 9 11 14 16 18 19 20 23 25 26 26 20 16 13 12 14 20 24 26 24
76 76 73 44 31 28 22 16 11 10 8 6 7 7 6 6 5 5 5 6 7 7 10 12 16 18 18 18 19 18 19 18 19 18 20 13 10 9 9 14 20 22 26
80 73 39 29 26 22 17 12 10 7 6 7 7 6 6 5 5 5 6 8 7 10 13 17 19 20 19 18 19 19 16 15 16 18 15 10 9 8 8 9 13 16 16
66 34 28 24 20 16 12 10 7 6 7 8 6 6 5 5 5 6 8 8 10 14 18 22 21 18 22 21 18 16 15 15 16 14 12 9 9 9 9 9 9 10 10
30 26 23 20 14 11 10 7 6 7 8 7 6 5 5 5 6 8 7 10 14 19 22 23 27 26 28 24 18 16 16 15 14 12 10 9 8 8 8 8 8 9 10

GFSGL_250_rhum_030.txt.gz
RH
41 42 42 42 39 35 31 30 34 35 34 28 22 21 25 28 24 20 19 22 23 28 36 38 40 36 36 37 37 32 26 23 22 32 36 36 32 24 19 14 11 8 6
48 49 50 46 40 36 34 37 38 37 30 25 22 28 31 26 21 22 25 33 40 38 38 38 37 39 40 32 28 29 31 30 23 18 22 19 15 12 8 5 5 5 4
57 57 50 44 39 36 39 41 38 30 26 24 32 32 25 22 24 28 37 40 38 39 37 40 41 34 32 33 33 30 27 23 18 14 9 7 6 6 5 5 4 3 3
58 53 48 44 41 43 40 35 30 28 28 33 32 24 23 26 33 40 42 40 37 39 42 38 34 34 34 30 26 22 17 13 8 5 4 4 4 4 3 3 3 3 2
55 52 47 45 42 39 34 32 29 30 34 29 24 23 32 40 43 41 35 38 43 40 42 39 39 35 26 21 18 13 7 5 4 4 3 3 3 3 3 3 3 3 2
52 49 46 42 39 35 32 28 32 34 26 23 25 42 44 41 34 36 43 41 44 42 45 42 32 26 20 16 9 6 5 4 2 2 2 3 3 3 3 3 3 3 2
49 46 42 38 36 31 29 34 32 25 23 37 44 42 38 35 45 46 43 45 51 50 35 30 25 17 10 6 6 5 4 3 2 2 3 2 3 2 2 2 2 2 2
47 40 37 34 30 33 35 30 25 27 43 42 38 35 42 51 43 40 50 59 46 39 33 24 12 7 6 5 4 4 3 3 3 3 3 3 3 2 2 2 2 2 2
40 36 32 30 39 33 27 24 35 44 39 35 35 50 47 42 45 58 54 48 42 34 23 11 6 6 5 4 4 4 4 3 3 3 3 3 2 2 2 2 2 2 2
33 32 40 40 30 25 26 42 48 44 35 46 54 45 44 53 59 51 46 40 33 19 12 8 7 6 5 4 4 4 3 3 3 3 2 2 2 2 2 3 3 3 3
45 45 33 26 24 36 44 52 40 37 54 55 46 46 58 55 52 47 41 29 14 10 9 7 6 5 4 4 4 4 3 3 2 2 2 2 2 3 4 4 5 5 5
34 27 25 30 39 54 46 38 41 56 50 46 53 66 61 60 52 46 33 15 10 9 8 6 5 5 5 4 4 3 3 2 3 3 3 4 4 5 5 6 6 7 7
25 31 36 50 52 40 40 52 58 48 47 61 65 62 61 55 51 35 16 12 10 8 6 5 5 5 4 4 3 3 3 4 4 4 5 5 6 7 7 8 8 8 8
37 44 54 43 38 41 59 53 48 53 64 59 58 59 62 57 31 14 12 10 9 7 5 6 5 5 4 3 3 4 4 4 6 6 7 8 8 9 9 10 10 11 11
50 43 37 38 58 56 47 50 61 62 57 59 58 62 54 27 14 11 10 9 7 6 6 5 5 4 4 4 4 5 5 6 8 8 8 9 10 12 12 13 13 13 10
36 41 56 63 51 48 60 64 60 59 60 57 61 48 21 13 11 10 9 6 6 6 5 5 4 4 4 5 5 6 8 9 10 10 11 11 12 13 16 15 16 17 13
65 64 56 50 58 64 62 60 66 67 63 68 53 21 16 12 9 9 7 6 6 6 5 5 4 4 5 6 6 8 10 12 13 13 13 13 13 13 13 16 18 18 18
55 55 58 65 66 61 62 68 65 64 77 65 27 17 14 10 8 6 6 6 6 6 5 4 5 6 6 7 10 12 13 15 17 19 20 21 20 18 15 14 16 18 20
62 67 66 62 58 64 71 64 65 73 59 28 21 15 11 9 6 6 7 6 6 5 5 5 6 6 8 10 14 15 16 19 24 27 28 24 22 22 23 19 15 16 18
69 64 59 62 71 72 64 65 69 48 27 21 14 10 10 7 6 7 7 6 5 5 5 6 7 8 11 15 16 18 21 23 25 26 23 21 22 21 19 19 19 17 16
62 60 66 71 70 64 64 60 47 27 21 14 10 9 6 6 8 7 6 5 5 6 7 7 8 12 15 18 19 20 23 26 23 22 18 17 17 17 17 15 16 20 20
63 70 71 68 68 64 58 35 23 20 13 10 9 6 6 7 7 6 6 5 6 8 8 8 13 17 17 18 20 22 20 16 14 14 16 16 15 12 11 11 13 17 21
71 71 70 68 59 52 33 24 18 12 9 8 6 6 8 8 7 6 6 6 8 9 10 14 17 19 18 18 18 17 15 14 14 16 15 14 12 10 9 9 10 16 20
73 71 66 53 43 24 20 17 12 9 8 6 6 8 8 7 6 6 6 8 9 11 15 19 21 22 19 16 15 13 13 14 14 14 11 10 10 8 9 9 9 15 19
69 62 49 38 20 20 17 13 9 7 5 6 8 7 7 6 6 6 9 10 11 16 20 23 26 24 19 16 14 12 14 12 12 11 10 9 9 8 8 8 10 10 12
58 48 39 23 20 16 12 9 7 5 6 8 7 7 6 5 6 8 10 10 15 20 22 24 27 24 23 17 15 13 15 14 11 10 9 8 9 8 8 7 7 8 10

GFSGL_250_rhum_033.txt.gz
RH
41 35 40 38 39 41 40 42 48 43 42 40 38 34 32 33 32 27 23 25 24 20 18 20 28 30 31 37 36 33 29 25 19 22 22 25 22 17 12 9 7 5 4
39 38 40 46 49 48 52 49 45 45 46 41 38 34 35 34 29 25 26 26 20 20 27 30 33 39 38 34 32 32 31 26 18 17 18 12 9 6 5 4 4 3 3
41 43 52 57 56 56 56 52 50 50 45 40 38 37 33 30 27 28 26 21 24 29 28 36 40 33 34 40 42 31 24 23 20 11 6 5 5 4 4 3 2 2 2
48 57 62 60 59 60 58 55 53 48 42 41 36 32 30 28 29 26 21 24 31 29 40 36 33 42 46 36 28 26 21 14 7 5 5 4 3 3 2 2 3 2 2
61 62 60 60 59 57 54 50 49 46 44 38 33 30 29 32 25 22 31 34 34 43 34 40 53 46 35 30 24 17 10 6 5 4 4 3 3 3 3 2 2 2 2
61 60 60 58 57 56 54 51 46 44 38 36 31 33 32 23 26 34 32 39 43 35 45 57 47 40 32 25 17 9 6 4 3 3 3 3 3 3 2 2 2 2 2
58 58 58 60 61 60 56 50 44 41 36 31 37 29 24 30 35 31 42 38 39 53 54 47 42 31 23 13 8 7 6 4 3 3 4 3 3 3 2 2 2 2 2
59 63 66 70 71 66 52 43 39 33 36 37 26 25 31 33 35 44 36 44 61 59 52 42 31 20 10 8 7 6 5 4 4 4 3 3 3 2 2 2 2 2 2
77 77 77 69 52 45 41 34 34 40 30 25 27 34 30 38 41 36 49 62 63 57 46 32 16 9 9 8 6 5 5 4 4 3 3 2 2 3 3 2 2 3 2
77 70 57 52 46 37 36 42 33 26 26 31 37 32 42 37 40 54 60 59 55 46 31 15 9 9 8 6 5 5 5 4 3 3 2 3 3 3 3 4 4 4 4
70 61 51 44 44 43 34 27 26 34 38 33 37 43 39 46 53 54 56 53 41 25 14 9 9 8 6 5 5 5 4 3 3 3 3 3 4 4 5 6 7 6 5
54 49 48 45 35 29 27 35 38 35 34 44 45 48 56 55 52 56 55 46 27 12 9 9 8 6 6 6 5 4 4 3 4 4 4 4 5 7 8 9 8 9 9
54 45 37 31 28 36 42 34 35 47 45 44 57 61 53 55 59 56 57 32 13 11 10 8 6 6 6 5 4 4 4 4 5 4 5 7 8 9 9 10 12 12 12
37 33 32 38 43 36 35 53 51 46 56 63 57 50 53 58 60 58 30 13 10 10 9 6 6 6 5 4 4 4 5 6 6 7 9 10 10 10 11 12 14 13 14
40 48 49 40 36 54 58 46 52 61 62 53 47 50 57 59 51 26 13 10 10 8 6 6 6 5 4 4 4 6 7 8 9 11 12 12 12 12 11 12 13 17 16
54 41 33 47 68 54 50 56 60 58 48 44 46 52 56 45 18 12 11 9 8 6 6 7 6 5 4 5 6 7 9 10 12 13 14 15 14 14 15 15 14 15 18
35 44 68 67 53 53 64 67 63 50 44 49 55 59 48 16 11 10 10 8 6 7 7 6 5 4 5 7 7 9 11 13 14 15 16 18 19 20 16 16 17 17 16
64 73 65 55 58 64 65 59 47 44 54 62 62 50 20 12 10 9 7 6 6 7 6 5 5 6 7 8 9 13 15 16 16 17 18 18 19 17 19 20 15 20 18
73 63 58 62 66 65 62 48 44 51 54 58 46 19 12 10 8 6 5 6 7 6 6 5 6 7 7 10 15 17 18 16 15 14 16 15 15 18 18 17 18 16 21
65 61 64 67 67 60 48 46 50 54 53 38 16 11 10 9 6 5 6 7 6 6 5 6 7 7 10 14 16 18 18 14 14 14 12 11 11 12 16 19 18 15 17
68 71 70 65 55 49 47 50 52 48 36 18 12 10 8 6 5 6 7 7 6 6 6 8 7 10 14 17 22 20 14 11 9 10 11 11 12 13 15 15 13 12 14
74 66 58 54 50 47 46 51 48 33 18 12 10 8 5 5 6 7 7 6 6 6 8 8 9 12 13 14 14 12 10 9 10 10 10 11 11 10 10 10 9 9 11
60 58 57 50 47 44 53 48 28 18 13 10 8 5 5 6 7 7 6 6 7 9 8 9 12 14 14 13 11 11 10 11 10 10 9 9 9 8 8 8 8 7 10
61 61 57 50 42 51 46 28 20 13 10 8 6 5 6 7 7 6 6 7 9 9 10 13 14 15 12 12 12 12 11 12 11 9 8 8 8 8 8 8 8 7 11
64 59 47 40 50 38 28 21 14 10 7 6 5 6 7 7 6 6 7 10 10 12 14 16 16 14 14 14 13 11 12 11 10 9 8 7 7 7 7 7 7 8 9
55 46 41 46 32 27 21 14 10 7 5 5 7 7 6 6 6 7 10 10 12 16 19 18 16 16 16 16 13 14 14 12 11 8 8 7 7 6 6 7 7 7 9

GFSGL_250_rhum_036.txt.gz
RH
56 81 85 95 78 63 54 43 42 40 39 45 49 50 51 51 48 47 46 40 36 31 27 26 26 27 20 22 27 32 36 27 23 25 22 23 22 20 14 7 5 3 3
64 84 90 90 70 62 52 44 41 41 51 57 57 56 55 52 48 46 41 36 33 30 28 29 27 20 26 30 37 34 27 26 19 14 20 22 20 10 6 5 4 3 2
68 89 100 77 62 54 47 47 46 50 61 60 57 58 56 53 49 42 37 33 32 29 32 24 21 28 34 36 30 31 29 23 18 16 19 12 8 6 5 4 3 2 2
81 100 97 72 58 49 47 48 52 62 62 59 59 58 57 53 45 38 33 32 30 32 22 24 29 34 31 35 37 30 22 18 19 14 8 7 6 5 4 3 3 3 2
100 100 89 68 58 52 52 55 63 63 60 61 60 63 61 48 38 36 31 33 27 23 28 29 34 33 41 38 29 22 18 18 10 8 7 6 4 4 4 3 3 3 2
100 96 80 65 58 59 61 64 62 61 61 64 69 64 46 42 35 32 32 25 26 28 32 33 38 43 42 35 26 21 18 8 7 6 5 4 4 4 3 3 3 2 2
100 96 86 77 73 71 67 64 62 60 72 73 60 50 43 35 35 27 25 29 28 33 34 43 45 44 36 24 22 17 10 6 6 5 5 4 4 4 3 2 2 3 3
100 98 91 86 78 72 65 61 69 76 72 59 51 42 39 31 26 28 28 33 32 40 44 45 45 40 28 19 13 10 8 7 5 5 5 4 4 3 3 3 3 2 2
100 94 89 83 78 76 78 80 73 66 58 49 46 36 28 25 29 33 35 35 44 46 49 51 42 28 17 11 9 7 6 5 5 5 4 4 3 4 4 4 3 3 2
100 97 93 90 88 81 71 70 67 53 52 45 32 25 28 30 39 35 38 44 46 50 50 40 25 14 11 9 7 6 5 6 5 4 3 4 4 5 5 6 7 6 5
100 99 93 83 72 72 74 59 55 55 34 28 30 30 37 41 36 42 44 45 45 46 39 23 14 10 9 7 6 5 6 5 4 4 4 4 4 5 6 8 8 9 9
93 81 78 79 72 62 61 54 37 31 31 33 33 49 40 36 42 45 46 45 46 39 24 14 9 9 7 5 6 6 5 4 4 4 4 4 6 8 9 10 11 11 11
81 77 70 65 70 56 38 34 35 38 34 38 54 39 42 48 51 49 46 51 44 27 16 10 8 7 5 6 6 5 4 4 5 5 5 7 8 10 10 12 13 12 12
71 74 79 54 41 38 40 42 34 37 57 51 41 44 51 52 50 47 53 47 30 18 11 9 6 5 6 6 5 4 5 6 5 6 7 9 11 12 13 14 14 15 12
79 54 44 44 48 46 38 35 51 59 48 44 46 53 53 47 45 48 45 25 12 10 8 6 5 6 6 6 5 6 6 6 7 10 12 12 12 13 15 15 16 20 18
44 54 58 51 44 36 40 61 57 48 42 47 51 50 46 42 42 44 22 11 9 8 5 5 6 6 6 5 5 6 6 9 12 13 13 13 13 12 14 15 15 21 22
62 57 49 40 39 53 65 62 52 46 47 50 49 47 41 45 41 19 11 10 7 5 5 7 6 6 5 6 6 7 10 12 13 14 13 11 11 13 15 15 16 20 27
51 43 40 46 66 72 60 48 52 57 56 54 50 43 51 43 19 11 9 7 5 5 7 7 6 5 6 6 8 14 15 15 15 14 10 10 10 10 12 14 13 16 25
44 55 61 73 71 54 53 58 54 49 48 47 43 50 37 17 11 9 7 5 6 7 7 6 5 6 6 8 14 16 18 15 12 8 7 7 9 11 13 15 17 16 22
67 79 76 62 56 59 56 49 48 48 45 42 47 32 15 11 10 7 5 5 7 7 6 5 6 6 9 13 16 16 13 10 9 8 8 8 8 10 12 12 17 15 17
82 72 68 64 62 54 50 52 49 43 40 46 28 13 9 9 6 5 6 8 7 6 5 7 6 9 12 14 14 11 10 8 7 8 8 8 8 8 9 10 10 10 12
76 74 68 60 54 53 53 47 41 39 40 24 13 10 7 6 5 6 8 7 6 5 7 6 9 14 15 13 11 10 8 8 9 8 8 7 7 7 7 7 7 8 10
79 68 61 57 55 52 46 41 41 35 21 12 10 8 6 5 6 8 7 6 6 8 7 9 16 18 14 11 10 9 9 10 9 9 8 7 6 6 7 7 7 8 9
68 67 60 58 53 46 41 41 31 21 12 9 7 5 5 6 8 7 6 6 8 7 9 16 19 15 12 11 10 9 10 11 11 9 7 6 6 6 6 7 7 8 9
72 65 58 53 47 42 37 31 22 13 8 7 5 4 6 8 7 6 6 9 8 9 16 22 16 13 12 12 10 10 11 11 10 8 7 6 6 6 6 6 6 8 11
65 59 54 48 42 32 27 23 13 8 6 5 5 6 8 7 6 6 9 8 10 17 21 20 13 13 12 13 12 13 14 12 10 7 6 6 6 5 5 5 6 7 9

GFSGL_250_rhum_039.txt.gz
RH
58 52 53 54 53 57 79 94 100 100 93 77 66 61 53 49 46 47 54 59 57 57 57 55 46 33 30 29 26 24 19 17 21 33 34 33 23 18 20 19 11 7 5
64 61 63 60 59 62 84 100 100 100 96 80 70 61 51 51 49 50 59 60 58 58 58 45 35 35 29 28 23 18 23 28 33 30 32 23 20 28 22 12 6 5 4
62 69 66 60 59 73 86 94 100 100 86 71 62 51 50 51 54 60 63 59 59 59 49 42 37 31 28 21 21 28 35 37 31 22 19 25 26 16 8 6 6 4 4
74 83 70 64 66 79 84 97 100 99 82 66 59 54 56 60 64 65 61 60 61 52 44 36 32 24 21 24 32 34 38 34 24 19 20 21 11 8 6 5 4 4 4
77 79 74 73 77 88 92 98 100 95 79 66 61 62 66 70 69 65 62 64 53 44 39 31 23 22 28 34 36 38 30 24 20 20 17 8 6 6 5 4 4 4 3
88 89 80 83 98 95 95 92 91 89 84 82 81 79 80 73 68 68 58 51 42 38 30 24 24 34 33 42 39 33 27 19 18 11 7 6 5 4 4 4 4 3 3
97 87 88 100 100 95 91 96 96 100 97 92 84 80 77 72 63 55 49 41 32 29 26 27 37 37 44 40 36 29 23 19 10 7 6 5 5 5 5 4 3 3 3
99 100 100 100 99 98 99 99 100 98 87 83 80 73 70 60 52 45 38 30 29 26 35 36 42 44 39 34 26 23 21 10 7 6 5 5 5 5 4 4 4 4 3
100 100 99 100 100 100 100 98 91 90 84 78 79 68 57 50 41 35 32 31 29 43 40 47 43 42 38 26 22 19 9 7 5 4 5 6 4 4 4 5 5 5 5
100 100 100 100 100 100 93 91 87 83 85 80 61 54 47 39 34 35 28 43 43 43 48 44 44 36 26 21 16 8 7 5 4 5 5 4 4 5 6 7 8 8 9
100 100 100 100 97 93 91 91 91 81 70 61 56 42 37 38 33 32 48 39 42 45 49 49 36 26 19 12 8 7 5 5 6 5 4 4 5 5 5 8 11 13 13
100 100 99 94 94 94 94 85 75 66 58 52 39 40 39 31 40 48 39 41 43 50 48 35 27 19 11 8 6 4 5 6 6 5 5 5 5 6 9 11 13 14 18
100 100 99 98 96 90 78 72 63 58 43 36 45 37 34 52 50 40 41 47 51 48 41 29 19 10 8 6 4 6 6 5 5 5 5 5 7 11 13 12 12 14 20
100 99 97 95 84 78 70 64 49 37 43 42 34 44 64 49 41 44 54 56 55 48 31 19 10 8 6 4 6 6 5 5 5 5 5 7 9 10 11 13 10 13 17
99 96 90 85 78 69 54 40 43 43 38 38 62 66 48 49 48 53 53 50 41 28 14 9 7 5 4 6 6 5 5 6 6 7 10 9 10 10 11 12 12 12 16
94 88 78 69 52 45 48 45 40 48 62 69 57 48 50 44 49 47 46 36 20 11 9 7 4 5 6 6 5 5 6 6 9 10 9 9 9 9 8 9 11 11 11
74 63 51 53 53 47 40 52 69 70 59 52 53 48 45 44 44 44 31 14 10 9 7 4 5 6 6 5 6 6 6 8 10 10 9 8 8 8 8 9 11 11 11
59 62 56 49 40 43 64 83 80 72 80 65 52 46 43 46 42 25 12 11 9 6 4 5 7 6 5 6 6 9 9 10 9 9 8 8 7 8 9 11 12 13 12
57 49 44 45 59 78 86 79 79 72 60 51 44 41 43 37 20 12 11 8 6 4 6 7 6 6 6 6 9 10 10 9 8 7 6 6 7 9 9 9 12 11 15
45 49 61 81 92 86 87 82 69 59 49 43 39 39 30 17 13 12 8 5 4 6 7 5 6 7 6 9 10 10 9 9 7 7 7 7 8 7 8 8 9 10 12
78 93 96 93 88 88 75 65 56 49 42 38 35 22 14 12 11 8 5 4 7 7 6 6 8 7 10 12 11 10 8 7 7 7 7 7 7 7 7 8 8 8 8
95 98 95 88 77 66 60 54 47 40 38 34 21 14 12 10 7 5 5 7 7 6 6 8 8 11 12 10 10 9 7 7 8 7 8 6 6 6 6 7 7 7 7
100 91 80 70 63 60 55 48 41 36 30 18 13 12 10 7 5 6 8 7 6 7 8 9 13 15 13 11 9 7 8 9 8 8 6 5 5 5 6 6 6 6 7
84 75 67 64 62 57 50 41 32 24 16 12 11 9 6 5 6 8 7 6 8 8 9 14 16 15 13 10 8 8 8 8 9 8 6 5 5 6 6 6 6 6 7
73 68 69 67 63 55 42 31 22 15 11 10 8 6 5 6 8 8 6 8 8 10 16 18 15 14 12 11 9 10 10 12 10 8 6 5 5 6 5 6 6 6 10
73 72 69 63 53 40 29 20 14 12 10 7 6 5 6 8 8 6 8 9 12 18 20 17 14 13 14 11 12 11 11 11 10 7 5 6 5 5 5 6 6 8 12

GFSGL_250_rhum_042.txt.gz
RH
49 48 68 66 56 59 61 65 61 56 54 57 73 78 90 99 99 100 99 90 79 69 55 50 51 57 61 62 58 54 48 37 33 26 19 20 27 27 21 20 21 23 22
57 54 74 72 64 65 73 76 67 64 62 59 64 85 98 100 100 100 91 79 69 61 57 59 62 69 67 61 54 46 40 28 21 18 28 38 30 25 22 24 23 17 9
70 54 75 71 71 73 75 83 77 76 70 62 71 90 93 98 99 94 89 78 69 66 71 74 72 69 61 52 42 33 26 22 25 29 35 31 29 26 25 24 14 6 5
81 63 66 73 74 76 77 84 86 81 79 80 87 91 91 95 95 89 80 79 78 80 74 74 63 51 46 40 30 25 25 33 37 28 25 25 25 28 18 9 6 5 4
89 72 59 73 71 75 80 87 90 94 92 92 94 91 92 91 82 74 75 76 77 74 66 54 48 44 37 29 25 29 42 32 26 24 22 25 25 15 8 6 4 4 3
88 75 58 66 68 76 84 91 97 99 100 100 99 92 88 76 73 68 70 71 69 61 54 50 43 38 29 28 37 46 32 27 23 19 25 22 13 7 6 4 4 4 4
94 83 64 61 63 68 81 94 100 100 100 100 99 90 74 71 64 65 66 67 61 57 52 47 36 29 30 48 43 34 31 23 20 24 22 10 6 5 4 4 5 4 4
98 81 58 57 63 68 86 98 100 100 100 99 88 77 74 68 64 65 66 64 63 54 46 34 30 34 53 37 38 34 26 24 26 20 9 6 4 4 5 5 4 4 4
89 74 52 59 65 76 99 100 100 100 94 93 86 84 66 68 69 69 70 64 57 43 36 31 47 51 43 43 32 26 26 26 14 7 6 4 4 6 5 5 5 5 5
84 63 56 63 71 90 100 100 96 99 100 94 79 70 72 76 80 75 64 53 40 38 35 54 47 49 46 31 26 26 27 12 7 5 4 5 6 5 5 5 6 6 9
58 58 66 74 92 100 100 100 100 98 87 74 75 78 86 82 73 62 48 41 38 46 55 47 53 46 31 26 26 21 10 7 5 4 5 6 4 4 5 5 8 13 15
65 75 95 100 100 100 100 99 88 85 84 83 89 87 76 64 52 43 41 46 57 48 50 52 41 30 27 26 18 9 7 4 4 6 5 4 4 4 5 9 12 14 16
99 100 100 100 100 98 94 96 90 88 87 90 84 71 57 45 42 44 67 60 48 53 52 44 32 28 26 13 8 6 4 4 6 5 4 4 4 6 8 8 9 11 11
100 100 100 99 99 100 93 90 88 89 87 71 59 49 47 40 56 71 62 58 59 58 45 34 29 19 10 9 5 4 5 6 5 5 5 4 7 8 8 8 8 7 7
100 100 100 100 97 95 94 90 85 70 61 53 52 42 44 68 75 71 65 59 52 40 33 25 13 9 8 4 4 5 6 5 5 5 6 8 8 8 8 8 7 6 7
100 100 100 100 98 89 78 66 60 56 52 45 47 68 82 76 67 58 52 44 36 30 19 11 9 6 4 4 6 5 4 5 5 7 8 8 8 8 7 7 8 8 7
100 98 92 84 70 63 61 57 47 44 53 71 83 79 67 56 52 47 39 32 25 15 10 9 6 4 5 6 4 5 5 5 8 8 7 7 7 6 7 8 9 9 8
86 76 67 65 62 52 44 49 67 82 90 83 72 64 56 49 42 35 28 18 13 11 9 5 4 6 6 4 5 5 7 9 8 7 7 6 6 6 8 8 8 8 8
70 64 55 47 49 68 85 92 93 94 88 74 62 54 46 37 33 23 14 13 11 8 5 5 7 6 5 6 5 8 9 8 7 6 6 6 6 7 7 7 7 6 7
48 48 63 83 92 92 95 95 89 79 66 56 47 40 33 33 21 14 13 12 7 5 5 8 6 6 6 7 10 9 8 8 6 6 6 6 7 8 6 6 6 6 8
71 87 88 93 96 91 91 83 71 60 51 43 36 30 25 18 14 12 11 7 5 6 8 6 6 7 9 11 10 8 8 7 6 6 6 7 7 6 6 6 6 6 8
88 88 93 93 90 86 76 64 55 48 42 34 26 20 16 13 11 9 7 5 6 8 6 7 8 11 13 10 8 8 7 7 6 8 8 8 6 5 5 5 6 6 7
90 94 93 89 79 68 60 53 46 39 31 24 19 16 12 11 8 6 5 6 8 6 7 8 14 15 12 10 10 9 9 7 7 8 6 5 5 5 5 5 6 7 7
97 91 81 70 65 61 53 46 39 29 21 16 13 11 10 6 5 5 7 8 6 8 8 14 18 13 11 11 11 10 9 8 7 6 5 5 5 4 4 6 7 7 8
84 75 69 66 62 54 45 37 27 19 17 13 10 7 6 5 5 8 8 7 8 8 14 18 15 12 11 12 11 10 10 7 7 6 6 5 4 5 6 6 7 9 13
74 69 69 64 54 46 35 23 17 16 12 9 7 6 5 6 9 8 7 9 9 14 19 17 14 13 12 13 12 13 10 8 7 7 7 6 5 6 6 7 11 15 15

GFSGL_250_rhum_045.txt.gz
RH
100 100 89 76 61 56 46 52 58 62 52 53 60 70 80 78 82 75 71 69 88 86 84 92 89 87 88 82 72 66 56 57 57 53 49 39 33 22 17 15 16 20 22
100 100 89 88 70 66 53 48 68 68 60 57 60 72 81 75 80 75 76 79 79 85 90 84 82 84 78 66 55 53 55 47 45 40 39 30 19 17 16 18 21 19 19
100 94 90 96 77 74 64 52 80 74 66 65 66 73 84 81 88 94 91 86 90 88 80 76 74 68 58 50 48 49 45 41 38 31 27 22 20 20 22 21 19 21 20
100 84 92 93 88 90 70 55 74 82 77 70 73 77 86 87 95 98 99 95 92 81 76 70 65 54 47 47 46 41 39 37 32 26 20 22 27 23 18 20 22 21 11
97 81 97 90 96 88 77 60 64 83 85 80 77 79 82 92 98 100 97 94 84 81 74 63 52 48 49 46 41 40 36 35 25 22 26 26 21 20 21 23 18 8 6
86 96 98 100 90 95 88 80 75 71 80 82 80 79 84 96 100 98 90 89 82 76 64 59 53 53 47 46 39 40 28 28 27 27 24 17 21 22 22 18 7 5 3
97 100 95 86 91 99 92 86 78 65 70 75 81 82 85 94 100 99 94 83 76 70 65 60 54 50 46 40 38 28 31 38 27 17 20 22 23 22 11 7 4 3 4
100 99 92 97 97 99 98 93 79 66 66 71 74 76 83 98 100 97 86 80 82 73 67 58 54 47 46 30 29 38 42 31 21 22 23 22 15 7 6 4 4 5 4
100 100 100 100 100 94 93 88 80 65 66 68 71 79 96 100 98 88 91 89 73 73 74 65 51 40 30 31 47 46 27 22 24 24 18 10 7 4 4 5 5 4 4
100 100 96 90 97 93 96 92 66 65 68 73 82 98 99 95 98 97 80 80 82 69 65 59 38 29 34 51 42 24 24 28 25 17 8 6 3 4 5 5 5 6 5
99 91 90 87 91 97 74 70 74 83 90 98 100 100 100 95 87 90 91 80 73 67 46 35 34 46 51 38 24 26 28 25 14 7 5 3 5 5 4 4 4 6 10
90 94 93 83 77 83 92 99 100 100 100 100 99 93 95 98 99 92 83 73 51 39 36 45 58 51 35 26 30 30 21 9 7 4 4 5 4 4 4 4 6 8 8
78 84 94 99 100 100 100 100 100 100 100 100 100 100 98 90 83 74 50 41 40 49 64 60 49 42 34 33 28 14 8 6 4 5 5 4 4 4 5 7 6 7 7
100 100 100 100 100 100 100 100 100 100 100 100 100 94 88 72 50 44 43 54 70 70 62 58 46 37 33 23 10 8 5 4 6 5 4 4 4 6 6 7 6 6 6
100 100 100 100 100 100 100 100 100 100 97 91 84 68 51 47 50 71 83 80 73 61 57 44 35 27 14 9 7 4 4 6 4 4 4 6 7 7 7 6 5 5 6
100 100 100 100 100 100 100 100 94 90 81 64 51 50 64 82 87 84 77 63 55 48 39 30 18 10 9 6 4 4 6 4 5 6 7 7 6 6 5 5 6 6 6
100 100 100 100 100 100 96 86 78 58 48 52 71 83 80 82 75 64 54 47 40 30 20 11 10 8 6 4 5 6 4 4 6 8 7 6 5 5 5 5 6 7 6
100 100 100 98 88 79 67 53 47 59 80 81 80 82 75 63 51 46 40 31 20 12 10 9 7 5 4 6 6 5 5 7 7 6 5 4 5 5 5 7 7 6 6
100 92 80 72 61 50 53 71 84 84 86 84 79 68 56 47 40 32 23 15 11 10 8 6 5 5 7 6 5 6 8 7 6 6 5 5 5 6 7 6 5 5 6
77 68 55 51 68 83 86 87 89 83 78 71 59 49 41 34 26 20 13 12 10 7 5 5 6 7 6 6 8 9 7 6 6 5 6 6 6 6 6 5 5 5 6
64 58 76 93 87 86 90 84 78 71 60 52 44 35 26 25 17 13 11 8 6 5 5 8 8 6 6 10 10 8 7 6 6 6 6 6 6 5 5 5 5 5 6
63 73 86 86 88 88 80 72 62 57 50 40 31 24 20 14 12 10 8 6 5 6 8 8 7 7 12 11 9 8 7 6 7 6 5 5 4 4 5 5 5 6 7
85 91 90 88 81 71 65 60 55 49 40 29 22 20 14 12 10 7 6 5 7 9 8 8 8 13 12 10 10 8 8 8 7 6 6 5 4 5 5 5 5 6 8
92 88 83 76 68 62 58 54 48 39 28 20 21 14 12 8 6 5 5 8 8 8 8 9 13 13 11 11 10 9 10 8 7 7 6 5 5 5 6 6 6 8 12
86 82 70 63 59 58 55 48 37 26 20 22 16 11 8 6 6 6 8 8 8 9 11 16 14 12 12 11 10 11 9 8 9 9 7 6 7 7 7 8 10 14 16
69 64 62 59 57 54 46 37 26 19 21 15 10 7 6 6 7 9 8 8 9 11 17 16 13 12 12 13 13 11 10 10 12 11 9 9 9 10 12 15 15 17 27

GFSGL_250_rhum_048.txt.gz
RH
42 50 58 66 66 75 95 100 98 75 68 58 53 48 50 76 74 68 79 100 100 100 100 98 93 93 85 79 68 66 60 52 44 54 44 42 38 38 38 35 26 20 15
43 60 64 69 69 81 96 100 98 83 76 65 65 52 58 78 81 77 77 80 81 81 88 94 92 86 84 78 73 69 64 54 43 38 41 38 35 34 31 22 16 13 15
45 48 58 66 71 79 100 100 97 90 84 73 70 64 72 85 89 87 84 82 83 81 85 94 88 82 85 77 72 67 58 47 39 34 33 33 32 30 18 13 13 23 23
41 48 56 68 76 100 100 100 98 91 89 89 87 66 69 86 92 92 87 83 84 82 79 81 82 81 80 74 68 56 54 42 35 34 32 34 25 15 12 14 24 23 22
42 51 64 78 98 100 100 100 98 98 100 97 96 80 79 73 83 85 84 82 78 75 74 72 75 78 78 71 65 58 46 42 41 42 37 22 15 13 18 23 23 24 18
52 64 90 100 100 100 100 98 100 99 100 99 100 100 85 80 74 78 76 72 70 70 74 76 75 75 79 66 55 51 49 46 42 29 22 15 16 20 22 25 22 15 12
73 95 100 100 100 100 100 98 96 100 100 98 98 93 91 87 70 68 68 68 69 72 70 74 81 75 66 64 61 53 54 52 32 20 17 19 23 25 24 18 14 8 6
100 100 100 100 100 100 100 100 100 100 100 95 96 89 86 80 68 68 68 73 74 76 80 82 75 74 71 57 60 65 47 34 26 25 24 26 25 21 15 11 7 6 4
100 100 100 100 100 100 100 100 100 91 95 92 87 86 83 79 90 88 84 84 88 86 79 76 68 61 68 61 56 40 32 35 32 27 28 24 18 13 7 6 4 4 5
100 100 100 100 100 100 97 90 94 96 92 88 84 87 100 100 100 100 95 87 83 77 75 71 70 70 57 37 34 39 40 35 29 28 21 15 9 7 5 4 5 5 4
100 100 100 100 70 71 91 92 94 87 81 91 100 100 100 100 96 87 82 75 70 74 81 79 58 40 39 45 49 40 31 29 26 18 11 8 7 4 4 4 4 4 4
100 100 100 100 100 99 99 91 88 98 100 100 100 100 100 96 92 84 79 84 88 83 58 45 45 54 55 51 40 31 26 22 12 8 8 5 4 5 4 4 4 5 6
100 100 100 100 96 93 100 100 100 100 100 100 100 100 94 86 80 87 92 78 55 48 51 61 58 56 53 37 26 24 16 9 8 6 4 4 5 4 4 5 6 6 5
90 88 94 100 100 100 100 100 100 100 100 100 98 89 81 84 84 68 55 50 56 65 65 60 56 49 36 27 18 11 9 6 4 4 5 4 4 5 6 6 5 4 4
99 100 100 100 100 100 100 100 100 100 99 92 85 82 79 66 56 57 67 74 69 64 60 55 46 32 19 13 9 7 4 4 4 5 4 5 6 6 5 5 5 4 4
100 100 100 100 100 100 100 100 98 92 87 86 77 63 60 72 84 80 72 65 56 52 48 36 21 15 11 8 6 4 4 6 5 5 6 6 5 4 4 4 4 4 5
100 100 100 100 100 100 98 95 96 83 70 60 69 79 84 77 71 67 57 49 46 43 26 15 11 9 8 5 4 5 6 5 6 6 5 4 4 4 5 6 5 6 6
100 100 100 100 100 97 89 77 68 58 74 89 89 81 71 64 55 47 43 42 34 18 12 9 9 7 5 4 6 6 5 7 7 5 5 4 4 5 5 6 6 6 5
100 100 100 100 92 82 74 62 61 85 90 83 72 62 54 47 43 39 36 25 14 11 9 8 6 5 5 7 6 6 9 7 6 6 5 5 5 4 5 4 5 5 5
100 98 95 87 77 66 63 74 90 81 72 63 57 52 47 42 34 29 18 12 11 9 7 6 6 6 7 6 8 10 8 7 6 6 6 5 4 4 4 4 5 5 6
86 81 77 68 67 71 85 84 76 68 59 54 48 43 37 27 25 18 12 10 8 7 6 6 8 8 7 9 11 8 7 7 7 6 5 4 4 4 4 5 5 6 6
74 73 73 77 87 84 75 70 60 59 54 47 41 33 22 24 15 10 8 6 6 6 7 8 8 7 11 12 8 8 8 8 6 6 5 5 5 5 6 6 6 6 9
97 91 84 77 73 68 65 62 60 53 43 38 30 22 22 12 9 7 6 5 6 8 9 8 8 12 15 10 9 9 8 7 7 7 7 6 7 7 6 6 9 13 17
83 84 80 75 71 69 64 57 48 43 36 27 22 20 11 8 6 6 6 7 9 8 8 9 13 16 12 10 11 10 8 8 10 10 9 9 8 8 9 13 16 22 23
90 82 76 73 71 62 57 50 47 37 27 19 20 11 8 6 6 6 8 9 8 8 9 14 17 13 12 12 12 10 9 10 13 12 12 13 14 16 15 17 24 26 24
90 82 75 73 67 59 51 50 39 30 18 18 11 8 7 6 7 9 9 9 9 10 15 17 13 13 13 14 14 12 11 12 16 14 18 19 19 19 21 27 27 26 24

GFSGL_250_rhum_051.txt.gz
RH
39 41 47 53 61 71 78 77 72 67 66 66 85 100 95 78 83 83 70 61 52 50 59 75 86 86 82 80 76 80 78 71 72 79 64 63 58 58 57 52 45 42 38
35 54 56 62 64 57 58 61 68 69 75 84 100 100 98 84 93 97 98 79 65 62 67 71 79 85 82 77 73 69 69 66 63 62 61 60 55 51 47 40 36 30 29
29 34 43 48 53 54 59 63 74 80 83 92 100 100 94 93 99 100 97 83 68 60 64 74 80 83 80 75 68 62 60 58 52 49 50 48 48 45 38 32 35 34 29
28 32 36 42 47 51 50 60 70 87 96 100 100 100 96 100 100 100 94 78 71 67 70 69 69 71 68 68 68 62 56 55 54 50 51 47 38 38 40 41 39 25 21
13 27 42 53 56 50 56 76 76 96 100 100 100 100 100 100 94 86 83 77 77 73 78 74 66 66 69 64 61 60 59 57 55 53 47 44 48 50 40 27 19 26 32
23 39 54 68 61 56 72 97 100 100 100 100 100 100 100 100 98 92 84 85 84 85 79 75 70 66 62 66 64 62 61 54 44 45 50 47 40 24 19 27 30 29 32
44 52 56 62 67 81 100 100 100 100 100 100 100 91 100 90 97 92 93 87 86 81 80 79 87 92 84 77 65 55 51 51 51 48 36 23 26 27 27 28 24 16 10
54 63 70 84 100 100 100 100 100 100 100 100 100 98 94 93 95 96 88 82 81 84 92 96 84 76 70 59 54 64 68 54 33 30 34 32 27 24 21 14 9 8 7
98 99 100 100 100 100 100 100 100 100 97 96 95 97 100 97 92 85 78 81 96 94 84 81 69 60 64 69 68 58 40 37 44 39 30 25 21 15 9 8 7 6 4
100 100 100 100 100 100 100 99 97 81 82 93 96 99 97 87 83 86 95 88 81 82 75 74 78 78 68 52 37 38 47 49 44 33 26 18 12 8 6 5 4 3 3
100 100 100 100 100 100 100 100 85 79 79 74 82 94 94 93 95 88 85 83 82 89 87 79 68 55 44 45 52 50 51 43 33 25 18 10 7 6 4 3 3 4 4
100 99 96 80 79 69 72 79 94 97 100 100 100 100 97 93 89 84 89 93 87 79 72 59 52 54 61 58 55 53 41 29 21 14 8 7 5 3 4 4 4 4 4
93 94 89 100 97 96 100 100 100 100 100 100 93 92 88 89 97 96 90 80 69 57 61 68 67 62 59 53 45 34 24 16 10 8 6 4 4 4 4 4 5 5 4
100 100 100 100 100 100 100 100 100 100 93 88 93 96 96 97 95 76 61 57 69 77 69 61 56 53 46 38 26 18 12 9 7 5 4 5 4 4 4 4 4 4 3
100 100 100 100 100 100 97 91 88 88 92 95 96 100 92 76 64 56 72 82 80 70 60 53 45 38 28 19 14 10 8 5 4 5 5 4 5 4 4 4 4 4 5
100 100 96 90 88 92 92 89 92 94 96 99 94 81 70 61 74 85 78 65 56 50 44 39 33 21 14 11 8 6 4 5 5 5 5 5 5 4 4 4 4 5 5
95 96 94 92 93 88 88 96 96 94 99 93 77 64 68 81 78 62 56 47 43 40 32 21 14 12 9 6 5 5 6 6 5 6 6 5 5 5 4 4 4 4 5
94 94 95 93 91 92 90 89 97 98 81 69 74 85 78 61 54 46 42 38 30 20 15 12 9 7 6 5 6 7 6 7 7 6 6 5 5 4 4 4 4 4 5
98 94 92 92 92 92 94 92 82 77 85 91 75 61 54 47 42 37 30 22 16 12 10 8 6 5 6 7 7 6 9 8 7 7 6 6 5 4 4 4 4 5 5
94 96 93 90 94 92 90 91 94 85 72 69 58 51 49 42 38 26 14 10 10 8 6 6 6 7 8 8 8 10 8 8 7 6 7 6 5 5 5 5 5 6 6
100 99 92 88 88 88 82 75 74 72 68 57 51 48 39 38 25 12 10 8 6 6 6 7 9 8 8 9 12 9 9 9 7 9 8 6 7 7 7 6 7 8 10
94 86 76 77 80 72 72 80 77 66 58 54 49 38 38 24 12 9 7 6 6 6 8 9 8 9 11 13 10 10 10 8 10 9 8 9 9 9 9 10 12 16 18
87 73 73 73 72 75 82 77 66 60 56 48 41 38 30 14 10 7 7 7 8 9 9 9 10 14 16 12 11 11 11 10 12 11 12 11 13 15 16 19 21 21 20
79 74 75 74 72 73 73 68 61 57 53 45 35 37 16 11 8 8 8 9 9 9 9 11 17 17 13 12 13 13 12 12 14 15 17 19 19 22 26 25 23 21 17
83 82 77 71 73 71 69 61 58 54 54 40 34 25 13 9 8 8 10 10 10 10 12 19 19 15 14 14 14 14 14 15 17 20 19 21 27 29 28 26 24 20 17
87 79 76 74 70 70 62 58 55 59 48 35 30 16 10 9 9 10 11 10 10 13 19 21 17 15 14 14 15 15 15 15 18 21 20 29 34 31 29 28 25 19 18

GFSGL_250_rhum_054.txt.gz
RH
37 43 56 65 61 59 56 54 50 70 81 87 100 100 100 100 100 87 89 97 93 95 96 91 82 68 70 72 68 61 56 54 58 69 74 83 88 82 73 66 58 54 48
26 32 42 49 42 41 42 48 60 63 65 80 84 100 98 84 81 89 99 96 99 100 92 74 74 86 80 78 70 66 65 59 53 53 56 63 65 62 59 57 52 48 45
26 26 32 39 43 45 47 49 59 67 75 70 75 77 76 94 98 100 100 100 100 92 83 85 75 69 75 75 69 66 63 60 54 50 53 58 58 54 51 50 49 47 44
11 16 21 28 39 40 42 48 58 59 70 83 85 86 95 94 100 96 100 100 100 93 67 82 86 87 81 75 69 64 60 61 63 67 68 67 60 59 56 52 57 55 50
7 10 13 20 28 40 53 63 66 62 64 65 68 79 100 100 100 100 97 97 100 94 87 87 95 81 83 79 68 64 75 82 81 72 68 65 57 55 55 49 39 32 28
6 9 11 14 18 39 52 76 80 71 63 56 75 100 100 100 100 94 92 100 100 100 100 97 91 90 76 72 77 79 76 76 70 64 57 49 46 30 29 32 33 31 32
13 16 18 22 36 70 91 100 94 73 70 86 100 100 100 100 100 98 91 79 74 90 94 89 84 77 74 76 75 79 77 68 51 43 36 30 35 36 33 33 29 25 21
27 28 40 54 84 100 99 98 97 100 100 98 100 100 100 100 100 93 94 98 100 94 85 77 77 80 83 82 74 68 61 48 41 42 43 43 37 28 24 23 18 12 8
67 70 74 94 100 100 100 100 100 100 100 100 100 100 97 99 100 100 99 97 80 84 88 84 82 78 72 67 68 60 54 53 54 49 39 31 27 22 18 13 8 7 6
100 100 100 100 100 100 100 100 100 100 100 100 97 88 98 88 87 78 66 75 76 80 78 75 74 75 74 60 52 53 62 59 50 41 33 26 21 14 8 6 6 4 3
100 100 100 100 100 100 100 100 100 99 91 94 88 78 70 69 68 73 73 74 88 82 81 82 75 61 53 57 60 61 55 47 41 33 25 16 10 7 6 4 3 3 4
100 100 100 100 98 82 92 89 76 69 68 65 68 67 79 94 75 74 91 87 83 93 93 70 59 64 70 65 56 48 42 35 27 18 12 9 7 5 3 3 4 4 4
71 79 81 79 81 86 78 75 77 89 90 86 100 100 98 98 100 88 89 94 98 83 63 65 71 63 54 49 43 35 27 18 12 11 7 5 4 4 4 4 4 4 4
79 79 87 91 89 88 91 97 100 100 100 100 100 100 98 85 94 99 96 88 70 68 72 61 52 48 43 36 26 18 12 10 8 6 5 4 5 4 4 4 4 4 4
100 100 100 100 100 100 100 100 100 100 100 95 83 81 92 100 99 91 78 74 76 63 55 51 43 34 25 18 12 9 8 6 5 5 6 6 5 5 4 4 4 4 4
100 100 98 96 93 96 100 99 92 82 78 79 90 98 98 93 86 81 77 60 54 53 46 35 26 19 13 8 7 6 6 6 6 6 6 6 5 5 4 4 3 3 3
93 90 93 98 96 90 83 79 76 80 86 92 97 97 90 87 76 61 60 54 50 40 26 17 11 8 7 6 6 6 7 7 6 8 7 6 5 5 4 4 4 4 4
94 87 83 83 84 85 88 93 94 92 89 92 92 80 61 53 59 59 54 51 32 19 12 8 7 6 6 6 7 8 7 9 9 7 7 6 6 6 5 5 5 5 6
86 87 88 90 89 92 90 84 80 76 72 66 58 52 54 59 56 53 47 26 15 9 7 6 6 7 8 8 8 8 12 11 8 8 7 8 8 6 6 6 7 7 7
85 84 82 85 90 96 85 75 72 68 63 61 54 53 58 56 57 41 22 11 8 7 6 7 8 9 8 8 10 13 11 10 10 9 9 10 8 8 9 11 12 14 16
94 89 83 93 96 93 82 78 73 65 61 54 53 58 55 58 47 27 14 9 7 7 8 9 9 9 9 13 14 12 12 12 11 11 12 12 12 14 18 21 22 21 20
98 82 74 88 95 89 82 78 66 62 56 55 60 57 54 54 33 18 10 8 8 9 10 10 10 12 14 13 12 12 13 13 12 14 15 16 20 23 23 24 23 20 17
80 82 95 98 89 83 78 69 65 58 57 58 63 57 49 44 21 13 10 9 10 11 11 11 15 17 14 12 12 13 14 14 14 15 16 18 23 26 26 25 22 19 18
88 92 96 84 78 72 69 65 62 62 60 65 66 56 47 27 16 13 10 11 12 12 12 15 20 16 13 12 14 16 17 15 15 17 19 29 34 30 27 25 20 20 18
91 87 85 82 78 71 69 66 66 65 67 70 63 53 39 22 16 13 11 13 13 13 13 20 21 16 14 13 16 18 18 17 17 21 24 37 34 30 27 24 20 19 19
88 88 83 77 72 70 70 71 70 71 71 70 62 49 36 19 16 12 12 14 14 14 15 22 20 17 15 15 17 18 20 17 18 21 27 36 33 29 28 23 20 20 22

GFSGL_250_rhum_057.txt.gz
RH
49 46 45 47 48 49 52 51 53 59 62 66 68 79 83 93 79 70 98 98 99 100 100 100 100 98 99 88 79 89 98 87 75 82 75 75 73 70 66 63 59 55 54
24 21 21 26 30 37 47 52 58 68 64 71 81 82 76 67 64 90 100 100 100 100 100 100 100 98 92 86 91 90 78 72 71 62 58 64 64 62 59 60 68 73 72
25 24 24 25 29 31 33 36 44 56 61 62 72 72 64 64 75 82 99 100 100 100 100 100 95 93 90 86 82 80 76 57 54 52 60 58 58 59 63 67 70 72 66
13 16 16 18 22 34 43 46 44 54 58 61 78 86 72 77 88 90 92 100 100 100 97 98 100 94 96 88 83 83 80 84 82 68 60 64 65 64 69 67 66 56 46
6 7 9 12 16 33 48 53 68 82 84 87 88 86 82 71 82 85 98 96 100 100 93 94 94 98 100 100 100 91 80 72 76 69 70 76 78 73 60 49 38 36 38
4 5 5 7 10 14 24 42 69 86 96 100 100 94 90 85 83 80 100 96 98 95 94 95 98 100 100 89 89 74 75 79 79 82 86 68 55 44 38 39 38 32 29
6 6 6 8 9 12 18 35 70 90 96 100 100 100 93 99 100 93 100 84 73 71 97 89 84 89 86 82 72 77 77 79 78 68 53 45 41 41 38 35 31 27 25
11 10 11 13 14 19 47 78 97 99 100 100 100 100 100 100 100 100 100 100 100 100 100 98 87 79 75 71 74 76 80 72 59 52 49 50 42 35 29 25 22 17 12
40 32 28 50 54 68 95 100 100 100 100 100 100 99 100 100 100 100 100 100 92 95 92 89 85 72 63 73 78 74 68 63 62 55 44 35 31 26 19 14 10 7 7
81 84 94 98 100 97 88 100 100 100 100 96 100 100 100 100 91 88 97 100 100 99 82 71 56 68 72 73 71 68 69 65 52 41 33 26 21 17 11 7 6 4 4
48 50 64 70 76 86 86 93 88 90 95 86 83 88 87 96 100 94 86 75 62 55 57 62 69 76 75 71 70 66 56 47 42 35 29 24 14 9 6 4 3 4 4
74 70 70 68 72 85 100 94 95 88 90 96 99 100 100 93 72 56 56 59 69 81 87 97 96 87 84 74 62 53 46 39 33 27 17 11 7 5 4 4 4 4 4
90 96 99 100 100 100 100 100 100 100 100 98 76 61 61 60 65 76 88 97 100 100 98 93 89 77 70 56 43 38 32 26 16 11 8 6 5 5 6 5 5 5 4
87 97 100 98 100 100 93 91 90 75 69 66 73 82 95 100 100 100 100 98 95 91 86 78 72 52 42 38 31 24 14 10 8 7 6 6 6 6 6 7 5 4 4
96 94 96 97 97 97 96 94 95 99 100 99 98 100 100 100 100 96 86 85 90 83 61 49 42 39 31 22 14 10 8 7 7 7 7 7 7 8 7 6 5 5 5
87 95 100 100 100 96 96 95 94 93 93 97 100 100 100 94 78 73 72 63 56 51 45 38 30 20 14 9 8 7 8 8 8 8 7 9 8 7 7 7 6 6 5
100 92 84 91 100 100 98 91 87 86 100 100 91 83 72 65 68 69 60 54 54 40 28 20 13 9 8 7 7 8 8 8 7 9 10 8 7 8 8 7 7 8 8
92 98 100 94 88 83 79 78 81 85 92 91 85 78 74 68 63 56 55 54 33 23 18 11 8 7 7 8 9 9 8 10 11 10 9 8 9 10 10 11 13 16 19
92 90 84 76 73 78 79 80 95 96 99 96 80 73 67 61 56 56 61 44 21 18 11 8 8 8 10 9 9 11 12 12 10 9 9 10 13 13 15 20 23 23 20
87 87 79 70 90 93 84 92 94 93 85 73 67 62 59 58 57 63 62 25 18 12 8 8 9 10 10 10 14 15 12 11 11 11 12 13 16 16 22 25 24 20 17
94 87 74 94 99 79 75 82 88 79 67 62 61 58 59 62 60 70 44 18 15 11 8 9 12 11 12 17 16 13 12 12 12 13 13 18 19 23 28 26 22 19 16
89 82 94 91 74 75 73 81 77 66 62 60 57 62 66 64 66 59 30 16 14 10 10 11 13 13 17 18 14 12 12 13 14 15 17 20 24 31 30 25 20 18 16
89 94 95 74 74 73 76 74 70 70 68 64 66 66 71 68 64 49 22 16 13 11 11 13 14 17 22 16 13 11 13 14 16 15 19 23 33 30 28 24 20 18 18
98 91 78 81 79 79 79 76 74 71 70 71 68 74 74 61 48 38 20 16 14 12 13 15 15 21 24 16 14 13 15 16 17 16 20 30 35 32 29 23 20 21 24
89 84 84 85 81 77 75 72 73 75 74 71 78 78 77 44 33 26 18 17 14 13 15 16 16 23 25 16 14 15 17 19 18 18 24 36 36 33 28 23 23 25 26
89 91 89 88 84 79 76 78 76 77 81 82 81 82 68 34 31 22 16 16 14 14 16 15 17 24 24 17 14 16 18 20 20 18 23 40 35 32 27 24 27 26 28

GFSGL_250_rhum_060.txt.gz
RH
83 78 73 73 77 79 81 82 85 88 89 95 98 99 99 92 90 88 94 100 100 100 100 100 100 98 100 100 97 91 100 100 97 92 100 90 88 83 84 62 53 53 48
43 36 29 24 20 21 28 33 40 52 62 72 76 78 76 79 96 100 100 100 100 100 100 100 100 100 100 100 100 99 99 94 98 88 79 73 72 65 56 66 59 62 67
23 18 17 21 24 24 24 24 27 35 45 52 70 86 93 100 100 100 98 93 92 92 97 100 100 100 100 100 100 100 96 94 82 80 80 68 63 68 69 65 73 76 72
21 19 19 19 15 15 19 23 26 30 38 45 55 73 77 82 90 95 87 92 88 89 96 100 100 96 97 100 99 80 79 84 92 86 75 77 80 66 71 73 69 66 68
12 9 8 8 8 10 11 16 22 32 38 41 52 56 69 91 99 100 99 100 100 100 100 100 100 83 97 100 94 90 82 90 78 70 68 64 64 70 66 66 61 56 50
9 6 5 5 5 5 7 11 20 33 45 53 70 97 97 100 100 100 100 100 100 100 88 96 100 78 83 89 89 91 79 65 58 60 59 84 84 69 58 55 45 43 41
13 8 7 6 5 6 8 11 22 34 48 60 78 91 100 100 100 100 100 100 100 100 88 100 100 100 90 82 71 68 79 78 73 92 86 78 63 52 42 44 44 38 36
26 19 12 8 7 10 17 27 38 47 62 78 92 98 98 100 99 99 100 100 100 100 100 95 96 88 87 89 90 91 81 74 90 80 64 50 43 42 38 36 34 29 25
51 36 25 20 25 30 47 63 81 83 83 97 100 100 100 100 100 100 100 100 93 80 73 72 85 91 90 72 78 92 86 80 68 51 46 43 40 38 34 30 24 19 12
51 50 52 62 67 75 77 67 93 100 100 100 100 99 76 93 92 95 82 73 75 81 91 99 93 85 81 74 67 68 64 59 52 44 42 40 38 33 26 22 13 7 6
81 80 76 65 60 55 59 57 56 56 59 72 69 64 68 77 85 88 95 100 100 100 98 95 82 71 69 72 72 60 49 47 48 48 43 36 28 24 20 9 6 6 7
62 64 80 86 76 68 70 76 83 89 95 95 98 100 97 100 100 100 100 100 100 93 83 85 83 82 88 65 53 53 51 51 45 37 32 25 17 10 8 7 7 7 8
87 82 84 85 95 96 95 96 98 98 100 99 99 100 100 100 100 100 99 100 100 100 94 98 99 82 66 58 53 49 40 30 25 20 15 9 7 7 9 8 7 8 7
91 94 100 100 100 96 97 100 100 100 100 100 100 100 100 100 100 100 100 100 100 95 84 87 77 62 52 46 40 32 23 16 12 8 7 7 8 8 8 11 10 9 8
86 86 91 93 99 100 100 100 100 100 100 99 98 98 100 100 100 100 93 88 91 90 76 66 57 48 44 40 28 17 10 8 7 8 9 8 9 11 12 11 10 9 9
99 96 100 100 100 100 98 93 96 93 90 93 100 100 95 87 90 96 100 87 76 71 65 56 46 43 35 20 12 8 7 8 9 9 10 13 13 12 11 11 12 14 16
100 100 99 99 100 94 91 94 85 75 68 69 75 83 93 99 94 86 81 71 64 64 58 45 37 27 16 9 7 7 10 9 9 12 13 11 11 11 12 12 15 20 21
95 99 100 95 88 84 77 68 73 83 76 79 92 92 88 84 76 72 67 66 65 56 44 28 22 14 9 7 8 10 10 12 15 13 11 12 12 13 12 18 23 22 20
100 100 94 84 81 80 71 79 82 78 72 74 79 79 76 75 72 69 66 62 54 41 25 18 14 11 8 8 11 10 14 16 13 11 12 12 13 14 22 26 25 22 20
97 89 84 81 82 78 77 87 82 75 72 73 77 76 70 69 67 66 62 52 41 28 15 14 12 10 9 12 12 14 19 15 13 13 14 14 15 22 29 27 24 21 20
94 90 83 89 88 82 83 84 84 72 73 75 76 71 71 71 69 66 52 41 32 16 12 14 12 10 12 14 13 19 19 15 13 15 16 15 20 32 31 27 24 21 18
90 85 91 90 85 81 85 87 84 78 82 76 75 76 74 76 67 56 47 32 24 13 14 15 12 12 14 14 15 24 18 16 15 17 16 18 27 35 30 27 23 19 18
88 94 98 95 91 89 95 90 81 82 81 82 78 72 78 78 68 57 39 26 23 14 15 14 12 14 14 14 19 21 16 14 16 16 16 19 34 33 30 25 22 20 19
99 99 98 96 93 99 95 83 82 85 84 79 73 78 87 87 67 49 32 30 20 14 17 14 13 15 15 15 23 21 16 14 16 18 17 22 33 32 29 25 23 22 24
100 100 100 99 100 97 86 82 82 83 77 76 84 87 93 81 57 41 32 29 17 15 16 14 14 16 14 17 24 19 16 15 16 18 18 26 33 32 28 24 26 25 30
99 100 100 95 90 83 79 80 80 78 86 84 94 94 85 63 42 40 32 25 15 16 15 14 16 16 14 20 23 18 15 15 17 20 19 28 32 31 26 27 25 30 30

GFSGL_250_rhum_063.txt.gz
RH
90 83 80 78 73 72 70 68 68 68 75 84 90 93 94 99 100 100 100 100 100 100 100 100 100 100 100 100 99 98 97 100 87 99 99 90 82 76 67 72 80 81 71
78 70 67 66 63 51 38 33 32 34 39 43 54 61 71 81 95 98 100 100 100 100 100 100 100 100 100 100 88 100 98 78 92 95 98 97 90 67 72 86 83 72 63
56 49 48 41 32 23 16 14 16 17 19 24 31 39 45 52 64 85 92 100 100 100 100 100 100 100 100 94 97 100 100 94 89 79 81 80 89 98 86 71 66 67 69
47 44 39 31 24 22 19 17 14 12 14 19 22 27 35 45 61 75 93 100 100 100 100 100 100 99 98 93 98 100 100 100 78 84 93 93 92 76 66 74 74 66 61
40 34 28 23 21 17 16 15 13 13 14 15 18 24 34 44 46 70 89 96 99 97 100 100 99 100 91 100 100 100 92 79 78 84 88 93 80 75 73 65 55 56 57
28 25 18 14 9 10 9 9 8 8 8 10 14 22 34 49 51 70 92 96 100 100 100 94 84 100 100 100 100 94 88 81 76 78 75 72 78 63 58 57 56 50 60
46 30 18 11 11 8 8 8 9 9 10 11 29 37 45 57 64 77 90 100 100 100 100 99 91 97 100 85 75 67 72 74 75 75 92 91 72 62 68 70 66 55 45
56 56 50 36 24 16 18 13 16 22 38 58 59 61 76 73 75 82 91 92 92 88 84 79 81 83 74 74 80 81 92 88 90 78 65 64 67 60 51 47 41 40 37
63 64 61 67 52 42 36 31 46 61 66 75 98 100 88 89 88 83 88 88 74 65 68 72 80 83 90 93 98 94 96 89 78 70 65 57 51 45 42 40 38 34 31
77 69 68 72 72 70 70 59 55 60 59 58 58 64 58 54 62 63 85 92 91 92 98 100 98 93 93 100 100 100 94 84 66 60 57 49 44 41 39 36 30 22 11
83 82 78 81 78 81 77 73 79 81 80 80 79 78 83 89 92 96 99 98 99 100 100 100 100 100 100 100 98 84 74 66 60 52 44 42 40 36 32 18 10 8 8
72 76 82 81 86 87 81 78 85 91 93 97 97 98 100 100 100 100 100 100 100 100 100 100 100 100 100 90 80 72 66 62 51 44 41 34 27 16 10 8 8 8 8
84 81 88 95 92 91 92 95 96 95 96 98 97 94 95 99 100 100 100 100 100 100 100 100 100 96 91 91 79 66 54 45 42 36 25 16 10 8 9 9 8 9 10
70 80 84 82 79 86 91 91 95 99 100 100 99 91 89 89 97 100 100 100 100 100 100 100 100 96 82 68 55 46 42 36 26 16 11 8 9 10 10 11 11 10 8
71 73 71 78 86 91 89 88 92 98 98 93 84 78 73 74 86 97 100 100 100 100 96 86 82 74 60 47 43 38 26 18 13 10 8 10 10 12 12 10 11 11 12
82 83 90 98 100 100 97 98 97 92 80 78 74 74 73 81 92 100 99 95 89 81 74 70 62 56 45 38 32 18 13 12 10 9 11 12 14 12 10 12 12 13 16
83 96 100 100 100 98 95 93 92 88 77 80 82 78 76 77 77 78 77 75 73 68 63 56 51 43 32 24 15 13 11 10 10 11 12 15 13 12 14 14 14 20 23
100 100 100 100 94 94 90 89 87 76 78 81 78 79 79 77 74 75 74 72 64 56 50 44 41 27 18 15 13 12 10 10 12 12 18 15 13 14 15 15 22 26 24
91 93 93 92 97 96 90 84 81 78 80 80 83 81 79 79 79 77 73 70 59 48 42 34 28 17 16 13 12 11 10 12 12 17 15 14 15 16 16 23 29 27 22
98 100 99 99 95 89 83 82 81 88 87 81 85 80 79 79 80 79 71 61 54 48 39 30 25 14 14 14 12 11 13 12 18 19 16 16 16 17 22 30 28 26 21
93 96 94 86 82 86 88 89 92 90 82 84 86 79 81 82 84 78 72 61 52 36 31 35 20 16 15 14 12 13 13 16 20 18 18 18 18 17 29 30 28 22 25
97 92 92 96 95 92 85 84 88 88 84 84 80 79 81 85 74 73 62 54 35 34 36 33 17 16 16 14 13 15 15 21 20 18 19 19 19 24 31 30 25 25 27
97 100 99 92 91 86 84 86 88 84 84 83 78 79 82 72 76 78 57 41 40 43 36 23 16 17 15 13 14 14 16 20 18 17 17 19 19 28 29 29 24 25 31
100 94 92 91 86 84 82 80 82 86 82 78 77 83 75 82 80 68 48 54 50 40 34 20 18 16 14 13 14 14 22 21 17 16 17 18 20 29 30 27 24 26 31
88 90 92 91 88 85 83 80 82 82 79 77 81 72 78 83 70 55 64 63 47 40 28 19 16 15 14 14 14 15 24 22 17 15 18 19 22 26 29 25 24 30 31
94 95 92 91 87 88 89 85 81 77 80 82 74 81 88 77 64 71 71 57 45 36 22 18 16 14 13 14 13 19 24 21 16 16 19 19 23 27 28 23 26 32 45

GFSGL_250_rhum_069.txt.gz
RH
53 63 64 74 83 95 98 99 98 100 100 100 100 93 85 84 80 78 75 73 75 75 79 93 99 100 100 100 100 100 100 100 100 100 100 100 100 100 100 100 100 98 88
88 96 92 99 100 97 90 87 83 80 73 69 48 29 25 28 29 32 35 33 42 53 67 79 90 96 100 100 100 100 100 100 100 100 100 100 100 100 100 100 99 100 100
100 94 93 84 62 49 52 63 52 46 38 28 19 15 14 15 17 20 24 27 29 30 34 44 54 58 73 91 100 100 100 100 100 100 100 100 100 92 89 91 91 100 100
79 68 60 57 58 58 57 52 43 43 26 22 20 17 14 12 12 11 13 16 20 26 31 36 41 47 55 66 80 94 99 99 100 100 97 95 96 89 86 84 84 80 84
67 68 65 61 59 51 51 48 43 40 32 23 17 15 12 10 7 7 8 10 11 13 17 26 41 50 52 59 72 78 94 99 100 100 93 94 82 84 83 84 87 95 90
64 57 58 59 61 56 51 45 40 34 33 30 33 36 42 40 39 22 18 12 12 14 16 22 32 49 67 72 69 74 96 100 100 98 98 73 95 89 77 68 72 63 61
60 62 67 66 57 49 47 49 49 40 36 33 38 39 36 40 54 58 37 30 26 28 29 56 56 66 82 92 96 98 97 96 95 90 96 83 88 75 68 65 62 57 51
69 71 56 54 55 52 48 49 55 52 47 47 46 50 58 59 56 51 46 53 59 69 80 90 97 98 99 99 98 96 96 89 80 78 78 77 73 64 59 51 42 40 41
55 50 54 64 62 60 54 53 61 57 49 41 45 50 59 61 56 55 54 58 62 70 71 70 72 74 74 70 68 70 73 77 78 77 75 72 69 60 56 47 46 48 48
57 60 68 65 63 63 60 59 64 59 54 54 59 69 73 68 66 65 62 64 70 74 76 77 79 82 84 86 85 87 97 100 100 100 98 78 61 54 54 53 47 40 32
68 66 68 70 61 53 56 60 69 64 67 67 71 78 81 84 86 86 82 82 75 74 82 92 96 100 100 100 100 100 99 97 91 86 75 62 57 53 46 38 31 20 13
70 74 74 66 58 58 56 62 64 73 71 71 79 86 88 85 80 80 82 81 78 81 85 85 85 88 90 88 86 81 75 70 64 57 52 47 41 32 23 16 13 11 11
77 70 68 74 82 62 58 63 78 78 74 82 87 91 97 92 88 92 86 84 85 84 83 84 80 77 73 70 67 64 59 54 50 42 32 28 20 17 14 11 11 11 10
74 74 81 87 78 67 71 80 79 77 79 90 92 97 88 85 89 97 90 88 85 82 82 82 75 70 68 64 58 56 52 45 36 34 37 23 16 11 11 12 10 10 11
78 77 81 81 73 80 86 81 80 85 93 90 94 94 88 86 86 85 85 84 81 82 83 77 74 68 63 60 56 52 43 46 52 37 19 13 11 11 12 11 12 12 15
80 83 81 78 83 86 85 85 89 91 91 88 89 84 79 80 84 84 85 86 90 86 79 77 71 67 63 62 54 48 56 55 35 24 15 12 12 11 11 14 15 20 17
74 76 80 92 94 85 83 92 97 92 87 89 83 80 81 84 84 86 85 85 82 80 80 78 71 65 61 54 49 58 60 45 31 22 14 13 12 12 14 15 21 19 17
83 88 91 95 98 97 90 92 94 92 90 84 87 85 84 89 86 83 82 85 86 86 81 74 66 58 51 46 62 64 58 40 28 18 14 13 12 14 15 18 18 18 18
91 87 85 89 89 90 90 93 92 96 97 94 87 86 90 89 87 84 86 93 92 86 84 74 63 47 43 66 69 64 56 34 23 16 13 13 14 15 16 19 16 18 18
86 87 90 96 99 98 97 96 100 94 88 87 89 92 97 94 86 85 90 97 94 93 84 68 46 49 74 77 72 66 44 28 20 15 13 12 14 15 19 16 18 18 19
86 88 87 90 96 98 95 91 88 82 85 92 93 94 94 90 83 88 94 95 96 88 77 56 50 74 78 73 71 54 31 20 16 13 11 13 14 16 17 17 18 19 24
79 78 79 78 78 80 80 79 86 92 100 100 97 92 87 85 86 89 90 96 90 81 64 55 65 74 72 66 60 35 20 15 13 12 11 13 13 18 17 17 19 20 30
83 83 82 82 87 92 95 98 100 100 100 98 90 87 83 85 88 91 90 94 88 71 57 64 75 69 62 62 43 22 14 12 12 11 12 13 16 20 18 18 18 26 32
95 92 92 90 87 88 91 92 94 100 100 88 86 86 84 92 93 91 94 96 82 59 60 73 71 62 58 50 25 14 12 11 10 12 12 13 19 20 16 18 19 29 29
91 88 96 94 97 99 96 98 100 100 94 89 85 84 92 99 92 94 100 93 65 56 63 64 52 52 55 27 15 13 11 10 11 12 12 18 20 18 17 18 24 30 27
93 96 93 90 90 95 99 97 94 92 91 89 90 94 100 96 99 100 96 71 61 65 58 47 49 54 35 16 14 13 12 12 12 12 18 20 19 16 17 19 26 27 25

GFSGL_250_rhum_072.txt.gz
RH
100 100 95 94 91 81 68 63 54 50 60 68 70 82 78 69 34 28 27 21 18 18 19 22 26 31 37 49 68 90 100 100 100 100 100 100 100 100 100 100 100 100 100
88 82 71 72 64 55 55 50 60 80 96 100 94 72 45 31 30 22 19 21 18 18 20 18 19 21 28 32 39 58 80 95 100 100 100 100 100 100 100 100 100 100 100
82 75 67 64 77 64 75 89 81 100 92 69 52 55 39 32 28 24 20 17 15 14 9 8 10 10 13 26 37 43 50 57 69 85 86 77 89 96 98 100 100 96 92
89 87 97 87 97 94 94 100 94 73 52 51 47 45 39 34 30 27 21 18 13 13 12 10 9 9 11 15 23 44 59 64 63 60 59 60 71 83 90 95 90 82 80
100 100 100 100 100 98 90 67 53 54 51 45 46 42 40 38 34 32 34 42 46 42 31 19 12 14 14 16 22 33 43 56 69 80 80 77 73 80 80 85 89 86 86
100 100 100 95 84 62 55 55 54 53 54 47 43 43 42 41 38 34 33 39 47 50 46 39 40 34 32 30 38 42 47 57 78 92 91 79 74 80 93 100 100 90 77
100 88 67 65 63 56 55 58 64 56 48 46 52 48 50 50 41 36 38 41 45 43 44 46 47 47 51 63 80 87 92 94 95 97 98 98 98 96 96 91 82 69 56
77 70 72 65 57 58 67 67 56 49 45 50 52 56 55 44 44 41 44 50 53 52 52 49 47 49 54 62 67 71 76 78 78 79 76 73 72 70 65 59 55 52 49
83 77 71 64 70 75 59 54 57 55 50 50 52 58 53 55 56 54 55 58 57 58 57 56 55 55 61 64 67 71 74 75 78 76 78 74 75 73 70 66 60 57 57
76 69 76 85 64 57 52 55 60 53 54 51 54 57 58 62 64 63 65 68 71 70 72 77 81 81 82 84 84 80 78 78 78 77 75 74 70 68 65 59 51 46 33
87 81 61 53 52 55 58 61 59 54 54 54 57 56 64 67 68 71 74 76 79 83 82 78 80 81 83 84 85 81 77 72 68 67 65 63 62 57 50 40 32 22 21
60 53 52 57 62 64 65 60 57 67 62 58 57 67 72 70 74 74 75 74 73 74 77 84 90 96 93 87 79 71 68 64 62 62 61 58 50 45 45 39 23 20 14
64 63 69 76 75 66 59 68 80 69 62 62 71 74 70 78 75 73 76 74 74 76 80 85 85 79 77 73 69 66 63 64 63 60 50 44 47 58 46 27 20 13 12
83 83 79 74 70 72 80 83 78 72 77 79 74 74 80 81 77 78 76 75 79 85 86 84 81 78 76 70 62 62 68 63 44 37 44 63 65 55 33 21 14 13 11
75 85 89 81 74 76 78 81 82 80 81 82 81 86 87 82 80 77 80 85 91 88 86 88 85 82 77 72 66 67 58 39 45 67 74 71 61 39 21 14 13 12 11
73 74 80 76 73 76 80 83 86 91 95 96 96 92 92 86 83 80 78 84 94 92 91 93 86 81 75 71 64 64 48 62 76 74 72 62 41 24 15 13 12 13 12
68 76 80 75 74 73 83 90 97 97 96 98 98 98 91 88 80 75 76 80 86 93 94 89 81 79 74 68 68 55 55 64 72 71 61 42 25 15 12 11 11 13 12
69 74 81 85 88 88 89 92 97 99 99 99 96 95 90 81 74 74 77 84 92 92 94 87 83 77 69 63 60 51 64 72 71 63 46 26 15 12 12 11 12 13 17
84 82 83 89 94 94 98 100 99 97 96 98 98 92 84 75 74 77 86 99 97 94 87 85 77 72 64 61 49 54 65 67 63 52 30 16 12 12 11 12 13 14 18
93 95 97 96 97 94 96 94 96 99 99 88 82 79 78 82 88 92 98 96 90 82 86 80 72 71 63 51 47 53 52 58 54 31 14 11 11 11 10 12 13 17 15
92 93 89 85 81 81 83 86 83 79 80 86 90 93 96 96 96 99 100 92 81 85 83 74 77 68 62 55 53 44 54 54 30 13 10 10 10 10 11 12 15 16 13
85 86 83 80 80 79 77 81 87 92 96 97 94 91 94 97 96 98 93 82 82 84 79 80 80 75 63 57 39 53 59 31 14 11 10 10 10 11 11 13 16 14 14
82 85 86 88 88 90 93 96 100 100 100 100 96 92 93 95 96 91 82 83 84 81 80 89 84 70 65 42 45 64 41 17 12 11 11 11 11 11 12 16 15 13 16
93 92 91 88 91 98 98 98 100 95 93 93 90 88 96 97 92 83 82 85 83 84 93 88 72 64 50 37 58 54 26 13 12 12 11 11 12 15 17 17 14 14 16
93 90 88 86 89 96 92 90 93 85 85 93 88 90 94 86 83 87 87 85 84 94 93 85 65 55 35 46 59 43 18 14 13 12 12 13 17 20 19 17 14 15 18
97 93 90 88 84 86 88 88 78 84 94 92 91 95 86 84 89 89 87 84 92 93 82 66 58 38 37 52 49 30 16 15 14 13 15 19 20 20 18 14 14 16 21

GFSGL_250_rhum_075.txt.gz
RH
100 100 100 100 100 100 100 100 100 100 100 90 76 65 47 58 63 66 76 71 41 32 28 27 24 19 20 12 7 9 13 19 34 40 58 86 100 100 100 100 100 100 100
100 100 99 100 100 100 100 100 100 99 81 70 59 51 64 79 92 85 79 42 38 34 30 30 26 20 15 12 6 6 7 10 20 37 51 61 71 84 100 100 100 100 100
100 100 100 100 100 100 100 91 84 78 67 63 65 87 93 96 90 73 46 43 39 38 36 34 30 27 21 16 12 10 10 10 14 29 52 71 84 90 87 88 92 98 99
100 99 100 99 92 82 91 80 79 75 87 88 94 93 93 78 48 50 47 41 42 46 40 39 35 32 34 31 25 20 16 14 18 24 28 43 70 90 95 92 85 80 80
93 86 91 90 92 91 90 78 92 100 92 99 96 90 56 53 49 54 44 44 49 46 45 41 39 39 41 43 40 37 34 34 40 49 49 54 64 71 77 80 83 85 87
90 100 100 100 100 94 99 100 100 100 100 97 71 60 53 52 55 47 48 50 52 48 49 43 42 44 46 47 46 45 46 47 52 57 61 68 72 76 82 86 83 79 78
96 98 99 100 100 100 100 100 100 99 88 66 64 53 58 53 49 55 52 53 52 55 51 46 45 51 56 52 51 50 50 55 60 64 64 66 63 64 64 65 63 64 65
100 100 100 100 100 100 100 100 92 77 69 64 58 60 51 48 52 52 56 53 58 56 51 50 52 53 52 49 50 57 63 66 72 79 80 79 77 77 77 76 74 72 68
100 100 100 100 100 91 80 84 80 78 64 68 60 50 50 57 50 49 54 58 60 58 55 52 51 55 60 60 59 57 59 62 64 64 66 70 75 77 76 74 72 67 64
81 89 89 80 83 87 85 85 69 77 72 55 49 51 56 54 51 52 58 60 63 64 59 59 65 67 65 61 60 61 65 68 72 72 72 76 78 74 62 51 44 39 38
90 92 96 98 97 88 73 80 76 58 52 52 51 60 64 58 57 60 63 64 70 72 69 64 64 64 66 64 64 68 71 72 77 76 72 73 62 42 36 39 48 54 58
100 99 96 92 79 80 74 58 52 56 56 54 59 75 68 65 65 68 72 75 78 70 65 67 71 72 73 74 75 76 76 74 74 69 70 61 50 52 68 73 75 67 57
92 91 82 84 69 55 54 57 61 60 60 70 82 77 71 70 74 80 81 80 77 76 74 76 73 71 74 80 81 81 77 71 68 69 65 48 50 59 68 73 71 64 53
89 88 66 58 60 64 68 70 75 74 78 80 81 78 79 84 85 82 83 82 82 79 78 73 69 69 80 84 81 75 68 68 67 62 47 45 59 70 72 67 60 56 37
69 62 68 71 72 73 80 84 85 77 82 87 89 94 92 84 84 87 87 84 83 84 79 70 72 78 85 81 76 68 64 65 63 49 45 50 54 53 50 49 46 31 18
72 74 71 71 71 72 75 82 78 75 79 84 92 90 87 90 88 84 83 88 89 82 75 77 83 84 83 80 72 65 66 68 56 51 49 45 44 45 44 36 21 14 12
73 70 66 67 65 68 83 89 83 85 94 94 95 90 89 89 87 90 95 91 84 80 78 83 90 92 93 79 66 64 69 65 57 53 43 48 54 47 28 14 11 11 11
63 64 59 59 63 71 84 88 92 95 98 94 88 88 89 93 94 88 82 80 81 82 83 84 91 87 80 69 64 67 69 60 54 49 49 57 48 24 14 11 11 10 10
59 59 61 69 87 92 93 95 96 95 92 94 92 90 92 88 82 80 80 86 88 92 89 87 88 85 72 65 68 70 62 51 46 45 60 48 23 14 11 11 10 10 9
76 75 86 96 94 97 98 98 92 81 80 83 85 85 80 76 80 92 99 90 87 86 86 90 89 76 68 70 70 59 50 43 40 58 52 26 13 11 11 11 10 10 11
100 100 100 100 97 97 93 89 86 82 83 83 84 85 79 86 94 97 90 87 84 83 92 89 79 72 74 70 57 51 46 40 45 55 32 13 12 11 11 10 10 10 12
100 97 96 94 90 89 88 88 88 86 83 81 88 91 93 99 99 94 90 87 90 93 94 85 75 74 74 65 59 54 48 36 54 47 19 13 12 12 11 11 11 15 17
91 90 93 98 95 94 90 88 87 88 88 87 88 93 100 100 94 87 88 92 96 97 89 81 74 78 69 71 71 60 35 43 54 35 15 14 14 14 14 17 18 18 17
92 99 99 98 92 91 86 85 88 86 86 94 96 97 96 97 96 92 95 95 98 93 84 77 82 78 73 75 76 46 36 48 48 24 16 15 16 18 19 21 20 17 15
84 95 99 97 92 85 82 82 85 93 93 90 94 97 100 99 94 94 95 99 98 88 82 81 85 75 79 74 59 36 39 52 42 22 16 17 17 20 20 21 21 16 14
88 88 89 88 90 93 92 88 91 84 81 88 94 94 95 94 95 94 99 100 94 89 84 85 80 77 77 64 38 34 40 51 38 21 19 19 20 21 21 18 18 16 15

GFSGL_250_rhum_078.txt.gz
RH
94 95 95 100 100 100 98 100 100 100 100 97 100 95 100 100 93 88 74 61 45 44 49 62 61 43 40 37 40 36 33 25 19 18 11 10 11 27 35 65 100 100 100
82 84 80 90 90 92 85 89 100 92 100 91 100 90 99 99 84 65 64 44 66 62 80 67 45 43 39 43 40 41 37 35 32 26 19 12 13 20 40 56 92 100 100
68 94 95 100 96 90 96 91 96 75 100 100 99 99 86 73 60 68 57 84 69 91 74 49 46 41 45 44 43 46 40 37 37 36 31 25 24 27 33 44 55 95 100
47 56 86 96 93 92 100 98 95 89 100 96 78 76 69 74 73 81 94 84 89 64 54 49 43 47 49 45 48 43 40 39 41 40 39 40 40 49 55 60 64 70 80
48 65 96 100 100 100 98 100 100 91 89 73 80 83 91 93 99 95 92 85 61 55 52 46 50 52 49 49 49 45 41 39 41 44 43 42 44 45 50 58 65 72 75
33 34 45 64 62 75 89 80 76 74 94 100 100 100 100 100 100 98 77 66 58 54 45 50 53 57 52 56 50 47 45 43 43 47 51 54 58 59 59 61 62 61 56
42 43 58 72 74 89 78 88 78 100 100 100 100 100 100 97 90 68 68 58 53 47 49 51 55 56 54 57 56 52 47 46 50 54 58 60 64 67 70 70 71 72 74
62 75 74 81 100 83 80 100 100 100 100 100 100 97 96 81 72 59 61 50 50 52 53 53 57 57 61 62 57 56 58 61 57 55 59 63 63 63 64 66 67 64 59
97 97 100 100 100 100 100 100 100 100 100 100 94 81 82 73 62 56 51 53 52 54 58 60 62 68 69 69 67 66 66 61 56 56 57 59 60 62 65 64 60 52 42
100 100 100 100 100 100 100 100 100 100 91 85 84 85 66 70 53 53 54 57 63 63 66 71 75 73 76 73 70 68 66 59 57 59 59 58 60 64 64 60 45 39 40
98 100 100 100 100 100 100 98 83 87 80 86 70 73 57 55 58 57 68 69 68 75 77 85 85 85 81 75 73 73 66 62 58 58 59 63 67 65 65 53 49 47 48
71 86 93 96 95 87 80 96 88 85 70 71 59 55 60 60 61 75 76 76 81 81 84 85 89 85 80 81 80 72 64 58 58 62 68 67 66 68 62 55 49 41 38
92 97 98 95 95 100 95 85 75 73 61 60 64 69 72 74 79 80 80 83 85 90 92 90 86 89 92 86 78 66 62 61 67 70 68 69 67 67 55 52 41 40 42
100 96 96 92 91 90 79 78 66 60 73 77 82 85 78 79 83 81 82 87 92 95 95 94 94 95 85 75 66 66 66 73 76 71 72 71 69 60 52 41 38 46 50
96 99 99 96 88 87 78 62 72 74 74 76 78 89 80 77 75 84 87 92 99 98 94 91 86 79 72 69 72 75 77 75 74 78 74 71 58 50 38 38 46 48 38
94 93 96 98 90 73 74 77 74 74 70 73 82 83 80 82 88 88 97 97 95 89 86 85 81 75 74 74 74 76 74 74 80 76 70 54 51 39 37 42 46 31 14
100 100 90 82 75 75 75 73 68 64 65 70 88 95 95 88 87 92 86 81 84 85 84 82 85 86 85 75 71 74 78 84 79 71 54 59 48 38 43 42 27 13 11
98 91 78 76 78 72 69 69 62 61 66 85 95 93 94 90 88 86 81 81 83 81 84 91 93 93 83 76 71 78 83 82 78 61 63 54 41 43 46 31 13 12 11
98 84 75 71 67 63 64 62 64 80 99 100 98 95 84 80 80 81 84 84 87 91 98 98 98 87 83 77 76 82 83 80 72 64 60 45 40 47 39 17 14 12 11
99 90 76 76 77 80 77 81 100 100 99 96 94 90 85 83 86 86 86 92 95 89 98 97 89 87 85 78 82 84 84 80 72 64 53 39 44 47 23 16 14 14 14
94 86 89 97 95 97 98 98 92 93 93 89 87 86 85 85 88 88 94 97 98 92 92 90 86 85 80 81 89 86 82 77 73 60 45 38 48 43 16 18 16 17 21
99 93 89 90 99 96 97 95 93 89 87 86 88 87 84 83 87 95 98 94 90 90 93 86 84 82 83 91 94 87 83 74 68 56 39 38 48 39 18 19 19 20 24
100 98 94 92 96 95 94 92 89 85 82 87 91 86 89 98 97 95 100 96 94 91 87 86 83 82 86 97 96 88 76 68 54 43 36 38 47 38 21 21 22 22 24
99 97 99 96 91 93 95 94 92 88 81 78 86 94 100 99 94 99 96 90 87 86 89 86 86 88 95 98 94 79 71 55 44 37 36 39 44 32 22 23 23 24 24
96 90 83 86 86 86 83 84 83 78 74 75 87 92 92 90 90 91 91 84 88 93 91 88 93 96 99 95 80 66 56 43 37 33 36 41 43 27 20 22 24 23 22
86 84 82 84 88 89 89 89 87 86 90 92 86 83 83 90 94 91 89 93 95 93 90 92 96 100 100 86 61 51 41 34 33 32 36 44 39 23 18 19 20 22 21

GFSGL_250_rhum_081.txt.gz
RH
83 89 88 93 100 100 100 99 100 100 100 100 100 100 100 100 100 100 97 100 87 97 84 77 58 55 71 74 74 51 46 40 39 46 44 38 38 39 39 32 26 24 24
26 41 64 83 91 93 89 87 87 90 93 99 100 100 100 100 98 100 94 98 96 95 72 60 66 80 92 76 55 53 44 42 47 47 47 42 39 38 41 46 50 64 52
16 16 20 38 60 69 77 86 89 87 86 83 82 84 87 93 96 94 95 89 88 63 63 81 88 94 75 59 54 47 45 48 51 52 49 46 42 41 36 37 40 47 51
17 17 17 17 18 19 22 24 25 24 27 37 45 59 93 89 99 89 89 71 66 78 96 100 94 78 60 57 49 47 46 50 53 54 52 50 44 42 43 42 40 40 42
18 18 19 21 21 22 22 22 25 33 42 50 74 88 100 80 85 97 74 80 96 100 100 90 76 64 61 49 48 49 47 53 57 58 54 50 48 47 47 50 51 56 61
15 16 17 18 19 22 26 30 34 45 63 80 70 74 89 88 68 82 100 100 100 100 92 73 69 66 50 50 53 52 57 61 60 62 56 54 52 51 51 53 52 55 59
15 15 16 20 24 30 38 46 48 52 69 67 82 84 93 78 82 100 100 100 100 97 74 70 67 52 50 58 57 60 63 62 66 65 61 61 63 58 56 53 55 56 53
15 18 22 27 29 32 45 68 71 56 75 88 91 86 71 100 100 100 100 100 88 75 72 69 56 53 67 63 68 64 67 68 67 71 76 72 65 60 56 55 56 56 54
26 35 33 47 48 49 56 69 75 73 86 98 84 100 100 100 100 100 97 79 79 74 62 55 56 70 69 70 78 79 77 82 82 78 73 69 64 60 58 58 62 60 57
25 33 41 44 49 70 65 65 76 94 100 100 100 100 100 100 99 86 88 81 75 55 53 57 73 78 73 82 90 89 85 82 79 77 70 66 64 62 61 63 59 56 55
33 50 61 77 98 100 100 100 100 100 100 100 100 100 100 92 93 84 74 61 56 59 62 77 80 77 91 98 95 89 81 76 73 68 67 66 60 65 66 64 60 60 55
47 67 74 90 100 100 100 100 100 100 100 100 99 99 92 85 79 68 59 67 67 69 81 82 89 99 100 98 91 84 78 72 72 68 62 60 66 69 69 68 65 56 50
57 75 87 100 100 100 97 98 100 100 98 100 88 89 81 76 65 72 75 77 75 72 82 92 99 100 98 91 88 77 76 74 74 73 69 63 68 69 72 69 60 56 48
82 85 85 83 84 92 99 100 100 100 99 91 86 84 65 72 75 75 73 76 78 83 97 100 99 94 93 86 77 79 80 82 82 80 72 65 69 72 72 62 56 49 31
98 98 98 100 100 99 99 100 100 100 92 88 79 75 78 75 72 73 81 92 91 98 100 100 95 86 82 80 81 85 83 85 87 77 68 67 73 75 74 57 53 34 32
88 91 97 100 100 100 100 100 96 94 91 79 82 80 78 72 67 68 86 96 100 100 100 93 84 85 85 83 79 78 88 92 85 77 66 73 80 80 66 57 42 31 35
98 100 100 100 100 98 98 100 97 86 81 81 77 76 67 60 64 78 99 100 100 94 87 86 87 84 85 84 74 85 93 87 83 74 66 81 86 76 61 52 33 32 35
95 95 96 98 100 100 97 91 82 82 81 75 70 68 64 68 92 100 100 97 90 88 88 88 89 92 91 82 83 92 91 86 82 68 74 84 86 71 59 40 32 33 34
98 100 100 100 100 93 88 81 74 69 66 65 65 72 95 100 100 99 96 94 92 89 89 92 98 95 86 90 93 88 85 81 76 69 79 85 78 65 47 34 32 35 34
100 100 100 99 96 90 83 76 78 82 79 80 91 99 99 97 95 92 90 89 88 90 97 100 97 96 94 92 84 87 78 79 71 80 84 84 70 56 37 32 33 36 37
100 100 100 100 100 95 92 86 98 96 97 100 96 93 90 86 86 87 90 93 94 94 96 96 100 92 91 84 85 84 81 70 76 86 90 79 59 44 33 33 34 37 38
98 96 100 97 96 94 100 95 92 100 97 93 89 84 82 82 88 89 89 96 98 98 100 98 91 87 87 84 86 86 76 73 84 90 87 59 42 32 31 31 34 39 36
100 100 100 100 100 100 100 100 100 98 92 88 87 90 91 88 89 96 100 95 95 98 96 92 85 84 84 85 88 88 80 86 86 86 58 40 29 29 29 30 34 40 32
100 100 100 100 100 100 100 100 96 89 89 89 89 84 81 85 96 100 95 92 94 94 87 84 86 85 85 91 90 82 88 89 80 50 39 30 27 27 28 30 34 35 25
100 98 97 96 93 97 97 90 84 82 83 88 88 87 86 97 96 84 85 95 92 89 84 86 87 89 96 93 82 81 88 78 48 36 32 28 27 26 27 29 30 25 15
92 89 91 92 88 84 87 92 91 92 99 100 100 99 100 98 92 93 97 94 95 85 86 90 95 98 98 90 86 86 71 41 34 30 28 26 25 25 26 28 23 16 13

GFSGL_250_rhum_084.txt.gz
RH
67 87 90 90 93 95 99 100 100 100 100 100 100 100 100 100 100 100 100 100 100 100 100 99 94 84 92 90 76 62 64 74 72 54 46 43 41 46 52 53 53 51 52
18 26 55 87 100 99 99 100 100 100 100 100 100 100 100 100 100 100 100 100 94 91 87 83 87 90 90 82 72 62 83 83 76 50 44 42 45 48 54 57 57 56 50
19 20 19 21 34 52 70 79 94 96 95 85 70 59 48 54 72 72 61 51 53 55 70 88 82 95 75 87 74 87 89 79 57 47 41 44 48 54 57 62 62 56 50
19 20 19 19 20 19 19 20 21 22 22 21 21 24 33 35 38 47 48 45 59 76 83 82 96 80 97 84 93 91 87 64 53 43 47 50 57 63 67 66 63 57 57
17 17 18 18 19 20 20 19 20 20 20 22 27 27 33 48 42 47 47 52 76 76 98 94 91 96 90 100 94 90 70 60 46 49 55 66 66 68 69 66 63 64 64
17 17 18 18 18 18 18 19 19 22 19 36 42 24 27 24 44 57 74 75 86 87 100 83 100 89 100 93 78 74 68 48 50 62 69 65 73 75 72 71 73 66 62
14 15 15 16 16 17 17 18 24 22 23 22 24 26 36 56 59 69 75 90 98 98 81 100 100 100 89 77 79 66 50 52 69 72 76 79 74 71 75 72 64 60 57
13 14 15 16 16 17 16 17 18 19 20 26 34 41 62 69 89 90 92 100 90 98 100 100 100 87 83 72 61 52 56 75 74 80 82 80 80 78 69 65 65 60 56
14 15 16 17 17 17 17 18 22 24 28 35 58 64 79 83 86 96 100 88 100 100 100 94 90 89 72 58 60 59 77 79 81 80 81 80 73 69 72 67 61 61 55
18 19 19 18 18 18 19 22 30 50 54 56 65 75 80 83 85 89 100 100 100 98 92 98 84 70 60 63 66 83 82 82 83 82 83 73 75 78 70 65 61 61 54
20 19 19 19 20 22 29 34 53 55 58 63 63 88 100 100 100 100 100 100 94 92 97 84 69 69 74 76 79 81 88 86 82 84 76 81 79 71 68 66 63 59 56
21 21 21 21 22 22 23 30 54 61 92 100 100 100 100 100 100 100 100 93 93 93 80 70 74 73 81 79 82 91 88 84 75 74 79 77 71 74 73 68 65 60 61
25 24 22 23 28 42 65 71 79 86 94 100 100 100 100 100 100 100 99 93 90 74 73 75 74 84 86 91 93 87 83 74 74 79 80 72 70 78 76 72 67 63 71
31 32 39 43 55 60 63 77 81 97 100 100 100 100 100 100 99 97 95 88 74 76 76 73 72 96 100 92 86 83 77 84 86 83 74 75 77 82 79 73 65 72 69
72 72 72 73 77 85 89 93 99 100 99 100 100 100 100 97 100 100 85 80 78 74 65 65 80 97 92 88 84 83 88 90 86 81 83 80 84 87 81 72 71 75 59
93 91 94 98 98 96 98 100 100 100 100 99 100 100 100 100 97 84 82 75 68 62 64 82 98 95 88 88 88 92 98 92 90 91 84 82 86 84 75 65 77 69 52
93 98 100 100 100 100 100 100 100 100 100 100 100 100 99 85 82 79 72 69 67 69 96 99 98 90 93 93 95 100 97 91 92 88 82 84 89 83 66 72 75 59 44
88 93 95 95 100 100 100 100 100 100 100 98 95 88 83 77 69 71 69 68 84 100 100 100 92 92 94 100 100 97 95 87 86 83 83 87 86 72 65 77 64 46 37
98 99 100 100 100 96 97 100 99 96 92 88 86 80 71 70 71 70 78 98 100 100 95 90 94 98 100 99 96 94 84 88 94 88 86 85 75 65 78 71 51 36 30
100 98 98 98 97 98 100 98 98 91 86 90 84 82 95 91 91 96 100 100 96 91 90 94 98 100 95 94 91 88 91 95 90 85 83 77 63 74 74 53 37 30 28
99 100 99 97 100 100 100 100 98 97 95 88 90 93 100 95 95 99 98 94 91 91 98 100 100 93 96 88 90 97 94 88 80 82 76 66 71 74 56 36 31 28 27
99 100 100 100 100 100 100 100 100 99 96 98 90 98 100 99 97 97 95 94 100 99 99 96 95 96 89 89 100 92 89 83 78 77 70 72 73 53 36 32 28 25 25
95 96 99 99 100 100 100 100 100 100 100 100 99 100 100 99 97 95 90 90 97 100 98 93 99 93 89 95 85 88 85 79 79 72 74 74 55 35 32 28 25 24 24
93 99 99 100 100 100 100 100 100 100 100 100 100 100 100 100 95 87 85 95 100 92 88 94 90 88 90 84 89 86 85 83 76 73 77 60 36 31 28 24 23 22 23
93 94 99 98 97 98 100 100 100 100 100 100 100 100 100 94 95 93 93 91 82 82 90 90 91 94 90 93 86 92 86 79 73 75 70 43 32 28 25 23 22 22 24
99 93 91 95 96 97 98 100 100 100 100 100 100 100 100 99 94 87 86 86 87 98 97 92 92 94 96 89 96 93 76 69 70 68 46 35 28 24 23 22 21 24 18

GFSGL_250_rhum_087.txt.gz
RH
20 21 24 57 100 100 100 100 100 100 100 100 100 100 100 100 100 100 100 100 100 100 100 100 91 74 52 45 57 59 76 62 80 91 81 72 73 62 54 48 47 50 49
19 21 20 21 34 87 98 100 100 100 100 100 100 100 100 100 100 100 100 100 100 100 91 58 31 46 56 66 64 73 69 91 92 92 71 79 67 54 54 49 55 60 61
16 17 20 21 22 29 42 75 96 100 100 100 100 100 100 100 100 100 100 97 68 40 30 26 58 52 66 66 80 78 100 93 90 72 89 74 58 54 49 57 62 65 73
16 17 18 19 20 21 26 31 35 47 62 67 66 63 58 47 43 40 32 26 30 39 47 63 44 61 77 85 99 95 97 88 76 92 73 64 53 48 60 65 68 77 72
20 19 18 17 18 20 21 21 22 24 24 27 28 25 23 24 24 24 27 32 43 55 48 57 74 92 91 99 93 95 91 81 86 73 61 55 50 61 66 71 77 70 68
20 20 19 18 18 18 18 19 21 21 21 21 21 23 22 28 24 32 33 42 64 38 63 87 83 94 88 91 96 84 84 93 63 61 57 53 61 72 71 82 73 69 59
17 17 17 17 17 19 19 19 21 21 22 22 22 23 27 31 31 38 56 38 39 47 72 78 99 99 88 94 80 100 82 72 71 58 57 65 70 79 86 75 73 66 64
15 16 16 16 16 15 16 17 17 18 21 23 23 25 24 26 33 29 32 44 51 72 75 88 92 89 91 94 100 93 74 77 64 59 68 70 79 85 73 69 67 68 68
18 18 17 16 16 16 17 18 18 19 19 19 19 19 20 22 28 32 42 59 61 66 79 87 84 83 100 100 92 77 81 67 63 68 69 76 79 78 73 70 69 70 67
18 18 18 17 17 18 18 20 20 20 20 20 20 23 23 29 35 50 61 67 81 76 87 76 97 100 100 92 80 85 71 71 73 75 73 77 81 74 72 74 76 71 68
20 21 19 19 18 20 21 22 21 21 23 21 21 26 37 51 66 70 71 68 88 90 96 100 100 100 87 89 83 76 72 75 84 80 82 85 74 74 81 80 77 75 67
24 24 24 22 21 21 22 23 22 22 22 21 22 34 49 58 64 64 74 95 100 100 100 96 99 92 87 85 77 74 71 71 82 87 84 77 79 84 87 80 83 76 70
26 26 25 26 25 24 24 24 24 24 24 25 28 31 40 58 78 91 100 100 100 94 100 96 84 94 89 79 77 69 64 83 92 85 79 80 82 86 85 85 81 74 74
26 26 26 26 25 26 28 29 29 29 35 48 76 85 82 88 99 100 100 100 100 99 90 87 93 91 82 78 66 63 82 97 92 84 80 82 89 91 88 82 83 76 76
41 38 37 35 34 35 36 44 55 62 71 81 78 87 97 98 100 100 100 96 93 95 92 98 88 84 75 71 69 88 100 98 91 86 84 88 98 91 83 86 87 84 76
76 69 68 60 61 58 60 65 67 72 76 83 89 95 100 100 96 95 96 95 93 97 99 83 79 73 76 74 94 100 100 97 91 90 88 94 88 88 87 92 94 84 70
93 92 92 89 87 85 91 90 95 96 98 98 99 100 100 100 100 99 94 99 99 89 80 73 78 75 80 96 100 100 100 95 97 90 95 88 88 90 93 94 92 77 58
93 92 87 94 96 96 95 97 96 93 99 100 100 100 100 97 92 97 97 92 83 76 72 73 77 98 99 100 99 100 96 94 89 89 93 91 93 98 92 87 77 62 63
89 86 87 92 92 95 100 100 100 100 100 100 99 96 93 97 100 98 88 79 83 88 88 97 100 100 99 98 100 98 88 91 87 95 88 92 100 94 85 74 61 59 63
92 93 94 95 99 99 100 100 100 100 100 100 99 99 100 100 95 91 84 92 100 100 100 100 100 100 98 100 100 90 87 83 94 89 93 100 94 84 74 58 58 62 38
88 89 94 99 100 100 100 100 100 100 100 100 98 100 100 100 96 90 90 99 100 100 100 100 100 100 99 100 90 88 82 93 96 97 99 90 87 81 58 56 63 46 30
94 95 96 98 100 99 99 100 100 100 100 100 96 100 100 100 93 90 94 97 97 99 96 100 100 100 100 92 87 87 99 97 95 96 93 92 90 66 55 63 54 33 28
94 94 95 96 98 100 100 100 100 100 99 99 98 99 100 100 98 97 100 100 99 96 94 92 96 98 98 98 97 100 90 88 96 98 93 96 76 61 61 56 37 30 24
88 90 94 98 97 100 100 100 100 100 100 100 99 100 100 100 100 100 94 99 100 99 91 95 100 100 96 92 92 87 93 98 97 93 99 88 68 63 62 42 30 24 22
89 86 88 91 93 95 99 100 99 97 97 100 100 100 100 100 100 100 98 96 94 94 90 93 95 94 91 93 89 96 97 94 94 98 95 77 63 64 52 33 26 22 22
97 94 91 92 94 89 87 93 100 99 99 100 100 100 100 100 100 100 100 100 93 91 90 90 95 98 97 91 94 95 93 96 100 100 79 63 68 58 38 29 23 22 23

GFSGL_250_rhum_093.txt.gz
RH
24 24 23 22 21 21 33 77 100 100 100 100 96 99 97 100 100 100 100 100 100 100 100 100 100 100 100 100 100 100 100 100 100 100 87 59 50 37 49 53 58 62 68
23 22 21 20 21 21 20 20 55 100 100 100 100 99 100 100 100 100 94 100 100 100 100 100 100 100 100 100 100 100 100 100 96 86 54 41 35 48 58 69 64 69 79
25 23 22 22 22 21 22 22 21 28 53 75 85 93 95 100 100 100 100 100 100 100 100 100 100 97 100 100 100 88 95 86 76 49 44 36 49 52 68 71 69 86 81
21 22 22 22 23 22 23 22 22 21 22 24 24 24 24 25 29 34 33 29 30 32 32 38 45 62 70 68 60 58 51 64 46 40 33 43 48 61 75 74 88 87 79
22 20 20 21 21 22 21 22 22 22 22 23 24 25 25 25 25 26 26 26 27 31 35 57 52 51 62 62 45 47 45 36 39 39 40 44 68 84 79 82 92 74 73
18 21 21 20 20 20 21 22 23 23 22 23 22 23 24 23 23 25 26 25 26 31 37 33 37 44 43 42 38 35 39 37 37 41 42 78 82 85 89 100 88 82 71
14 15 15 16 17 19 20 20 21 21 23 23 23 24 24 24 24 26 27 28 32 32 33 39 39 36 30 32 32 32 34 36 37 41 51 67 80 90 94 93 80 70 71
15 15 15 15 15 15 17 18 18 19 20 20 21 22 24 25 24 25 25 24 25 28 33 32 33 30 32 34 29 30 30 31 42 48 66 76 89 100 92 78 79 74 71
16 16 16 16 16 16 17 17 17 18 18 19 20 20 21 22 22 22 22 24 30 34 38 38 30 28 24 24 27 26 37 50 59 72 83 95 98 95 81 78 78 77 70
16 14 14 15 15 16 16 15 16 16 15 16 17 19 20 20 21 21 22 25 28 30 31 26 24 25 28 26 30 40 56 70 74 94 99 100 96 84 83 78 84 76 64
24 21 20 17 18 18 18 18 19 19 19 19 20 21 21 21 20 21 21 23 24 24 25 27 26 28 31 43 49 61 72 84 90 100 100 96 80 88 82 86 76 68 86
28 24 21 20 22 22 21 21 22 21 22 23 24 23 23 24 24 23 23 24 26 26 28 28 33 34 37 61 56 76 94 91 100 96 91 86 86 83 87 78 68 83 92
28 26 26 23 21 20 22 22 22 24 25 25 27 28 28 28 27 28 30 28 28 29 32 38 40 45 63 66 85 87 99 100 95 90 93 87 87 92 78 70 82 89 85
43 40 36 34 31 28 26 24 23 23 24 26 27 26 27 29 30 29 28 31 32 37 42 45 54 78 82 84 93 100 100 95 100 94 84 88 90 77 72 84 91 83 83
56 58 52 55 49 46 37 32 29 28 30 30 28 28 28 28 29 30 31 32 36 40 49 57 77 91 95 100 100 100 100 100 94 88 86 81 74 70 82 92 86 84 84
74 78 70 71 61 59 61 52 44 42 38 38 37 34 35 37 38 40 43 48 55 61 78 88 95 99 99 100 100 100 100 93 82 81 74 70 78 86 92 92 83 88 90
78 83 86 81 78 78 78 72 64 58 52 48 47 49 54 58 61 68 70 73 84 92 90 96 97 99 100 100 100 100 95 86 74 72 84 90 89 86 89 82 86 92 96
65 74 78 81 86 87 84 84 81 83 84 75 71 70 69 72 76 82 84 98 92 94 97 100 100 100 100 100 100 99 90 76 81 91 93 88 88 90 84 88 92 93 93
56 60 66 71 78 79 84 87 89 86 88 88 87 86 81 86 91 94 97 98 100 100 100 100 100 100 100 100 100 92 78 83 89 94 92 91 97 95 90 94 93 95 93
70 68 62 60 64 76 78 78 82 86 88 90 93 91 94 97 98 96 100 100 100 100 100 100 100 100 100 100 100 83 81 87 92 96 99 99 100 95 92 92 98 96 100
90 90 86 70 61 61 67 80 85 85 90 93 93 91 96 100 100 100 100 100 100 100 100 100 100 100 100 100 100 93 84 85 94 100 100 100 99 90 92 99 100 100 95
90 91 92 87 82 74 72 75 81 90 92 94 90 88 93 99 99 97 99 100 100 100 100 100 97 100 100 100 100 97 84 87 91 94 98 97 91 93 99 100 100 92 94
79 81 89 95 93 89 85 83 84 89 92 93 93 94 96 100 98 96 99 100 100 100 99 98 100 100 100 100 100 90 86 84 86 92 92 92 92 96 97 100 93 94 96
82 77 76 76 78 83 89 90 89 87 85 90 92 94 97 100 100 98 95 94 94 94 95 98 100 100 100 99 94 87 86 85 91 90 88 86 92 92 94 94 94 97 94
87 86 85 83 83 81 76 77 82 84 87 87 86 87 91 96 100 100 97 93 92 95 100 99 98 97 93 89 90 94 94 93 95 88 81 90 97 91 94 97 98 97 92
64 73 76 82 90 91 91 91 88 83 79 75 76 78 80 83 86 91 95 99 100 98 95 92 92 92 92 97 100 96 94 95 93 90 90 98 97 96 94 98 98 96 97

GFSGL_250_rhum_096.txt.gz
RH
18 20 23 25 26 25 24 22 23 26 33 54 68 91 100 100 100 100 100 100 100 100 100 100 100 100 100 100 100 100 100 100 100 100 99 71 47 36 38 46 42 51 39
20 21 20 21 27 28 26 24 24 25 26 26 28 42 57 100 100 100 100 100 100 100 100 100 100 100 100 100 100 100 100 100 100 45 42 49 48 35 42 39 44 41 40
21 20 20 19 20 23 25 25 25 24 24 22 23 24 24 32 74 100 100 100 100 100 100 100 100 100 100 100 100 98 72 37 38 36 58 39 32 38 40 41 38 41 40
23 22 21 20 20 20 20 23 23 26 24 22 23 22 23 24 25 33 70 90 100 100 100 100 100 100 92 59 36 29 33 39 35 41 36 36 37 35 35 34 37 41 58
24 23 23 22 21 20 20 20 20 22 23 23 23 23 22 22 23 24 26 28 33 44 51 49 37 31 30 29 31 32 33 39 35 44 43 33 35 29 30 39 44 49 72
17 20 22 23 24 24 23 22 22 22 23 24 23 22 22 22 23 24 24 24 25 26 28 28 28 28 28 29 31 32 32 38 33 39 40 33 28 27 34 44 58 81 84
15 15 16 17 20 22 23 22 22 22 22 22 21 20 20 22 23 24 26 27 27 28 29 29 28 29 29 30 32 32 41 47 48 43 31 25 27 33 53 58 78 95 96
16 16 17 16 16 16 17 18 20 20 21 22 23 23 23 24 23 23 23 24 26 27 27 29 28 28 28 27 29 36 44 68 58 33 25 30 39 48 61 82 92 98 91
15 14 14 14 16 17 18 17 16 16 16 16 17 18 19 20 22 23 24 24 23 25 27 28 30 31 31 31 34 47 52 58 49 25 32 38 52 68 86 92 92 93 73
17 16 15 14 14 15 14 15 16 16 16 16 16 17 18 18 18 18 19 20 22 23 24 27 27 27 28 30 33 40 42 36 28 32 41 57 73 86 86 90 92 77 84
26 25 23 20 18 15 14 14 14 14 15 15 15 15 16 17 18 18 20 22 23 24 25 26 27 28 29 30 29 30 28 32 34 48 56 69 88 85 90 96 84 86 80
42 38 33 28 24 22 19 19 18 18 18 18 17 17 18 19 21 22 23 24 25 24 25 28 28 27 27 28 31 33 42 42 50 66 73 81 82 90 96 92 92 79 82
52 50 42 36 35 32 28 26 24 21 19 20 24 26 26 25 24 24 25 25 27 29 30 30 31 33 36 38 42 54 61 58 73 82 81 84 85 96 91 90 81 81 77
50 44 42 40 36 29 26 25 21 20 20 19 20 21 22 24 24 25 26 27 29 30 32 32 34 44 48 49 65 76 73 72 75 86 88 88 94 98 91 79 79 79 90
49 45 42 39 37 36 36 32 30 32 30 29 28 25 24 24 27 27 28 29 31 33 35 38 38 43 47 50 64 77 76 82 83 88 95 97 95 95 79 80 91 98 90
42 39 38 40 44 45 52 50 50 50 50 42 39 40 41 40 39 36 35 37 37 38 39 41 43 53 64 72 78 79 81 83 94 96 98 96 95 84 78 93 100 94 85
45 47 46 44 51 54 57 62 68 67 61 58 54 54 53 51 50 48 47 48 55 61 62 65 69 76 85 86 88 91 96 94 95 99 100 98 94 78 87 99 98 91 89
44 44 48 56 62 65 66 64 72 79 79 80 75 73 70 66 65 70 74 77 80 80 79 81 86 90 93 93 96 98 95 96 98 100 98 100 83 81 90 99 95 94 94
47 47 46 47 55 65 70 73 75 79 86 88 86 80 79 74 79 82 85 88 90 93 95 98 98 100 100 100 100 98 92 98 100 100 100 94 83 89 99 94 93 96 99
74 58 56 58 58 55 61 72 83 83 80 81 83 89 89 90 88 90 94 95 97 99 100 100 100 100 100 100 98 96 100 100 97 100 100 100 96 91 95 97 92 94 92
84 88 84 82 76 73 78 81 75 66 66 77 86 84 89 94 96 98 100 100 100 100 100 100 100 100 100 98 100 100 100 100 100 100 100 100 99 91 92 96 97 97 95
83 86 91 93 88 86 86 88 89 89 82 69 65 70 82 90 94 98 100 100 100 100 100 100 100 100 100 100 100 100 100 99 97 100 100 99 96 93 94 93 98 96 88
93 90 85 83 82 80 86 86 85 88 90 86 82 79 76 83 89 92 97 98 100 100 100 100 100 100 100 99 100 100 100 98 95 99 100 100 94 90 93 96 95 93 89
78 80 82 84 87 86 80 76 78 80 83 87 91 91 88 88 91 92 94 92 93 98 100 100 100 100 100 100 100 100 100 100 97 96 98 97 92 87 97 100 99 97 98
61 57 57 62 66 74 84 88 89 87 87 88 84 82 85 91 94 96 99 98 95 95 100 100 100 100 100 100 100 99 99 100 100 97 98 99 97 97 100 100 100 99 97
34 36 34 32 32 33 39 55 73 81 88 92 95 98 97 92 90 92 95 98 100 98 97 98 99 100 100 100 100 100 97 98 97 95 99 100 100 100 100 98 94 92 94

GFSGL_250_rhum_099.txt.gz
RH
24 24 25 26 28 30 28 28 28 26 25 23 22 22 22 23 26 60 90 96 100 100 100 100 100 100 100 100 100 100 100 100 100 100 100 100 100 100 100 71 35 30 28
25 24 23 23 22 23 26 28 27 27 27 26 25 24 24 23 23 26 45 71 79 87 97 100 100 100 100 100 100 100 100 100 100 100 100 100 100 100 50 36 32 29 31
25 24 23 23 22 21 22 24 26 27 28 28 28 26 22 24 24 25 25 25 30 30 36 47 74 82 91 97 100 98 100 100 100 100 100 100 92 40 34 36 33 36 37
26 24 24 23 22 22 21 21 21 22 23 25 27 25 28 26 26 27 28 27 28 30 29 30 34 35 32 33 46 88 89 100 100 81 59 42 36 34 35 34 35 38 35
30 29 27 25 24 23 23 22 21 21 22 22 22 22 24 26 26 28 29 28 29 29 30 30 30 30 30 31 33 34 34 35 36 39 35 33 35 34 34 30 40 44 39
29 30 29 28 27 25 23 22 21 21 23 22 21 22 22 22 24 25 24 24 28 30 31 30 29 30 31 30 32 32 31 34 33 35 36 35 33 35 34 37 42 41 31
22 22 22 22 21 22 23 24 24 24 24 24 24 24 24 24 24 23 23 24 24 25 26 28 30 30 31 31 33 34 33 33 35 37 34 34 34 35 34 44 56 37 40
18 18 19 19 17 16 16 16 17 18 19 21 22 22 23 24 24 24 24 25 26 26 26 26 27 28 29 31 31 32 33 32 34 38 36 38 36 33 54 55 40 46 62
18 18 18 18 19 19 18 18 17 17 18 18 18 18 18 18 18 19 21 24 27 27 28 28 29 29 30 31 33 32 31 33 35 38 35 32 31 46 55 44 46 75 89
20 19 18 16 15 15 16 16 16 16 16 16 16 17 17 17 17 16 17 17 18 19 20 21 21 23 25 28 29 31 31 32 30 30 29 30 38 41 53 56 78 80 92
28 26 24 22 20 20 20 18 16 14 13 13 14 15 16 15 15 16 16 17 18 18 19 20 22 22 23 25 26 28 30 30 31 29 30 32 44 63 69 75 82 87 94
40 34 36 34 36 35 32 26 20 18 16 14 14 14 15 14 15 16 18 18 18 18 18 20 21 23 25 26 27 28 29 29 32 34 35 47 69 74 84 88 100 96 96
57 59 57 53 46 47 37 32 31 28 28 27 25 23 21 21 20 20 20 22 23 23 23 23 24 26 28 29 30 31 33 39 40 42 54 75 82 84 100 98 93 97 93
75 76 67 63 56 52 44 40 38 36 32 30 28 23 21 20 20 19 19 20 21 24 26 27 27 28 29 31 34 36 41 44 52 62 80 84 91 95 100 100 97 93 90
72 72 60 54 50 44 41 40 41 41 39 34 32 31 28 27 29 29 29 30 28 27 29 30 32 33 37 42 43 47 50 60 77 79 81 91 96 97 98 100 99 92 93
49 42 34 33 34 38 40 41 41 44 45 45 48 44 42 44 47 43 42 45 44 44 39 38 39 40 44 51 55 62 69 73 81 84 88 92 98 100 100 99 95 98 94
46 45 43 41 46 48 44 44 48 50 48 54 55 60 61 60 64 62 61 60 58 61 59 59 57 58 59 61 64 71 77 86 84 88 97 100 100 100 100 100 100 100 86
50 50 50 49 47 46 46 46 47 51 60 62 68 65 76 80 75 74 74 77 74 67 69 75 77 80 84 87 86 89 95 96 96 100 100 100 100 100 100 100 100 100 94
51 50 50 48 47 46 46 47 47 47 54 60 67 73 77 80 81 82 87 85 85 83 85 85 84 84 87 93 100 100 100 100 100 100 100 100 100 100 100 100 100 100 100
71 75 84 85 84 87 82 66 63 58 51 51 58 66 79 86 85 87 90 87 82 86 93 96 99 99 98 98 98 97 99 100 100 100 100 100 100 100 100 97 100 100 100
85 84 84 82 81 88 92 88 73 72 74 68 66 69 77 86 82 88 90 94 96 95 94 97 100 100 100 100 100 100 100 100 100 100 100 100 100 100 100 100 100 100 100
83 86 90 86 81 82 84 81 83 89 93 92 90 91 93 96 96 91 90 91 94 96 96 100 100 100 100 100 100 100 100 100 100 100 100 100 100 100 100 100 100 100 100
80 81 86 88 88 84 81 81 84 85 85 89 92 94 96 100 100 99 95 93 92 93 94 98 100 100 100 100 100 99 100 100 100 100 100 100 100 100 100 100 100 100 100
57 62 70 72 73 75 76 73 76 82 88 92 92 90 90 91 95 98 100 100 100 99 95 97 100 100 100 100 100 100 100 100 99 100 100 100 100 100 100 100 100 100 100
38 37 38 41 45 48 52 56 59 63 66 71 80 90 95 97 97 96 95 97 100 99 99 100 100 100 100 100 100 100 100 100 100 100 100 100 100 100 100 100 100 100 100
29 28 28 28 29 29 28 29 30 33 34 36 41 46 54 69 87 94 96 99 100 100 100 97 98 99 100 100 100 100 99 98 99 100 100 100 100 100 100 100 100 100 100

GFSGL_250_rhum_102.txt.gz
RH
50 45 46 40 38 34 31 33 40 41 39 34 33 36 33 27 28 25 28 26 24 23 24 26 32 52 59 59 66 96 100 100 100 100 100 100 90 100 100 100 100 86 98
48 44 39 36 36 34 33 32 31 32 36 38 37 37 34 34 33 30 26 27 28 24 23 23 24 25 28 38 63 83 100 95 80 95 100 100 83 91 80 71 54 47 48
49 43 40 36 33 31 30 28 27 26 26 27 30 34 36 35 34 34 33 32 27 25 26 26 26 28 29 33 36 39 41 47 53 78 85 61 62 50 39 39 37 40 40
49 41 36 32 31 31 30 28 26 26 24 24 23 24 26 30 30 30 31 30 30 28 27 25 28 30 32 33 35 40 44 40 40 37 47 44 39 39 37 37 36 41 41
50 44 37 36 33 31 30 29 28 27 25 24 22 22 21 23 25 26 27 28 27 26 26 30 30 27 28 28 31 33 35 37 37 36 38 38 39 39 38 37 37 43 40
44 41 42 41 38 35 33 32 31 29 28 27 25 24 23 22 22 23 23 24 24 24 24 25 25 25 27 28 29 32 33 36 35 35 39 41 38 40 36 37 40 43 43
46 48 44 36 33 32 31 30 29 29 28 27 27 27 25 24 23 23 23 23 24 24 25 26 26 27 28 28 28 30 31 33 32 34 35 37 36 38 41 39 42 39 38
42 36 30 28 27 29 27 26 24 23 24 24 24 25 25 25 24 23 24 25 24 24 24 26 27 28 28 28 30 30 32 33 32 34 34 37 38 38 40 42 38 35 34
35 30 27 26 26 22 22 21 22 21 20 19 20 20 18 18 17 17 16 15 15 15 16 18 19 20 26 30 28 29 28 31 32 33 32 34 35 36 37 34 34 33 36
37 36 31 29 25 24 22 21 22 22 21 20 19 18 18 17 17 16 16 15 15 15 16 16 15 16 16 18 20 22 23 23 23 25 27 29 32 34 34 33 34 37 50
38 37 32 30 27 23 22 20 20 20 19 19 18 16 15 15 16 16 15 14 14 13 14 15 15 15 16 16 17 19 20 22 24 25 25 28 30 32 34 37 41 53 69
39 40 40 36 32 28 29 28 27 28 29 25 22 16 15 15 16 17 17 16 16 15 14 15 15 15 16 17 19 21 23 25 28 30 30 32 35 40 41 50 62 77 78
58 55 52 51 54 56 52 47 40 39 35 33 29 26 26 24 24 26 23 23 22 18 16 18 18 19 20 21 25 27 31 34 33 32 35 39 44 51 58 73 83 83 86
79 81 76 78 83 74 67 58 48 45 44 40 34 35 32 31 29 29 29 25 23 23 22 21 22 22 23 25 28 31 35 36 38 42 42 51 69 77 85 94 90 91 98
72 77 77 83 82 79 68 54 47 45 46 40 37 33 32 32 36 35 36 37 37 39 35 32 29 28 30 30 32 35 39 48 55 59 62 70 70 87 87 89 90 100 100
81 85 82 76 72 65 54 47 50 45 37 37 32 36 41 41 45 48 44 51 52 55 52 43 41 41 38 40 43 46 49 53 62 70 72 82 86 90 91 92 100 100 100
66 63 61 58 51 46 38 42 45 43 42 42 43 45 48 53 55 59 56 60 66 69 66 66 64 62 60 58 64 61 58 62 67 68 76 87 92 96 94 99 100 100 100
53 47 46 42 42 45 47 48 46 44 43 42 43 47 49 53 57 62 68 74 72 79 86 81 81 88 87 83 84 86 88 92 92 92 92 92 97 100 100 100 100 100 94
53 51 52 50 49 49 49 46 46 45 44 46 46 46 48 50 50 57 65 74 84 84 85 90 90 88 86 94 94 93 94 95 96 99 100 100 100 100 100 100 100 96 97
56 58 58 58 60 60 64 72 80 89 87 86 82 78 68 64 59 55 59 66 78 86 89 88 91 100 99 99 99 99 100 100 100 100 100 100 100 100 100 100 96 92 92
61 63 66 71 76 82 94 96 94 90 86 86 88 93 96 84 77 76 79 74 73 83 84 87 90 91 97 100 99 98 99 100 98 98 99 99 98 100 100 96 92 88 97
78 73 78 84 88 90 92 92 88 89 89 89 86 86 91 98 100 100 96 95 97 98 96 96 92 90 93 96 100 100 100 100 100 99 100 100 100 100 100 100 98 100 100
79 80 86 88 86 88 89 90 89 86 86 88 89 89 88 90 92 95 98 97 98 100 100 100 98 96 91 89 93 98 100 100 100 100 100 100 100 100 100 100 100 100 100
69 73 75 77 82 82 81 83 85 86 87 82 78 83 90 92 95 98 95 92 94 93 94 98 100 100 100 100 100 99 100 100 99 100 100 100 100 100 100 100 100 100 100
60 61 60 59 58 58 58 58 60 59 62 65 67 67 67 67 69 71 80 92 96 97 96 94 91 92 95 96 99 100 100 100 100 100 100 100 100 100 100 100 100 100 100
44 45 44 43 41 39 37 36 35 34 31 32 32 32 35 37 38 38 41 47 55 67 84 92 96 96 93 90 89 89 92 94 98 100 100 100 100 100 100 100 100 100 100

GFSGL_250_rhum_105.txt.gz
RH
70 73 79 84 100 100 97 96 87 99 91 71 69 67 64 59 54 54 53 50 45 49 50 49 45 39 31 27 27 27 29 29 36 40 52 58 64 64 82 82 94 95 83
57 57 68 76 72 80 70 72 65 68 88 96 69 55 50 55 58 50 43 44 46 48 51 47 40 37 34 32 32 31 32 30 30 31 33 35 38 39 43 48 53 75 72
50 59 64 83 77 64 58 58 57 53 51 50 48 47 43 40 38 40 35 32 40 42 41 40 40 40 38 37 34 30 26 28 28 31 33 37 41 43 47 45 43 46 43
61 70 72 64 64 61 55 54 55 51 47 46 46 43 40 37 34 32 30 29 30 30 32 32 32 31 30 31 32 30 31 30 30 28 28 31 33 35 42 38 40 40 42
60 63 55 51 48 46 45 44 44 44 43 40 39 37 35 33 31 30 29 28 26 27 28 27 27 27 28 28 28 28 29 30 31 30 30 31 32 34 34 38 40 40 39
51 49 43 39 40 43 43 46 42 44 38 37 37 37 33 33 32 31 29 28 28 27 25 24 25 26 26 26 27 27 27 26 26 26 27 29 32 34 34 35 35 36 40
40 41 41 46 46 49 49 44 42 43 40 38 36 37 37 36 34 31 29 28 26 26 25 25 24 24 24 23 22 23 24 24 26 27 28 31 32 32 32 35 36 39 41
42 42 46 51 58 58 60 48 44 42 43 42 35 32 31 31 30 30 28 27 26 25 25 25 24 24 24 23 23 23 23 23 25 28 29 31 33 34 36 35 37 38 39
36 36 38 47 57 56 50 46 45 42 34 25 26 28 28 26 25 22 21 20 20 18 18 17 16 15 15 14 14 14 15 16 17 18 20 21 25 24 25 25 27 32 34
36 40 46 46 44 43 43 42 34 27 25 25 25 30 28 27 24 22 20 18 18 18 17 16 15 15 15 14 14 14 14 15 16 17 16 18 20 22 25 26 27 31 36
38 42 43 46 46 42 36 30 33 31 34 32 32 25 31 28 23 20 18 17 16 16 15 15 14 14 14 13 13 13 13 13 13 15 16 17 20 25 28 30 32 36 44
26 30 34 38 41 36 36 49 51 48 40 37 31 27 24 22 22 20 18 18 17 17 20 19 17 16 16 15 16 17 16 16 16 18 20 25 30 34 37 41 47 48 51
37 41 46 47 54 66 59 56 55 52 47 43 39 30 29 30 28 28 27 27 26 27 28 27 24 22 20 19 19 18 18 22 24 26 30 34 44 50 54 53 54 64 72
53 62 67 68 67 60 51 48 51 54 62 55 47 44 36 34 36 39 39 39 35 34 33 34 32 28 24 23 23 24 25 26 27 31 38 43 51 60 64 67 80 81 84
56 56 58 58 61 65 65 70 77 76 73 72 56 44 45 45 40 42 34 34 34 36 36 42 41 45 41 46 45 43 39 36 35 37 42 48 55 67 83 89 90 92 95
72 73 74 74 74 76 80 83 85 81 73 63 56 50 46 43 35 33 34 38 40 44 43 47 54 60 62 72 70 59 52 52 51 51 54 62 70 81 90 93 96 95 97
85 85 84 84 83 84 86 83 79 71 61 56 46 47 55 48 48 45 42 47 47 50 55 61 67 77 86 86 86 80 76 80 82 79 80 81 84 89 89 88 96 96 98
74 72 69 68 70 76 78 68 58 51 49 46 53 57 55 51 46 44 44 45 48 52 56 64 73 79 89 94 94 88 90 93 90 92 94 95 97 99 100 100 100 100 100
56 54 56 58 55 56 55 52 48 49 53 52 53 53 57 57 60 55 54 50 47 48 51 55 66 76 82 89 98 99 100 99 99 99 100 100 100 100 100 100 99 99 100
52 50 52 52 52 52 51 52 52 54 57 56 57 62 80 84 80 84 87 86 80 68 63 59 61 66 78 82 83 94 100 100 100 100 100 100 100 100 100 99 100 100 100
63 62 62 61 58 56 54 52 55 58 63 73 75 83 88 94 89 83 75 79 90 90 76 72 76 77 75 80 86 82 80 88 99 100 100 100 100 100 100 100 100 100 100
77 79 79 81 80 75 72 71 65 66 68 77 88 90 90 93 87 77 76 77 79 87 92 94 94 92 90 94 98 99 98 91 86 96 100 100 100 100 100 100 100 100 99
68 78 81 82 84 85 83 81 82 75 74 84 88 85 82 87 91 90 90 91 89 84 84 89 92 93 94 92 94 99 100 99 95 88 87 92 98 100 99 98 95 93 93
50 59 64 69 75 78 79 82 84 84 83 81 80 78 76 75 78 82 85 86 91 96 97 94 95 92 87 88 90 92 95 94 97 99 95 92 96 97 97 98 99 99 97
29 36 43 50 56 62 68 72 75 78 79 78 79 78 76 73 69 66 66 69 73 76 77 82 88 91 94 98 98 96 95 93 91 91 91 94 99 100 100 100 100 100 100
22 25 30 35 40 45 50 54 56 57 58 60 59 58 56 52 48 46 43 42 43 44 44 44 46 51 56 65 72 84 95 99 100 100 100 99 100 100 98 96 95 94 94

GFSGL_250_rhum_108.txt.gz
RH
100 89 84 100 100 98 98 74 90 100 100 100 100 100 90 100 100 100 94 89 70 69 76 79 69 69 64 52 47 44 45 43 37 35 31 36 39 39 38 36 39 40 41
100 100 87 99 100 100 94 100 100 100 100 100 96 83 74 68 61 56 56 67 73 80 79 68 66 62 56 50 48 54 54 41 36 40 42 42 42 39 36 32 31 35 37
81 97 100 100 100 99 94 88 83 82 76 82 93 77 78 72 76 61 56 60 58 59 56 69 78 63 56 46 40 40 40 37 33 36 33 31 36 31 30 32 33 37 36
84 86 89 100 93 95 96 98 96 95 98 100 99 96 88 78 65 60 60 55 49 46 44 47 46 42 39 37 34 33 32 30 28 27 28 29 29 30 31 31 33 33 34
67 72 77 89 93 100 98 89 99 100 99 100 96 85 74 56 50 50 48 44 43 42 43 41 39 36 34 31 30 28 27 27 26 26 25 25 26 27 28 30 31 31 34
35 34 35 42 52 53 61 69 76 78 80 83 71 65 59 57 54 50 49 47 42 42 38 34 31 28 27 29 28 26 26 24 23 23 24 25 27 29 29 31 31 32 34
43 48 43 48 57 53 53 51 54 55 58 56 51 46 44 41 41 42 41 41 41 38 35 30 26 25 26 24 22 21 22 23 23 24 24 25 27 27 27 27 30 34 35
63 58 69 58 60 53 62 59 47 46 44 38 35 34 35 36 37 42 42 40 39 33 26 23 21 18 18 18 17 15 15 15 15 15 16 17 18 18 18 18 20 22 25
86 79 80 75 66 59 54 50 43 38 36 33 36 42 43 39 39 35 30 37 27 26 24 21 19 17 17 16 15 15 14 14 14 14 14 14 15 16 17 17 18 20 21
81 68 68 51 46 43 45 41 41 48 47 52 52 48 41 33 32 29 36 28 26 25 24 22 19 17 16 15 15 15 15 14 14 13 13 13 14 14 15 15 19 19 22
35 39 41 41 44 58 48 47 53 52 50 48 51 48 47 37 34 35 35 32 28 24 23 22 20 19 19 18 17 17 17 16 17 16 15 15 16 17 17 18 22 24 30
33 31 35 44 48 51 50 46 42 42 52 62 60 55 40 42 41 46 43 38 35 30 29 29 27 25 25 28 28 28 26 24 25 23 22 23 26 27 27 29 32 35 46
31 36 36 35 34 34 32 37 43 49 50 53 49 42 49 47 56 51 46 41 39 35 37 36 34 34 36 35 36 34 31 29 25 22 24 25 27 29 32 36 41 48 57
32 34 37 38 39 39 41 49 54 55 53 43 47 58 65 57 60 54 46 40 36 42 44 37 35 38 35 37 40 40 36 38 37 39 41 42 39 38 38 43 52 58 66
32 33 36 40 42 44 48 56 57 57 59 64 67 66 78 67 58 52 50 45 47 50 40 33 35 32 32 36 48 48 52 56 57 61 58 54 54 52 50 58 63 66 75
38 39 42 48 51 53 60 66 68 67 73 76 72 64 64 64 68 60 53 53 53 40 37 34 36 35 40 40 46 56 67 76 79 79 79 72 70 72 68 69 80 83 83
54 53 54 57 61 65 68 70 69 64 64 69 74 75 80 76 73 62 58 53 43 43 43 42 43 44 44 46 54 64 83 82 86 91 88 85 83 85 89 90 94 95 93
76 77 77 76 74 74 75 81 83 86 90 89 85 85 84 80 67 53 53 56 54 46 42 40 41 43 44 47 52 61 78 86 86 94 98 96 96 91 95 99 100 100 100
79 81 81 81 83 86 87 89 88 87 86 84 81 79 69 64 59 57 64 64 54 49 48 52 55 58 52 50 52 56 70 86 92 96 97 100 100 100 99 100 100 97 99
62 67 74 77 78 79 79 80 75 70 70 64 64 58 57 66 67 65 62 61 59 68 74 78 81 86 90 83 69 65 65 73 86 94 100 99 100 100 99 96 99 99 97
53 57 62 64 66 64 65 61 55 52 51 53 56 58 64 69 68 62 60 65 72 85 88 86 80 80 83 92 92 82 76 77 78 84 90 100 100 100 100 100 100 100 100
38 47 56 63 66 68 68 68 66 64 63 66 68 68 66 62 57 55 58 67 82 90 87 87 85 81 82 83 88 94 97 94 90 89 92 97 98 100 100 100 100 100 100
17 25 33 43 55 63 67 73 80 81 81 80 80 80 76 76 78 77 73 74 84 85 86 90 94 96 96 96 93 91 93 93 97 100 99 99 100 100 100 100 100 100 100
12 15 19 24 34 44 52 60 67 66 65 68 71 68 65 67 72 78 78 78 75 76 80 84 89 90 94 96 98 100 100 99 98 97 95 99 100 100 100 100 100 100 100
10 11 13 15 21 26 32 40 50 55 59 63 66 66 66 63 59 60 64 68 68 64 62 63 65 65 65 71 82 88 92 95 98 100 100 100 100 100 99 100 100 100 100
9 10 11 12 12 14 19 25 31 36 43 48 52 54 54 57 57 56 55 58 60 59 59 54 46 44 45 44 42 43 47 51 55 64 77 87 90 93 92 94 94 94 96

GFSGL_250_rhum_111.txt.gz
RH
100 100 100 92 100 100 100 100 100 100 100 90 89 85 100 97 100 100 100 100 100 100 100 100 100 92 100 100 92 85 68 60 56 55 57 62 57 57 63 56 45 42 47
100 100 100 100 100 100 99 94 89 96 100 100 100 100 100 100 100 100 100 100 100 100 100 100 98 89 83 69 62 58 56 48 41 42 42 46 46 47 43 41 40 39 38
93 100 100 100 100 99 100 100 96 82 93 100 100 100 100 100 100 100 100 100 100 100 100 97 85 82 73 64 55 50 49 40 36 37 35 36 36 36 32 31 31 33 36
100 100 100 100 100 80 80 99 91 100 99 100 100 100 100 100 100 100 100 100 100 96 93 93 65 53 47 40 44 40 38 38 34 30 30 31 31 29 28 28 31 33 33
100 100 100 100 100 100 100 100 100 100 100 100 100 100 100 100 100 100 100 100 100 100 78 67 60 47 46 49 43 42 37 33 32 33 30 24 22 22 24 26 28 29 31
100 100 100 100 100 100 100 100 100 100 100 100 100 100 100 100 100 100 100 100 84 70 71 56 56 56 53 51 44 36 31 31 28 21 19 17 15 15 16 17 18 22 26
98 100 100 100 100 100 100 100 100 100 100 100 100 100 100 100 100 100 92 94 87 63 63 68 51 57 40 37 32 34 29 22 18 16 14 14 14 15 16 16 17 18 19
87 83 91 100 100 100 100 100 100 99 98 96 95 92 100 100 96 84 69 66 70 57 56 50 42 35 33 35 32 25 21 17 15 13 12 12 13 12 12 13 14 16 16
59 67 81 90 83 78 79 81 92 85 78 76 69 69 66 73 65 59 59 54 50 43 39 35 35 34 33 29 24 20 17 16 14 14 13 14 14 14 14 14 14 13 14
74 65 54 53 60 55 55 54 52 49 51 59 57 50 46 46 43 45 44 44 41 35 38 37 35 32 28 23 22 20 19 17 16 17 19 20 21 21 19 21 19 17 16
92 96 90 77 68 71 81 77 71 57 52 51 48 49 45 42 47 38 40 39 43 44 40 35 30 30 25 26 22 24 23 22 23 25 27 29 30 29 25 25 24 24 25
75 74 74 75 74 63 54 61 53 55 46 51 51 56 50 40 40 38 50 53 45 43 37 30 29 31 31 28 30 30 29 30 30 31 30 33 35 34 34 29 26 26 29
49 47 51 55 71 63 53 44 50 41 39 49 43 34 31 35 43 41 46 44 43 44 33 32 36 38 35 34 39 40 36 31 32 33 33 36 38 37 34 35 37 38 39
33 35 35 40 45 42 40 41 47 42 40 37 38 37 41 47 42 39 40 44 44 46 44 43 46 45 41 40 46 41 32 29 34 35 38 42 47 51 48 41 38 48 56
25 29 32 30 30 30 29 28 28 29 30 31 33 36 39 39 43 46 50 43 48 54 57 53 55 47 45 54 45 33 34 37 39 44 46 56 64 67 61 58 54 51 61
31 29 28 28 24 23 24 26 28 30 32 32 33 33 36 39 41 47 51 53 55 57 57 60 54 54 57 46 34 34 43 44 46 51 55 70 77 71 71 69 73 69 72
43 40 38 36 34 35 34 32 31 34 37 38 37 37 42 51 54 57 54 55 60 67 65 57 56 61 48 36 38 44 44 46 49 56 58 76 81 83 80 76 80 78 85
55 53 51 51 51 52 52 51 50 44 44 47 50 53 54 54 61 58 62 68 65 64 65 66 66 60 46 44 44 44 45 48 49 52 61 71 85 88 88 88 89 90 86
48 60 68 70 71 70 69 69 67 66 66 65 62 62 60 62 69 76 72 73 72 71 75 69 62 53 51 51 50 50 62 72 69 59 59 65 83 91 91 93 93 96 98
35 50 62 70 75 78 76 77 80 84 86 86 85 84 87 90 87 85 78 76 72 64 60 55 53 56 60 57 57 70 79 88 93 96 95 82 76 84 90 89 95 98 100
12 15 26 37 50 58 72 80 85 86 86 86 85 83 85 88 91 87 79 67 60 54 52 55 58 62 64 66 74 87 90 89 90 90 93 100 97 88 90 93 95 98 98
9 10 11 13 19 28 42 56 66 76 82 87 87 86 84 86 85 77 66 61 61 65 65 63 60 61 66 67 78 96 95 92 92 95 96 98 100 100 100 98 98 99 100
7 8 9 10 12 15 20 29 39 51 61 67 73 77 81 82 79 78 78 75 75 78 80 77 75 76 72 75 90 100 100 97 97 99 98 94 93 94 99 100 100 100 100
6 7 7 9 11 13 16 20 28 37 48 55 65 67 70 73 79 82 85 86 88 88 87 89 89 88 89 86 92 99 98 97 98 99 100 99 95 92 94 94 91 93 99
6 6 6 7 9 10 12 14 17 23 30 35 43 50 58 65 69 71 75 76 75 72 74 78 80 83 84 86 87 88 88 86 85 83 84 89 94 92 88 90 90 88 89
5 6 6 6 7 8 9 11 13 15 16 19 24 31 38 47 49 48 52 58 65 69 65 64 66 72 72 72 74 76 69 61 62 62 55 50 51 56 60 67 70 70 73

GFSGL_250_rhum_114.txt.gz
RH
100 100 100 100 100 100 100 100 100 100 100 100 100 100 100 100 100 100 100 100 100 100 100 100 100 100 100 100 100 100 100 100 100 98 100 100 75 51 44 34 36 34 30
100 100 100 100 100 100 100 100 100 98 100 100 100 100 100 100 100 100 100 100 100 100 93 79 100 100 100 100 98 84 100 95 89 88 83 51 46 39 28 27 29 28 27
94 100 100 100 100 100 100 100 99 100 100 97 95 97 99 100 100 100 98 100 100 100 88 93 97 100 99 100 100 94 89 91 80 73 54 40 39 33 29 30 29 25 25
98 100 100 100 100 100 100 100 100 100 100 100 100 100 100 88 100 99 100 100 100 100 100 100 100 100 100 99 99 97 98 81 74 67 40 42 34 33 34 29 26 20 17
100 100 100 100 100 100 100 100 100 100 100 100 100 100 100 100 100 100 100 88 97 100 100 100 100 100 100 100 100 100 83 87 70 58 50 38 40 31 30 26 18 15 14
100 100 100 100 100 100 100 100 100 100 100 100 100 100 100 100 100 100 100 100 96 99 91 100 100 100 100 100 100 100 70 81 64 56 46 42 33 29 25 17 13 11 11
100 100 100 100 100 100 100 100 100 100 100 100 100 100 100 100 100 100 100 100 100 100 100 100 100 100 100 98 98 85 77 66 58 47 47 35 31 26 18 13 11 11 12
100 100 100 100 100 100 100 100 100 100 100 100 100 100 100 100 100 100 100 100 100 100 100 100 100 100 100 100 87 81 73 56 51 42 36 33 28 18 14 12 12 14 16
100 100 100 100 100 100 100 100 100 100 100 100 100 100 100 100 100 100 100 100 98 95 100 100 100 100 100 83 75 63 59 44 36 33 32 28 19 16 14 16 19 20 19
90 97 100 100 100 100 100 100 100 100 100 100 100 100 100 100 100 100 100 100 100 100 100 100 100 96 83 67 57 53 41 30 31 34 28 22 17 17 18 23 23 23 23
63 79 92 98 90 100 100 100 100 100 100 100 100 100 100 100 100 100 100 100 100 100 99 98 95 70 59 57 47 35 31 34 32 28 24 23 20 22 26 26 26 25 23
78 67 67 64 69 70 83 99 100 100 100 100 100 100 100 100 100 100 100 100 100 100 88 71 63 49 42 31 30 30 34 31 27 23 24 25 27 31 28 25 29 27 27
96 79 80 71 70 78 79 74 79 82 87 90 90 89 85 84 90 90 84 75 70 64 62 55 38 30 25 27 30 35 30 27 25 24 26 33 36 33 27 29 32 31 34
85 88 94 79 79 72 68 65 68 72 69 67 65 67 68 61 62 57 55 53 50 42 37 27 22 25 28 30 30 28 29 25 27 25 38 40 36 30 34 37 41 43 46
60 67 70 63 82 98 90 70 68 55 49 51 52 50 46 48 43 30 28 26 26 25 25 25 29 29 29 28 30 30 30 32 27 38 46 33 31 38 39 44 48 51 56
40 47 46 44 48 48 48 42 39 30 28 30 30 27 25 25 24 22 22 22 24 25 28 30 30 28 28 31 30 34 36 38 40 51 40 34 38 40 41 47 52 62 68
30 32 32 32 37 37 35 34 31 27 26 25 23 23 23 22 22 23 23 24 27 29 27 26 26 29 31 38 39 42 47 55 55 49 39 43 40 40 43 48 65 68 73
15 23 30 32 35 36 35 35 34 33 29 27 26 25 24 24 24 24 24 24 24 25 25 29 35 37 43 52 56 61 63 64 59 50 46 50 47 49 53 54 58 73 85
8 9 12 19 28 35 39 42 44 44 45 42 38 37 36 36 36 36 35 34 36 39 39 44 50 56 59 68 68 71 73 63 58 49 52 54 58 72 87 92 83 74 82
7 8 8 8 12 20 30 38 46 53 56 57 57 55 56 57 56 54 56 58 57 60 62 63 71 82 82 76 75 69 65 53 52 58 62 60 66 85 93 96 97 100 91
6 6 7 8 9 10 14 19 32 42 50 58 63 68 71 74 74 74 77 81 82 85 86 84 84 79 72 78 78 68 56 53 58 64 69 70 70 94 97 93 93 95 100
5 5 5 6 6 7 8 10 13 21 34 48 58 61 67 74 79 82 84 86 84 83 81 82 83 82 81 80 80 75 67 66 65 67 70 72 76 96 98 97 92 93 98
5 5 4 5 5 6 6 7 8 11 15 24 37 47 54 64 71 76 84 87 87 89 87 87 91 89 86 82 83 86 85 86 89 82 84 85 84 92 97 93 92 94 95
5 5 4 4 5 5 5 6 6 8 10 13 17 24 32 42 53 60 67 75 82 82 81 82 88 85 87 86 89 94 98 100 97 96 96 98 92 92 98 97 94 90 90
4 5 4 4 5 5 5 6 6 7 8 10 12 16 20 24 32 38 44 49 54 60 62 70 78 80 86 86 90 90 90 96 96 94 95 94 95 99 98 97 93 92 90
6 5 5 5 5 5 5 6 6 7 7 8 10 12 15 17 20 26 30 33 38 45 49 54 58 65 71 76 79 77 76 80 86 83 85 86 88 91 95 98 98 95 94

GFSGL_250_rhum_117.txt.gz
RH
100 100 100 100 100 100 100 100 100 100 100 100 100 100 100 100 100 100 100 100 98 100 92 100 89 98 99 100 100 100 100 100 100 87 100 98 98 87 59 79 50 44 44
100 100 100 100 100 100 100 95 100 100 100 100 100 100 100 100 100 100 98 98 90 75 71 82 100 100 100 100 100 100 100 82 100 100 98 86 74 63 65 66 52 40 56
100 100 100 100 100 91 100 100 100 100 100 100 100 99 100 100 89 100 100 100 100 100 100 100 100 100 100 100 100 92 100 100 97 90 79 86 67 72 68 68 54 55 55
100 100 100 100 100 100 100 100 100 100 100 100 100 100 100 100 100 97 99 100 100 100 100 100 100 100 96 87 89 97 98 96 93 82 96 88 70 87 82 72 58 62 58
100 100 100 100 100 100 100 100 100 100 100 100 100 100 100 100 100 100 100 100 100 100 100 100 100 100 100 100 99 100 87 78 98 96 99 95 96 89 73 71 64 71 46
100 100 87 100 100 100 100 100 100 100 100 100 100 100 100 100 100 100 100 100 100 100 100 100 100 100 100 100 97 99 100 100 100 93 99 98 85 74 78 60 60 55 57
100 100 100 97 100 100 100 100 100 100 100 100 100 100 100 100 100 100 100 100 100 100 100 100 100 100 100 100 100 100 100 100 98 100 87 93 85 81 71 62 62 57 40
100 100 100 100 100 100 100 93 91 100 100 100 100 100 100 100 100 100 100 100 100 100 100 100 100 100 100 100 100 100 97 97 93 90 90 88 86 82 80 72 63 47 32
100 100 100 100 100 100 100 100 100 97 94 100 100 100 100 100 100 100 100 100 100 100 100 100 100 100 100 100 100 100 88 100 96 100 92 97 87 83 67 59 53 38 26
100 100 100 100 100 100 100 100 100 100 100 100 100 100 100 100 100 100 100 100 100 100 100 100 100 100 100 100 100 100 98 94 100 100 98 86 77 71 70 55 35 26 20
100 100 100 100 100 100 100 100 100 100 100 100 100 100 100 100 100 100 100 100 100 98 96 100 100 100 100 100 100 100 98 92 97 94 90 73 69 59 49 37 23 22 16
100 100 98 93 98 100 100 100 100 100 100 100 100 100 100 100 100 100 100 100 100 100 100 100 100 100 100 100 100 100 95 100 86 75 73 62 53 46 37 24 21 17 18
73 82 87 100 100 100 99 100 100 100 100 100 100 100 100 100 100 100 100 100 100 100 100 100 100 100 100 100 100 100 100 95 71 64 61 54 41 27 24 21 19 18 26
68 59 68 70 74 78 87 99 99 96 98 96 95 86 86 100 100 100 100 100 100 100 100 100 98 100 100 99 94 84 71 68 63 58 41 35 21 23 21 19 19 27 31
64 71 56 58 68 80 91 98 95 100 100 89 88 88 86 99 100 100 100 100 100 100 100 92 85 84 82 65 60 56 57 59 50 30 22 25 24 22 20 21 30 36 27
39 34 52 50 53 49 49 58 69 83 85 90 88 100 100 100 100 100 92 90 92 90 75 70 69 73 60 54 58 53 46 30 23 21 23 24 24 21 25 31 40 33 31
12 15 17 19 24 36 36 45 64 72 70 67 65 62 71 81 87 82 81 82 72 73 66 65 58 46 38 29 25 23 23 23 23 23 26 29 27 31 33 42 43 32 37
12 10 8 10 15 20 22 25 44 64 61 52 50 53 58 57 52 51 49 48 45 42 46 40 37 32 27 24 24 24 27 26 26 29 33 37 35 43 46 46 37 39 44
10 9 9 8 7 7 8 13 22 29 32 35 40 46 46 41 36 34 34 35 38 40 41 39 35 30 30 31 32 34 36 40 42 46 49 46 54 53 50 41 37 46 54
9 8 7 7 7 6 6 7 8 9 14 26 32 33 34 39 42 42 39 36 39 44 46 45 41 40 45 48 51 54 55 58 59 60 64 60 61 61 50 43 49 54 58
8 6 6 5 5 5 5 5 5 6 7 8 10 14 21 29 38 42 45 47 47 49 50 53 54 54 54 59 64 68 74 79 78 75 70 66 66 63 54 54 61 61 61
8 6 5 5 5 4 4 4 4 4 5 6 7 9 10 13 19 29 38 50 60 61 66 65 67 66 72 75 79 85 85 80 81 82 78 78 72 74 69 70 72 70 70
6 5 5 5 5 4 4 4 4 4 5 5 5 6 7 9 12 18 28 45 53 59 69 72 75 80 78 74 74 77 82 84 83 85 77 82 81 83 80 78 83 91 89
5 4 5 6 6 5 4 4 4 4 5 5 5 5 6 7 9 14 19 24 31 41 51 63 68 66 71 76 78 83 82 75 78 78 80 82 80 89 91 88 89 92 94
4 5 6 7 8 8 6 5 4 4 4 5 5 5 6 7 8 10 12 16 19 24 30 38 44 42 44 52 55 58 66 68 70 82 85 84 79 88 90 94 94 95 95
4 6 7 8 9 9 8 7 6 5 4 5 5 5 6 6 7 8 9 11 13 16 21 23 27 30 31 32 40 44 47 52 59 63 66 68 71 72 75 83 90 92 92

GFSGL_250_rhum_123.txt.gz
RH
100 100 100 100 100 100 100 91 100 97 96 100 100 100 100 100 100 100 100 100 100 100 100 100 100 99 99 98 78 60 76 94 97 97 100 100 89 63 72 92 79 100 97
100 100 100 100 100 99 100 93 89 88 100 100 100 100 100 98 100 100 100 100 100 100 100 100 100 100 94 79 92 100 100 100 100 100 88 97 84 53 78 66 100 100 100
100 100 100 100 100 100 100 100 100 100 96 100 92 99 99 100 100 100 100 100 100 100 100 100 100 100 100 100 100 100 100 100 100 90 84 64 67 84 98 94 98 86 87
100 100 100 100 100 100 100 100 100 100 100 100 100 100 95 100 100 100 100 100 100 100 99 100 100 100 100 100 100 100 100 100 84 92 79 81 98 100 100 100 100 100 100
100 100 100 100 100 100 100 100 100 100 100 100 100 100 100 100 100 100 100 100 100 100 100 96 100 100 100 100 98 89 93 99 100 98 100 100 100 92 96 99 100 100 100
100 100 100 100 100 100 100 100 100 100 100 100 100 100 100 100 100 91 82 86 93 91 100 100 100 100 65 60 78 100 96 100 100 100 100 100 89 100 100 100 100 100 98
100 100 100 100 100 100 100 100 100 100 100 100 100 100 100 100 100 100 100 100 100 98 100 99 99 94 78 89 100 100 100 100 100 100 100 100 100 100 100 100 100 100 88
100 100 100 94 98 100 100 100 100 100 100 96 100 100 100 100 100 100 100 100 100 100 100 99 100 100 94 100 100 100 100 100 100 100 100 100 100 100 100 100 100 100 100
100 100 100 100 100 100 100 100 100 100 100 100 100 100 100 100 100 100 98 86 100 100 100 100 100 100 100 100 100 100 100 100 100 100 100 100 100 100 100 100 100 100 100
100 100 100 100 100 100 100 100 100 100 100 100 100 100 100 100 100 100 100 100 100 99 97 100 100 97 84 94 100 100 100 100 100 100 100 99 100 100 100 99 98 100 100
100 100 100 100 100 100 100 100 98 92 100 93 99 100 100 100 100 100 100 100 100 100 100 99 99 100 100 100 100 100 100 100 100 100 100 100 100 100 100 100 100 93 87
100 100 94 100 100 100 100 100 100 100 90 96 94 100 100 100 100 100 100 100 100 100 100 100 100 100 100 100 100 100 100 100 100 100 100 100 100 91 99 100 100 95 100
100 100 90 96 100 100 100 100 98 95 100 100 100 100 100 100 100 98 93 100 100 90 100 100 100 100 100 100 100 100 100 100 100 79 99 100 100 97 98 100 100 98 92
100 100 100 100 100 97 96 100 100 100 99 85 89 85 100 100 100 96 99 100 98 90 99 100 100 100 100 100 100 100 100 100 97 100 100 100 99 80 98 100 100 98 91
100 94 100 100 100 100 100 97 96 95 100 100 100 100 100 100 98 81 77 75 74 85 100 96 100 100 100 100 98 100 100 94 99 100 100 100 98 100 94 100 94 82 78
98 98 100 100 100 98 94 93 99 78 75 79 96 100 96 100 92 87 97 96 95 85 99 100 79 98 100 100 100 100 100 100 100 100 100 100 100 100 100 79 76 67 62
63 64 68 73 75 77 72 74 74 84 92 94 89 78 81 74 86 94 100 100 100 100 100 100 100 100 100 100 100 100 100 100 100 100 100 98 89 74 85 71 69 61 58
24 26 25 24 24 24 20 21 25 29 32 36 53 58 64 80 89 90 92 98 98 86 76 76 76 96 95 84 78 80 74 100 99 99 100 84 60 64 82 75 68 68 75
27 21 19 21 15 11 13 13 11 9 8 8 8 9 11 12 13 12 12 14 16 18 20 21 24 32 40 50 51 53 40 46 54 55 41 62 71 82 71 72 76 91 89
34 28 24 21 14 10 9 11 12 12 10 8 7 6 6 7 9 10 10 11 13 14 15 15 16 15 15 15 15 14 13 14 17 23 39 55 60 65 78 90 95 97 98
37 31 28 21 13 11 10 9 8 7 6 5 5 4 4 4 4 4 4 6 7 8 8 10 11 11 12 12 13 14 14 18 27 36 47 63 74 81 81 87 96 99 100
41 33 26 19 11 9 8 6 4 4 4 3 3 3 4 4 4 4 4 5 6 6 8 8 10 11 11 12 13 15 19 26 34 46 56 64 67 78 84 91 92 96 99
42 33 25 17 10 7 7 5 3 3 3 3 3 4 4 4 5 5 5 5 5 6 6 7 8 10 12 14 16 18 21 26 36 50 62 74 84 81 86 88 89 94 94
38 34 23 14 9 7 6 4 3 3 4 4 5 6 7 7 8 8 8 8 8 8 7 7 7 8 9 11 14 16 20 27 37 53 60 70 78 82 82 82 86 86 88
41 29 16 10 8 7 5 4 3 4 5 6 7 8 8 8 9 9 9 10 10 9 9 8 7 7 8 9 10 13 15 18 23 32 48 54 63 72 75 81 80 82 83
36 23 12 8 7 6 4 4 4 5 6 8 8 9 10 10 10 10 10 10 10 10 10 9 8 7 7 8 9 10 12 14 16 19 24 31 35 41 55 68 72 74 73

GFSGL_250_rhum_126.txt.gz
RH
21 20 28 97 100 100 100 100 100 100 100 100 100 100 100 100 100 100 100 99 100 100 100 100 100 100 100 100 100 99 100 96 83 92 69 53 71 85 79 73 83 79 90
24 33 100 100 100 100 100 100 100 100 100 100 100 100 100 100 100 100 100 100 79 96 100 100 100 100 100 100 100 100 100 100 90 87 100 99 91 78 81 80 88 100 100
100 100 100 100 100 100 100 100 100 100 100 100 100 100 100 100 100 100 100 100 100 100 100 100 100 100 100 100 100 100 95 95 99 98 83 87 96 80 98 99 100 98 90
100 100 100 100 100 100 100 100 100 100 100 100 100 100 100 100 100 100 100 100 100 100 100 100 100 100 100 100 100 100 100 100 100 100 100 100 95 89 87 96 88 88 81
100 100 100 100 100 100 100 100 100 100 100 100 100 100 100 100 100 100 100 100 100 100 96 100 100 100 100 100 100 100 100 100 100 100 96 91 99 100 89 54 69 90 98
100 100 100 100 100 100 100 100 100 100 100 100 94 91 81 81 96 82 100 98 71 86 54 63 69 93 100 100 100 99 56 97 100 91 92 100 86 92 86 100 100 90 100
100 100 100 100 100 100 100 100 100 100 100 100 100 100 100 98 100 100 87 90 100 98 100 100 100 98 95 76 68 86 97 99 97 92 86 81 90 84 93 100 100 100 100
100 100 100 100 100 100 100 100 100 100 100 100 100 100 100 100 100 100 100 100 99 100 100 100 100 100 100 99 99 100 79 71 75 82 84 98 100 100 100 100 100 100 100
100 100 100 100 100 100 100 100 100 100 100 100 100 100 100 100 100 100 100 100 100 100 100 100 100 100 100 100 100 92 99 90 99 100 100 100 100 100 100 100 99 97 100
100 100 100 100 100 100 100 100 90 96 100 100 100 100 100 100 100 100 100 100 100 100 100 100 100 100 100 95 100 100 96 96 100 100 100 99 96 99 100 100 100 100 100
100 100 100 100 100 100 96 98 100 100 100 97 91 99 100 96 100 100 100 100 100 100 100 100 100 100 100 100 100 100 100 100 100 100 100 100 100 100 100 100 100 100 100
100 100 98 98 100 100 100 100 100 100 100 100 100 100 100 100 100 100 100 100 100 100 100 100 100 100 100 100 100 100 100 100 100 100 100 100 100 100 100 100 100 100 99
100 100 100 100 94 100 100 100 100 100 91 100 100 100 100 100 100 100 100 100 100 100 100 100 100 100 100 100 100 100 100 100 100 100 100 100 100 100 100 100 100 100 98
100 100 100 100 100 96 77 91 100 100 100 100 100 100 100 100 100 100 100 100 100 100 100 100 100 100 100 100 100 100 100 100 100 100 100 100 100 100 100 100 100 100 94
100 100 100 100 100 100 100 100 100 100 100 100 100 100 100 100 100 100 100 100 100 100 100 100 100 100 100 100 100 100 100 100 100 100 100 100 100 100 100 100 100 100 96
100 100 100 95 86 90 99 94 96 99 96 97 94 93 93 92 96 100 94 87 100 97 100 100 100 100 100 100 100 100 100 100 100 100 100 100 100 100 100 100 100 100 100
63 65 65 58 53 57 64 68 67 64 56 48 49 51 48 44 49 59 55 55 54 63 95 100 100 100 100 100 99 100 100 100 100 100 100 100 100 100 100 100 100 100 100
30 30 33 33 35 38 40 41 42 47 50 53 56 53 45 37 31 21 16 16 24 32 35 47 60 73 78 80 84 90 92 92 99 99 98 92 88 86 93 87 68 38 40
36 34 36 34 33 28 23 25 26 26 29 29 25 23 20 16 13 11 11 10 12 13 15 18 20 22 25 32 38 47 52 53 52 46 48 45 43 41 35 30 26 28 40
58 58 56 48 38 30 22 17 14 13 11 9 9 9 7 6 6 7 8 8 9 10 11 14 16 18 22 25 26 25 24 33 37 42 38 30 26 24 24 24 31 41 62
71 76 61 55 46 29 19 14 12 9 7 6 6 6 6 6 6 5 5 5 6 7 7 8 9 10 11 14 15 16 13 13 24 31 27 21 20 20 26 27 38 54 64
68 65 58 46 37 22 15 12 9 7 6 6 6 5 4 3 3 3 3 4 4 4 4 5 5 5 6 6 7 9 9 10 13 18 21 23 20 26 28 30 37 48 56
70 74 64 57 42 22 13 10 7 6 6 5 4 3 3 3 3 4 4 4 4 5 5 6 6 6 6 7 8 8 8 9 10 13 16 19 19 21 29 31 42 49 57
72 73 66 56 45 21 11 8 6 6 5 4 3 3 4 4 5 5 6 6 6 7 7 8 9 9 10 10 10 10 10 10 11 12 12 15 17 20 25 33 38 48 54
73 76 70 61 44 17 10 7 6 6 4 4 4 4 5 6 6 7 8 8 8 8 8 9 9 10 11 12 13 13 13 13 13 12 12 12 14 16 20 24 31 48 62
69 69 61 60 34 15 8 7 7 5 4 5 6 6 7 8 8 8 8 8 9 9 9 10 10 10 11 12 13 14 14 14 14 13 12 12 13 15 19 24 35 40 43

GFSGL_250_rhum_129.txt.gz
RH
5 6 7 7 10 13 17 33 100 100 100 100 100 100 100 100 100 100 100 100 100 100 100 100 100 100 100 100 100 99 91 98 100 97 89 83 99 90 47 46 67 76 58
4 5 6 9 15 23 31 58 100 100 100 100 100 100 100 100 100 100 100 100 100 100 100 100 100 100 100 100 100 100 99 85 89 85 100 90 97 56 68 98 81 52 81
9 10 10 12 15 31 72 80 100 100 100 100 100 100 100 100 100 100 100 99 100 100 100 100 100 100 100 72 96 100 100 100 100 97 88 64 82 97 74 51 76 86 96
18 23 20 18 26 43 40 99 100 100 100 100 100 100 100 100 100 100 100 100 100 100 100 100 100 93 100 100 99 100 100 87 75 86 89 99 79 76 64 100 100 100 100
18 21 23 23 31 36 39 35 100 100 100 100 100 100 100 100 100 100 100 100 100 100 100 100 98 100 100 100 98 100 100 100 100 89 67 72 67 62 97 100 100 98 97
27 24 30 43 68 50 52 55 97 100 100 100 100 100 100 100 100 100 100 100 100 100 100 100 100 100 100 100 100 100 100 98 90 75 92 92 97 100 87 99 97 81 100
100 85 100 92 91 66 97 100 100 100 100 100 100 100 100 100 100 100 100 100 100 100 100 100 100 100 100 100 100 94 71 64 80 82 87 100 93 100 90 100 100 100 100
100 97 98 62 100 100 100 100 100 100 100 100 100 99 97 90 86 85 84 82 98 99 97 81 88 74 74 74 64 60 71 93 100 97 98 100 100 100 100 100 100 100 96
76 65 100 100 100 100 100 100 100 100 100 100 90 92 98 91 80 91 89 92 99 88 96 88 84 79 94 99 100 98 95 93 97 100 100 100 100 100 100 100 97 100 92
86 100 96 100 100 100 100 100 100 100 100 100 100 100 100 100 100 100 100 100 100 100 100 90 94 100 100 100 100 100 93 92 100 100 98 100 100 100 100 100 100 100 100
90 98 100 100 100 100 100 100 100 100 100 90 95 95 100 100 100 100 100 100 100 100 100 100 100 100 100 100 100 100 100 100 100 100 100 100 99 100 100 100 100 100 100
100 100 100 100 100 100 100 100 100 100 100 100 100 100 100 100 100 100 100 100 100 100 100 100 100 100 100 100 100 100 100 100 100 100 100 100 100 100 100 100 100 100 100
100 99 100 99 100 100 100 100 100 100 100 100 100 100 100 100 100 100 100 100 100 100 100 100 100 100 100 100 100 100 100 100 100 100 100 100 100 100 100 100 100 100 100
100 100 100 100 100 96 100 100 100 100 100 100 100 100 100 100 100 100 100 100 100 100 100 100 100 100 100 100 100 100 100 100 100 100 100 100 100 100 100 100 100 100 100
100 100 100 100 100 100 100 100 100 99 98 100 99 100 100 96 100 100 100 100 100 100 100 100 98 100 100 100 100 100 100 100 100 100 100 100 100 100 100 100 100 100 100
80 93 96 100 100 100 96 91 94 98 100 100 94 93 91 86 76 64 72 69 68 69 66 63 66 80 90 100 100 100 100 100 100 100 100 100 100 99 100 100 100 100 100
50 47 53 80 83 71 62 64 69 71 79 88 89 83 77 66 50 47 50 49 49 39 29 24 34 58 56 64 74 75 69 71 72 77 82 78 84 84 87 83 99 100 100
35 38 38 37 35 37 40 43 41 39 37 38 40 37 33 31 29 27 27 30 28 27 22 20 17 17 21 27 28 26 35 52 61 66 67 73 83 89 79 96 100 100 100
42 41 44 40 41 38 45 46 38 36 32 25 22 20 20 17 19 24 27 26 22 18 16 15 18 19 22 24 28 32 34 37 42 44 59 67 63 58 74 92 97 93 87
54 56 55 54 62 60 58 52 49 36 25 16 10 8 8 7 8 8 8 8 9 8 8 8 8 8 9 10 12 14 14 15 19 22 23 25 28 37 52 69 72 60 56
58 60 62 64 61 61 62 61 53 35 22 11 8 7 6 5 5 4 5 5 5 5 5 5 5 5 5 6 6 7 8 9 12 15 16 21 27 34 39 49 49 45 38
72 66 69 77 66 63 68 69 60 32 17 9 7 6 6 5 4 4 3 3 3 3 3 3 3 3 4 4 4 4 4 5 7 9 10 14 18 22 24 26 24 29 31
71 72 80 73 68 62 75 68 60 33 15 8 7 6 5 4 3 3 3 4 4 4 4 4 5 5 5 5 5 5 5 5 6 6 7 8 10 11 14 16 15 19 25
75 71 71 73 72 70 74 74 52 29 12 8 7 6 5 4 4 5 5 6 6 6 6 6 6 6 7 8 8 8 8 9 9 9 9 9 9 10 11 13 14 15 18
77 68 67 70 72 70 69 58 40 25 12 8 7 6 4 4 5 7 7 7 7 7 7 8 7 8 8 8 9 10 11 11 11 12 12 12 12 14 14 15 16 17 18
75 77 72 64 68 66 60 54 34 20 11 9 6 6 4 4 6 7 8 7 7 7 7 8 8 8 8 9 9 10 11 12 13 13 14 14 15 16 16 18 18 19 18